[[{"header":{"parameterUnit":"m.s-1","parameterCategory":1,"la1":30.6,"la2":28.766,"lo1":-90.7593,"lo2":-88.6598,"dy":0.0162,"dx":0.0183,"nx":116,"ny":114,"refTime":"2024-02-26T18:00:00:Z","depth":0,"parameterNumber":2,"parameterNumberName":"U-component_of_WINDS"},"data":[0.0,0.0,0.0,0.0,0.0,0.0,0.0,0.0,0.0,0.0,0.0,0.0,0.0,0.0,0.0,0.0,0.0,0.0,0.0,0.0,0.0,0.0,0.0,0.0,0.0,0.0,0.0,0.0,0.0,0.0,0.0,0.0,0.0,0.0,0.0,0.0,0.0,0.0,0.0,0.0,0.0,0.0,0.0,0.0,0.0,0.0,0.0,0.0,0.0,0.0,0.0,0.0,0.0,0.0,0.0,0.0,0.0,0.0,0.0,0.0,0.0,0.0,0.0,0.0,0.0,0.0,0.0,0.0,0.0,0.0,0.0,0.0,0.0,0.0,0.0,0.0,0.0,0.0,0.0,0.0,0.0,0.0,0.0,0.0,0.0,0.0,0.0,0.0,0.0,0.0,0.0,0.0,0.0,0.0,0.0,0.0,0.0,0.0,0.0,0.0,0.0,0.0,0.0,0.0,0.0,0.0,0.0,0.0,0.0,0.0,0.0,0.0,0.0,0.0,0.0,0.0,0.0,0.0,0.0,0.0,0.0,0.0,0.0,0.0,0.0,0.0,0.0,0.0,0.0,0.0,0.0,0.0,0.0,0.0,0.0,0.0,0.0,0.0,0.0,0.0,0.0,0.0,0.0,0.0,0.0,0.0,0.0,0.0,0.0,0.0,0.0,0.0,0.0,0.0,0.0,0.0,0.0,0.0,0.0,0.0,0.0,0.0,0.0,0.0,0.0,0.0,0.0,0.0,0.0,0.0,0.0,0.0,0.0,0.0,0.0,0.0,0.0,0.0,0.0,0.0,0.0,0.0,0.0,0.0,0.0,0.0,0.0,0.0,0.0,0.0,0.0,0.0,0.0,0.0,0.0,0.0,0.0,0.0,0.0,0.0,0.0,0.0,0.0,0.0,0.0,0.0,0.0,0.0,0.0,0.0,0.0,0.0,0.0,0.0,0.0,0.0,0.0,0.0,0.0,0.0,0.0,0.0,0.0,0.0,0.0,0.0,0.0,0.0,0.0,0.0,0.0,0.0,0.0,0.0,0.0,0.0,0.0,0.0,0.0,0.0,0.0,0.0,0.0,0.0,0.0,0.0,0.0,0.0,0.0,0.0,0.0,0.0,0.0,0.0,0.0,0.0,0.0,0.0,0.0,0.0,0.0,0.0,0.0,0.0,0.0,0.0,0.0,0.0,0.0,0.0,0.0,0.0,0.0,0.0,0.0,0.0,0.0,0.0,0.0,0.0,0.0,0.0,0.0,0.0,0.0,0.0,0.0,0.0,0.0,0.0,0.0,0.0,0.0,0.0,0.0,0.0,0.0,0.0,0.0,0.0,0.0,0.0,0.0,0.0,0.0,0.0,0.0,0.0,0.0,0.0,0.0,0.0,0.0,0.0,0.0,0.0,0.0,0.0,0.0,0.0,0.0,0.0,0.0,0.0,0.0,0.0,0.0,0.0,0.0,0.0,0.0,0.0,0.0,0.0,0.0,0.0,0.0,0.0,0.0,0.0,0.0,0.0,0.0,0.0,0.0,0.0,0.0,0.0,0.0,0.0,0.0,0.0,0.0,0.0,0.0,0.0,0.0,0.0,0.0,0.0,0.0,0.0,0.0,0.0,0.0,0.0,0.0,0.0,0.0,0.0,0.0,0.0,0.0,0.0,0.0,0.0,0.0,0.0,0.0,0.0,0.0,0.0,0.0,0.0,0.0,0.0,0.0,0.0,0.0,0.0,0.0,0.0,0.0,0.0,0.0,0.0,0.0,0.0,0.0,0.0,0.0,0.0,0.0,0.0,0.0,0.0,0.0,0.0,0.0,0.0,0.0,0.0,0.0,0.0,0.0,0.0,0.0,0.0,0.0,0.0,0.0,0.0,0.0,0.0,0.0,0.0,0.0,0.0,0.0,0.0,0.0,0.0,0.0,0.0,0.0,0.0,0.0,0.0,0.0,0.0,0.0,0.0,0.0,0.0,0.0,0.0,0.0,0.0,0.0,0.0,0.0,0.0,0.0,0.0,0.0,0.0,0.0,0.0,0.0,0.0,0.0,0.0,0.0,0.0,0.0,0.0,0.0,0.0,0.0,0.0,0.0,0.0,0.0,0.0,0.0,0.0,0.0,0.0,0.0,0.0,0.0,0.0,0.0,0.0,0.0,0.0,0.0,0.0,0.0,0.0,0.0,0.0,0.0,0.0,0.0,0.0,0.0,0.0,0.0,0.0,0.0,0.0,0.0,0.0,0.0,0.0,0.0,0.0,0.0,0.0,0.0,0.0,0.0,0.0,0.0,0.0,0.0,0.0,0.0,0.0,0.0,0.0,0.0,0.0,0.0,0.0,0.0,0.0,0.0,0.0,0.0,0.0,0.0,0.0,0.0,0.0,0.0,0.0,0.0,0.0,0.0,0.0,0.0,0.0,0.0,0.0,0.0,0.0,0.0,0.0,0.0,0.0,0.0,0.0,0.0,0.0,0.0,0.0,0.0,0.0,0.0,0.0,0.0,0.0,0.0,0.0,0.0,0.0,0.0,0.0,0.0,0.0,0.0,0.0,0.0,0.0,0.0,0.0,0.0,0.0,0.0,0.0,0.0,0.0,0.0,0.0,0.0,0.0,0.0,0.0,0.0,0.0,0.0,0.0,0.0,0.0,0.0,0.0,0.0,0.0,0.0,0.0,0.0,0.0,0.0,0.0,0.0,0.0,0.0,0.0,0.0,0.0,0.0,0.0,0.0,0.0,0.0,0.0,0.0,0.0,0.0,0.0,0.0,0.0,0.0,0.0,0.0,0.0,0.0,0.0,0.0,0.0,0.0,0.0,0.0,0.0,0.0,0.0,0.0,0.0,0.0,0.0,0.0,0.0,0.0,0.0,0.0,0.0,0.0,0.0,0.0,0.0,0.0,0.0,0.0,0.0,0.0,0.0,0.0,0.0,0.0,0.0,0.0,0.0,0.0,0.0,0.0,0.0,0.0,0.0,0.0,0.0,0.0,0.0,0.0,0.0,0.0,0.0,0.0,0.0,0.0,0.0,0.0,0.0,0.0,0.0,0.0,0.0,0.0,0.0,0.0,0.0,0.0,0.0,0.0,0.0,0.0,0.0,0.0,0.0,0.0,0.0,0.0,0.0,0.0,0.0,0.0,0.0,0.0,0.0,0.0,0.0,0.0,0.0,0.0,0.0,0.0,0.0,0.0,0.0,0.0,0.0,0.0,0.0,0.0,0.0,0.0,0.0,0.0,0.0,0.0,0.0,0.0,0.0,0.0,0.0,0.0,0.0,0.0,0.0,0.0,0.0,0.0,0.0,0.0,0.0,0.0,0.0,0.0,0.0,0.0,0.0,0.0,0.0,0.0,0.0,0.0,0.0,0.0,0.0,0.0,0.0,0.0,0.0,0.0,0.0,0.0,0.0,0.0,0.0,0.0,0.0,0.0,0.0,0.0,0.0,0.0,0.0,0.0,0.0,0.0,0.0,0.0,0.0,0.0,0.0,0.0,0.0,0.0,0.0,0.0,0.0,0.0,0.0,0.0,0.0,0.0,0.0,0.0,0.0,0.0,0.0,0.0,0.0,0.0,0.0,0.0,0.0,0.0,0.0,0.0,0.0,0.0,0.0,0.0,0.0,0.0,0.0,0.0,0.0,0.0,0.0,0.0,0.0,0.0,0.0,0.0,0.0,0.0,0.0,0.0,0.0,0.0,0.0,0.0,0.0,0.0,0.0,0.0,0.0,0.0,0.0,0.0,0.0,0.0,0.0,0.0,0.0,0.0,0.0,0.0,0.0,0.0,0.0,0.0,0.0,0.0,0.0,0.0,0.0,0.0,0.0,0.0,0.0,0.0,0.0,0.0,0.0,0.0,0.0,0.0,0.0,0.0,0.0,0.0,0.0,0.0,0.0,0.0,0.0,0.0,0.0,0.0,0.0,0.0,0.0,0.0,0.0,0.0,0.0,0.0,0.0,0.0,0.0,0.0,0.0,0.0,0.0,0.0,0.0,0.0,0.0,0.0,0.0,0.0,0.0,0.0,0.0,0.0,0.0,0.0,0.0,0.0,0.0,0.0,0.0,0.0,0.0,0.0,0.0,0.0,0.0,0.0,0.0,0.0,0.0,0.0,0.0,0.0,0.0,0.0,0.0,0.0,0.0,0.0,0.0,0.0,0.0,0.0,0.0,0.0,0.0,0.0,0.0,0.0,0.0,0.0,0.0,0.0,0.0,0.0,0.0,0.0,0.0,0.0,0.0,0.0,0.0,0.0,0.0,0.0,0.0,0.0,0.0,0.0,0.0,0.0,0.0,0.0,0.0,0.0,0.0,0.0,0.0,0.0,0.0,0.0,0.0,0.0,0.0,0.0,0.0,0.0,0.0,0.0,0.0,0.0,0.0,0.0,0.0,0.0,0.0,0.0,0.0,0.0,0.0,0.0,0.0,0.0,0.0,0.0,0.0,0.0,0.0,0.0,0.0,0.0,0.0,0.0,0.0,0.0,0.0,0.0,0.0,0.0,0.0,0.0,0.0,0.0,0.0,0.0,0.0,0.0,0.0,0.0,0.0,0.0,0.0,0.0,0.0,0.0,0.0,0.0,0.0,0.0,0.0,0.0,0.0,0.0,0.0,0.0,0.0,0.0,0.0,0.0,0.0,0.0,0.0,0.0,0.0,0.0,0.0,0.0,0.0,0.0,0.0,0.0,0.0,0.0,0.0,0.0,0.0,0.0,0.0,0.0,0.0,0.0,0.0,0.0,0.0,0.0,0.0,0.0,0.0,0.0,0.0,0.0,0.0,0.0,0.0,0.0,0.0,0.0,0.0,0.0,0.0,0.0,0.0,0.0,0.0,0.0,0.0,0.0,0.0,0.0,0.0,0.0,0.0,0.0,0.0,0.0,0.0,0.0,0.0,0.0,0.0,0.0,0.0,0.0,0.0,0.0,0.0,0.0,0.0,0.0,0.0,0.0,0.0,0.0,0.0,0.0,0.0,0.0,0.0,0.0,0.0,0.0,0.0,0.0,0.0,0.0,0.0,0.0,0.0,0.0,0.0,0.0,0.0,0.0,0.0,0.0,0.0,0.0,0.0,0.0,0.0,0.0,0.0,0.0,0.0,0.0,0.0,0.0,0.0,0.0,0.0,0.0,0.0,0.0,0.0,0.0,0.0,0.0,0.0,0.0,0.0,0.0,0.0,0.0,0.0,0.0,0.0,0.0,0.0,0.0,0.0,0.0,0.0,0.0,0.0,0.0,0.0,0.0,0.0,0.0,0.0,0.0,0.0,0.0,0.0,0.0,0.0,0.0,0.0,0.0,0.0,0.0,0.0,0.0,0.0,0.0,0.0,0.0,0.0,0.0,0.0,0.0,0.0,0.0,0.0,0.0,0.0,0.0,0.0,0.0,0.0,0.0,0.0,0.0,0.0,0.0,0.0,0.0,0.0,0.0,0.0,0.0,0.0,0.0,0.0,0.0,0.0,0.0,0.0,0.0,0.0,0.0,0.0,0.0,0.0,0.0,0.0,0.0,0.0,0.0,0.0,0.0,0.0,0.0,0.0,0.0,0.0,0.0,0.0,0.0,0.0,0.0,0.0,0.0,0.0,0.0,0.0,0.0,0.0,0.0,0.0,0.0,0.0,0.0,0.0,0.0,0.0,0.0,0.0,0.0,0.0,0.0,0.0,0.0,0.0,0.0,0.0,0.0,0.0,0.0,0.0,0.0,0.0,0.0,0.0,0.0,0.0,0.0,0.0,0.0,0.0,0.0,0.0,0.0,0.0,0.0,0.0,0.0,0.0,0.0,0.0,0.0,0.0,0.0,0.0,0.0,0.0,0.0,0.0,0.0,0.0,0.0,0.0,0.0,0.0,0.0,0.0,0.0,0.0,0.0,0.0,0.0,0.0,0.0,0.0,0.0,0.0,0.0,0.0,0.0,0.0,0.0,0.0,0.0,0.0,0.0,0.0,0.0,0.0,0.0,0.0,0.0,0.0,0.0,0.0,0.0,0.0,0.0,0.0,0.0,0.0,0.0,0.0,0.0,0.0,0.0,0.0,0.0,0.0,0.0,0.0,0.0,0.0,0.0,0.0,0.0,0.0,0.0,0.0,0.0,0.0,0.0,0.0,0.0,0.0,-3.22,-3.22,0.0,0.0,0.0,0.0,0.0,0.0,0.0,0.0,0.0,0.0,0.0,0.0,0.0,0.0,0.0,0.0,0.0,0.0,0.0,0.0,0.0,0.0,0.0,0.0,0.0,0.0,0.1516,0.1617,0.1617,0.1111,0.0808,0.0808,-0.0,-0.0606,-0.0909,-0.2221,-0.2813,-0.2589,-0.3839,-0.492,-0.5955,-0.6642,-0.7158,-0.7498,0.0,0.0,0.0,0.0,0.0,0.0,0.0,0.0,0.0,0.0,0.0,0.0,0.0,0.0,0.0,0.0,0.0,0.0,0.0,0.0,0.0,0.0,0.0,0.0,0.0,0.0,0.0,0.0,0.0,0.0,0.0,0.0,0.0,0.0,0.0,0.0,0.0,0.0,0.0,0.0,0.0,0.0,0.0,0.0,0.0,0.0,0.0,0.0,0.0,0.0,0.0,0.0,0.0,0.0,0.0,0.0,0.0,0.0,0.0,0.0,0.0,0.0,0.0,0.0,0.0,0.0,0.0,0.0,0.0,0.0,-3.2632,-3.2561,0.0,0.0,0.0,0.0,0.0,0.0,0.0,0.0,0.0,0.0,0.0,0.0,0.0,0.0,0.0,0.0,0.0,0.0,0.0,0.0,0.0,0.0,0.0,0.2123,0.2022,0.1415,0.1415,0.1415,0.1314,0.1415,0.1415,0.1314,0.0303,-0.0505,-0.0909,-0.2523,-0.3104,-0.2561,-0.4428,-0.5889,-0.7036,-0.7671,-0.797,-0.7938,0.0,0.0,0.0,0.0,0.0,0.0,0.0,0.0,0.0,0.0,0.0,0.0,0.0,0.0,0.0,0.0,0.0,0.0,0.0,0.0,0.0,0.0,0.0,0.0,0.0,0.0,0.0,0.0,0.0,0.0,0.0,0.0,0.0,0.0,0.0,0.0,0.0,0.0,0.0,0.0,0.0,0.0,0.0,0.0,0.0,0.0,0.0,0.0,0.0,0.0,0.0,0.0,0.0,0.0,0.0,0.0,0.0,0.0,0.0,0.0,0.0,0.0,0.0,0.0,-3.1522,-3.1963,-3.2314,-3.2423,-3.2753,-3.324,-3.3195,-3.2982,-3.2775,-3.2561,0.0,0.0,0.0,0.0,0.0,0.0,0.0,0.0,0.0,0.0,0.0,0.0,0.0,0.0,0.0,0.0,0.0,0.0,0.0,0.0,0.0,0.2223,0.1415,0.0707,0.0606,0.0505,0.0202,0.0606,0.0707,0.0202,-0.0808,-0.1415,-0.1516,-0.2929,-0.363,-0.3414,-0.5118,-0.6166,-0.6751,-0.7572,-0.8223,-0.8685,-0.8817,0.0,0.0,0.0,0.0,0.0,0.0,0.0,0.0,0.0,0.0,0.0,0.0,0.0,0.0,0.0,0.0,0.0,0.0,0.0,0.0,0.0,0.0,0.0,0.0,0.0,0.0,0.0,0.0,0.0,0.0,0.0,0.0,0.0,0.0,0.0,0.0,0.0,0.0,0.0,0.0,0.0,0.0,0.0,-2.1392,-2.2008,0.0,0.0,0.0,0.0,0.0,0.0,0.0,0.0,0.0,0.0,0.0,0.0,0.0,-3.0152,-3.0622,-3.0986,-3.1495,-3.2023,-3.2109,-3.2372,-3.2945,-3.3473,-3.3796,-3.4068,-3.4601,0.0,-3.3241,-3.3002,0.0,0.0,0.0,0.0,0.0,0.0,0.0,0.0,0.0,0.0,0.0,0.0,0.0,0.0,0.0,0.0,0.0,0.0,0.0,0.0,0.0,0.1414,0.0909,0.0303,-0.0408,-0.0817,-0.091,-0.0714,-0.0613,-0.091,-0.1111,-0.1415,-0.1921,-0.3132,-0.4138,-0.4935,-0.5939,-0.6714,-0.7257,-0.7908,-0.8432,-0.8821,-0.9053,-0.908,-0.9015,-0.9179,0.0,0.0,0.0,0.0,0.0,0.0,0.0,0.0,0.0,0.0,0.0,0.0,0.0,0.0,0.0,0.0,0.0,0.0,0.0,0.0,0.0,0.0,0.0,0.0,0.0,0.0,0.0,0.0,0.0,0.0,0.0,0.0,0.0,0.0,0.0,0.0,0.0,0.0,0.0,-2.1024,-2.183,-2.2451,-2.2794,-2.3319,0.0,0.0,0.0,0.0,0.0,0.0,0.0,0.0,0.0,-2.9689,-3.0305,-3.0761,-3.1061,-3.1434,-3.1964,-3.2671,-3.2818,-3.3276,-3.4046,-3.4458,-3.4731,-3.4919,-3.526,-3.5077,-3.4496,-3.4192,-3.4033,-3.3886,0.0,0.0,0.0,0.0,-3.3038,-3.2983,0.0,0.0,0.0,0.0,0.0,0.0,0.0,0.0,0.0,0.0,0.0,0.0,0.0202,0.0304,0.0102,-0.0407,-0.1241,-0.1663,-0.1641,-0.1557,-0.1559,-0.1743,-0.1434,-0.1636,-0.2443,-0.3442,-0.464,-0.5939,-0.6442,-0.6942,-0.7543,-0.8134,-0.8528,-0.8825,-0.913,-0.9331,-0.9527,-0.9444,-0.9483,0.0,0.0,0.0,0.0,0.0,0.0,0.0,0.0,0.0,0.0,0.0,0.0,0.0,0.0,0.0,0.0,0.0,0.0,0.0,0.0,0.0,0.0,0.0,0.0,0.0,0.0,0.0,0.0,0.0,0.0,0.0,0.0,0.0,0.0,0.0,0.0,0.0,0.0,-2.1463,-2.2176,-2.2891,-2.3232,-2.3754,0.0,0.0,0.0,0.0,0.0,0.0,-2.8578,-2.9118,-2.9664,-3.0241,-3.0903,-3.1346,-3.1646,-3.2179,-3.2786,-3.352,-3.3669,-3.4261,-3.5078,-3.5395,-3.5614,-3.5849,-3.5932,-3.5929,-3.59,-3.5278,-3.4929,-3.4929,-3.478,-3.463,-3.456,-3.3938,-3.373,-3.3633,0.0,0.0,0.0,0.0,0.0,0.0,0.0,0.0,0.0,0.0,0.0,-0.0303,-0.1415,-0.1129,-0.1037,-0.1556,-0.1686,-0.1701,-0.17,-0.1382,-0.1489,-0.2232,-0.2232,-0.2531,-0.3215,-0.3972,-0.4738,-0.5636,-0.6137,-0.6736,-0.7238,-0.8035,-0.8528,-0.8825,-0.9327,-0.962,-0.9831,-1.0014,-1.0085,-1.0172,0.0,0.0,0.0,0.0,0.0,0.0,0.0,0.0,0.0,0.0,0.0,0.0,0.0,0.0,0.0,0.0,0.0,0.0,0.0,0.0,0.0,0.0,0.0,0.0,0.0,0.0,0.0,0.0,0.0,0.0,0.0,0.0,0.0,0.0,0.0,0.0,0.0,0.0,0.0,-2.3416,-2.3851,0.0,0.0,0.0,0.0,-2.7348,-2.751,-2.7926,-2.8973,-2.9275,-2.9819,-3.0622,-3.1446,-3.2104,-3.2724,-3.3504,-3.4107,-3.4554,-3.4752,-3.505,-3.5475,-3.6056,-3.649,-3.6668,-3.7025,-3.7204,-3.7119,-3.5705,-3.5078,-3.4929,-3.4929,-3.478,-3.456,-3.3938,-3.373,-3.3633,0.0,0.0,0.0,0.0,0.0,0.0,0.0,0.0,0.049,0.0604,-0.0102,-0.0823,-0.1646,-0.1568,-0.1478,-0.1689,-0.1931,-0.2049,-0.2132,-0.1938,-0.2049,-0.2665,-0.2558,-0.2958,-0.384,-0.4686,-0.5395,-0.5739,-0.6527,-0.7084,-0.7501,-0.8117,-0.8681,-0.8989,-0.9392,-0.9697,-0.9909,-0.9887,-0.9988,-1.0103,-1.0181,-1.0374,0.0,0.0,0.0,0.0,0.0,0.0,0.0,0.0,0.0,0.0,0.0,0.0,0.0,0.0,0.0,0.0,0.0,0.0,0.0,0.0,0.0,0.0,0.0,0.0,0.0,0.0,0.0,0.0,0.0,0.0,0.0,0.0,0.0,0.0,0.0,0.0,0.0,-2.393,-2.4791,0.0,-2.6367,-2.6704,-2.7394,-2.8666,-2.9011,-2.9579,-3.0568,-3.1048,-3.1523,-3.2006,-3.2669,-3.3175,-3.3405,-3.3914,-3.4519,-3.5148,-3.5515,-3.6029,-3.6651,-3.7182,-3.7358,-3.7462,-3.7601,-3.7701,-3.7672,-3.6988,-3.6561,-3.6256,-3.6256,-3.6179,-3.6095,-3.5493,-3.5255,-3.5171,0.0,0.0,0.0,0.0,0.0,0.0,0.0,0.0,-0.0099,-0.0504,-0.0924,-0.135,-0.1766,-0.1803,-0.1827,-0.1827,-0.2184,-0.2416,-0.2389,-0.2412,-0.2525,-0.293,-0.3019,-0.342,-0.4434,-0.5195,-0.5707,-0.5851,-0.6655,-0.7328,-0.7753,-0.8272,-0.8744,-0.916,-0.9571,-0.9778,-0.9805,-0.9878,-1.0087,-1.0307,-1.0391,-1.0496,-1.0674,0.0,0.0,0.0,0.0,0.0,0.0,0.0,0.0,0.0,0.0,0.0,0.0,0.0,0.0,0.0,0.0,0.0,0.0,0.0,0.0,0.0,0.0,0.0,0.0,0.0,0.0,0.0,0.0,0.0,0.0,0.0,0.0,0.0,0.0,-2.3467,-2.4275,-2.4726,-2.5609,-2.6425,-2.7127,-2.7744,-2.8528,-2.9567,-3.0074,-3.0658,-3.148,-3.206,-3.254,-3.2765,-3.3592,-3.4025,-3.418,-3.4772,-3.5369,-3.5989,-3.6374,-3.683,-3.7534,-3.7777,-3.7929,-3.8005,-3.7929,-3.7929,-3.7853,-3.7701,-3.7457,-3.7226,-3.7226,-3.7148,-3.7,-3.6443,-3.6141,-3.5981,0.0,0.0,0.0,0.0,0.0,0.0,0.0,0.0971,-0.0,-0.1412,-0.1645,-0.1768,-0.1769,-0.2039,-0.2189,-0.2189,-0.2557,-0.2693,-0.2693,-0.2693,-0.2805,-0.3137,-0.3642,-0.4264,-0.4805,-0.5369,-0.5748,-0.6066,-0.66,-0.7235,-0.8082,-0.8391,-0.8811,-0.9335,-0.9963,-0.9963,-0.9591,-1.0112,-1.051,-1.0806,-1.089,-1.0905,-1.0882,0.0,0.0,0.0,0.0,0.0,0.0,0.0,0.0,0.0,0.0,0.0,0.0,0.0,0.0,0.0,0.0,0.0,0.0,0.0,0.0,0.0,0.0,0.0,0.0,0.0,0.0,0.0,0.0,0.0,0.0,0.0,0.0,0.0,-2.4063,-2.4536,-2.5087,-2.5815,-2.6378,-2.6915,-2.7701,-2.8313,-2.9188,-3.0049,-3.054,-3.1121,-3.1868,-3.2272,-3.2671,-3.3041,-3.4006,-3.4803,-3.521,-3.6036,-3.6628,-3.6978,-3.7226,-3.7534,-3.7853,-3.7929,-3.8005,-3.8202,-3.7991,-3.7929,-3.7853,-3.7701,-3.7625,-3.7625,-3.761,-3.7457,-3.7232,-3.6623,-3.6335,-3.6009,0.0,0.0,0.0,0.0,0.0,0.0,0.0,0.099,0.0101,-0.1027,-0.1674,-0.2234,-0.2586,-0.264,-0.2564,-0.2564,-0.2796,-0.3027,-0.3027,-0.3027,-0.3251,-0.3699,-0.4352,-0.4867,-0.5458,-0.5829,-0.6255,-0.6391,-0.7018,-0.761,-0.8044,-0.8811,-0.9291,-0.9499,-1.0036,-1.0257,-0.9983,-1.0397,-1.0574,-1.0702,-1.0766,-1.0919,-1.1104,0.0,0.0,0.0,0.0,0.0,0.0,0.0,0.0,0.0,0.0,0.0,0.0,0.0,0.0,0.0,0.0,0.0,0.0,0.0,0.0,0.0,0.0,0.0,0.0,0.0,0.0,0.0,0.0,0.0,0.0,0.0,-2.3266,-2.3928,-2.4297,-2.5245,-2.6002,-2.6372,-2.7505,-2.8353,-2.8719,-2.9353,-3.0159,-3.1228,-3.165,-3.2421,-3.3444,-3.3845,-3.4254,-3.4754,-3.5144,-3.5573,-3.5839,-3.6243,-3.6549,-3.6786,-3.7317,-3.7625,-3.7701,-3.7991,-3.8127,-3.8202,-3.8127,-3.8142,-3.8127,-3.8066,-3.8052,-3.7991,-3.7687,-3.7457,-3.7275,-3.7105,-3.6894,-3.6712,0.0,0.0,0.0,0.0,0.0,0.0,0.0,0.0399,-0.0305,-0.1034,-0.1686,-0.236,-0.2839,-0.2888,-0.2917,-0.2917,-0.3138,-0.3362,-0.3362,-0.3362,-0.3699,-0.4372,0.0,-0.5349,-0.5738,-0.6239,-0.6574,-0.6616,-0.7235,-0.7826,-0.8266,-0.893,-0.9322,-0.9454,-0.9892,-1.0011,-0.9953,-1.0375,-1.0544,-1.0659,-1.0945,-1.1153,-1.1258,-1.1458,-1.1458,-1.1453,-1.1654,-1.1859,-1.2044,-1.2157,0.0,0.0,0.0,0.0,0.0,0.0,0.0,0.0,0.0,0.0,0.0,0.0,0.0,0.0,0.0,0.0,0.0,0.0,0.0,0.0,0.0,0.0,0.0,0.0,-2.4122,-2.4775,-2.5377,-2.6121,-2.665,-2.7128,-2.8118,-2.8943,-2.9416,-3.0227,-3.0937,-3.1737,-3.2438,-3.3215,-3.4076,-3.4481,-3.4895,-3.5399,-3.5723,-3.5978,-3.6246,-3.6549,-3.6772,-3.7099,-3.7548,-3.7777,-3.7839,-3.8127,-3.8202,-3.8202,-3.8202,-3.8202,-3.8202,-3.8202,-3.8202,-3.8202,0.0,0.0,0.0,0.0,-3.707,-3.6978,0.0,0.0,0.0,0.0,0.0,0.0,0.0,-0.04,-0.1017,-0.1349,-0.1899,-0.2361,-0.2627,-0.3,-0.3138,-0.3138,-0.3475,-0.3699,-0.3699,-0.3924,-0.4372,-0.4929,-0.5272,-0.5607,-0.5933,-0.6393,-0.6725,-0.6715,-0.7271,-0.7826,-0.8374,-0.8702,-0.9037,-0.9379,-0.9706,-0.973,-0.9589,-1.0138,-1.0371,-1.0531,-1.1054,-1.134,-1.1403,-1.1714,-1.1817,-1.1714,-1.1817,-1.2024,-1.2201,-1.202,0.0,0.0,0.0,0.0,0.0,0.0,0.0,0.0,0.0,0.0,0.0,0.0,0.0,0.0,0.0,0.0,0.0,0.0,0.0,0.0,0.0,0.0,0.0,0.0,-2.5109,-2.5616,-2.6668,-2.6955,-2.7241,-2.7998,-2.856,-2.9128,-2.9794,-3.0691,-3.1472,-3.1989,-3.2871,-3.3569,-3.416,-3.4564,0.0,0.0,0.0,-3.6166,-3.6405,-3.6758,-3.7226,-3.7548,-3.7777,-3.8005,-3.8142,-3.8275,-3.8275,-3.8202,-3.8275,-3.8275,-3.8202,-3.8202,-3.8202,-3.8127,-3.8127,-3.7901,-3.7534,-3.7148,-3.6978,-3.6978,0.0,0.0,0.0,0.0,0.0,0.0,0.0,-0.1613,-0.2046,-0.2534,-0.2765,-0.302,-0.3337,-0.3469,-0.3475,-0.3475,-0.3813,-0.4036,-0.4257,0.0,-0.4929,-0.526,-0.5671,-0.6129,-0.6492,-0.6691,-0.692,-0.7154,-0.7382,-0.7607,-0.7826,-0.8592,-0.8923,-0.9037,-0.9592,-0.9798,-0.9768,-0.9877,-0.9968,-1.0046,-1.0586,-1.0946,-1.1092,-1.161,-1.1714,-1.1507,-1.1921,-1.2127,-1.2226,-1.2392,-1.2505,-1.2628,-1.3057,0.0,0.0,0.0,0.0,0.0,0.0,0.0,0.0,0.0,0.0,0.0,0.0,0.0,0.0,0.0,0.0,0.0,0.0,0.0,0.0,-2.4063,-2.4811,-2.5625,-2.6496,-2.7061,-2.7726,-2.829,-2.8943,-2.9497,-2.9886,-3.0612,-3.1407,-3.2251,-3.2785,-3.3543,-3.4551,-3.4895,-3.5236,-3.5642,-3.5912,-3.6166,-3.6405,-3.6758,-3.7148,-3.738,-3.7701,0.0,-3.7944,-3.8692,-3.871,-3.8231,-3.8768,-3.8696,-3.8202,-3.8202,-3.8142,-3.7929,-3.7763,-3.7687,-3.7534,-3.7148,-3.6978,-3.6978,0.0,0.0,0.0,0.0,0.0,0.0,0.0,-0.1921,-0.2245,-0.283,-0.2968,-0.3112,-0.3493,-0.3552,-0.3687,-0.3766,-0.4015,-0.437,0.0,-0.5079,-0.533,-0.5669,-0.6217,-0.6707,-0.6881,-0.7054,-0.7284,-0.7336,-0.7681,-0.7876,-0.7927,-0.8482,-0.889,-0.893,-0.9375,-0.9706,-0.9816,-0.9816,-0.9926,-1.0253,-1.0582,-1.0691,-1.0852,-1.1491,-1.1704,-1.1704,-1.181,-1.2023,-1.2115,-1.2326,-1.236,-1.2408,-1.3029,-1.3148,-1.3169,0.0,0.0,0.0,0.0,0.0,0.0,0.0,0.0,0.0,0.0,0.0,0.0,0.0,0.0,-2.0974,-2.1846,0.0,-2.3314,-2.4599,-2.5398,-2.6133,-2.711,-2.7983,-2.8444,-2.8459,-2.9139,-2.9874,-3.0239,-3.096,-3.1661,-3.2537,-3.3043,-3.3713,-3.4634,-3.5059,-3.5494,-3.5898,-3.6152,-3.6325,-3.6563,-3.7084,-3.7536,-3.7926,-3.8328,-3.8572,-3.8587,-3.9286,-3.9117,-3.8246,-3.8913,-3.8826,-3.8202,-3.8066,-3.7915,-3.7701,-3.7534,-3.7457,-3.738,-3.7148,-3.6978,-3.6978,0.0,0.0,0.0,0.0,0.0,0.0,0.0,-0.2021,-0.2338,-0.2795,-0.3048,-0.3291,-0.3517,-0.3616,-0.3778,-0.4068,-0.4335,-0.4711,0.0,-0.5469,-0.5862,-0.6226,-0.6788,-0.7184,-0.7163,-0.7423,-0.7543,-0.7519,-0.7866,-0.8046,-0.8175,-0.8514,-0.8798,-0.891,-0.9217,-0.9532,-0.9747,-0.9721,-0.9926,-1.0582,-1.0582,-1.0582,-1.0692,-1.124,-1.1568,-1.1782,-1.1678,-1.176,-1.1928,-1.2024,-1.2065,-1.222,-1.2875,-1.3011,-1.2861,-1.3324,-1.3751,0.0,0.0,0.0,0.0,0.0,0.0,0.0,0.0,-1.886,-1.9475,-1.9693,-2.0321,-2.1153,-2.2111,-2.2681,-2.3583,-2.523,-2.61,-2.6844,-2.7827,-2.881,-2.9331,-2.8856,-2.9524,-3.0205,-3.0729,-3.1365,-3.2013,-3.2624,-3.33,-3.3966,-3.4634,-3.5141,-3.5656,-3.6086,-3.6325,-3.6563,-3.6721,-3.7317,-3.7939,-3.8631,-3.8905,-3.9146,-3.9392,-3.9871,-3.9538,-3.8594,-3.9015,-3.8826,-3.8127,-3.8005,-3.7777,-3.7534,-3.738,-3.7303,-3.7226,-3.707,-3.6978,-3.6978,0.0,0.0,0.0,0.0,0.0,0.0,0.0,0.0,-0.2845,-0.321,-0.3428,-0.3765,-0.4042,-0.4228,-0.4409,-0.4799,-0.4814,0.0,-0.5834,-0.5963,-0.6237,-0.6907,-0.7136,-0.7388,-0.7405,-0.7625,-0.7627,-0.7519,-0.7866,-0.7974,-0.8075,-0.8662,-0.8887,-0.8865,-0.9077,-0.9352,-0.9567,-0.9213,-0.9379,-0.9926,-0.9926,-1.0036,-1.0366,-1.0692,-1.1021,-1.1236,-1.1459,-1.1463,-1.1451,-1.1923,-1.2079,-1.2288,-1.3086,-1.3367,-1.3516,-1.3474,0.0,-1.447,-1.405,-1.4898,-1.6124,-1.7253,-1.796,-1.8506,0.0,-1.9743,-2.0413,-2.0592,-2.1178,-2.1921,-2.3076,-2.3475,-2.3998,-2.5096,-2.6113,-2.7051,-2.7847,-2.9017,-2.9851,-3.0348,-3.0415,-3.0707,-3.1171,-3.149,-3.2013,-3.2624,-3.33,-3.3966,-3.4634,-3.5304,-3.5804,-3.6086,-3.6484,-3.6721,-3.6721,-3.7317,-3.7939,-3.8631,-3.8428,-3.8899,-4.0002,-4.006,-4.0017,-3.9857,-3.9407,-3.875,-3.7929,-3.7929,-3.7701,-3.7303,-3.7303,-3.7226,-3.7056,-3.6978,-3.6978,-3.6978,0.0,0.0,0.0,0.0,0.0,0.0,0.0,0.0,0.0,-0.3467,-0.3707,-0.3935,-0.4027,-0.4339,-0.4678,-0.5139,0.0,0.0,-0.6189,-0.6481,-0.6793,-0.7256,-0.7493,-0.7777,-0.7971,-0.8021,-0.8142,-0.8327,-0.8447,-0.8525,-0.8679,-0.8918,-0.9228,-0.9494,-0.9544,-0.9742,-0.9964,-0.9788,-0.9986,-1.0315,-1.0223,-1.0408,-1.0731,-1.0733,-1.0911,-1.1131,-1.124,-1.1407,0.0,0.0,-1.2163,-1.2215,-1.3285,-1.3547,-1.3477,-1.3681,-1.4263,-1.4902,-1.5178,-1.6072,-1.6954,-1.742,-1.8376,-1.9265,-1.947,-2.0139,-2.0922,-2.1394,-2.1932,-2.2666,-2.3608,-2.4123,-2.4922,-2.6299,-2.7186,-2.8107,-2.8921,-3.0024,-3.081,-3.0849,-3.1536,-3.1945,-3.2008,-3.2524,-3.304,-3.3578,-3.4262,-3.5033,-3.5746,-3.6407,-3.692,-3.7277,-3.759,-3.7833,-3.7942,-3.8473,-3.9024,-3.9748,-3.9715,-4.0032,-4.0553,-4.09,-4.0856,-4.0626,-3.9639,-3.889,-3.8294,-3.7921,-3.7457,-3.7148,-3.7148,-3.707,-3.6978,-3.6978,-3.6978,-3.6978,0.0,0.0,0.0,0.0,0.0,0.0,0.0,0.0,0.0,0.0,-0.4099,-0.4451,-0.454,-0.4853,-0.5206,-0.5582,0.0,0.0,0.0,-0.7003,-0.7348,-0.7739,-0.8069,-0.8241,-0.8491,-0.8491,-0.8613,-0.8854,-0.8976,-0.9042,-0.9181,-0.9297,-0.9602,-0.9852,-0.9927,-1.0139,-1.0368,-1.0323,-1.0532,-1.0866,-1.0634,-1.081,-1.1021,-1.0838,-1.099,-1.1202,-1.1038,-1.1206,0.0,0.0,-1.2073,-1.2243,-1.3219,-1.3534,-1.3441,-1.3669,-1.4208,-1.5094,-1.6175,-1.6935,-1.7599,-1.7788,-1.8818,-1.9919,-2.0127,-2.0798,-2.1427,-2.2223,-2.2593,-2.3126,-2.4088,-2.4727,-2.5558,-2.7006,-2.7964,-2.8962,-2.9789,-3.0906,-3.1616,-3.1364,-3.2282,-3.2955,-3.283,-3.3332,-3.3906,-3.4272,-3.506,-3.5771,-3.6323,-3.7075,-3.767,-3.8033,-3.8353,-3.8587,-3.8779,-3.9173,-3.9729,-4.0385,-4.0459,-4.0641,-4.0986,-4.1501,-4.1522,-4.1047,-4.0054,-3.9289,-3.8603,-3.799,-3.7536,-3.707,-3.6978,-3.6978,-3.6978,-3.6978,-3.6978,-3.6978,0.0,0.0,0.0,0.0,0.0,0.0,0.0,0.0,0.0,0.0,0.0,0.0,0.0,-0.5997,-0.6153,0.0,0.0,0.0,0.0,-0.7519,-0.798,-0.8836,-0.8851,-0.8854,-0.8854,-0.8854,-0.8854,-0.8854,-0.9217,-0.9335,-0.9329,-0.9937,-1.0054,-0.9802,-1.0379,-1.0547,-1.0535,-1.0371,-1.0647,-1.1109,-1.0874,-1.0985,-1.1196,-1.1025,-1.1185,-1.1384,-1.0867,0.0,0.0,0.0,-1.1873,-1.224,-1.2876,-1.3398,0.0,-1.3254,-1.3717,-1.473,-1.6279,-1.6949,-1.7456,-1.847,-1.9465,-2.037,-2.1207,-2.1687,-2.2264,-2.3126,-2.302,-2.3126,-2.4289,-2.4927,-2.5665,-2.6827,-2.8084,-2.928,-3.0306,-3.1313,-3.204,-3.2044,-3.2792,-3.3384,-3.3624,-3.3841,-3.4102,-3.4388,-3.5277,-3.5823,-3.5823,-3.693,-3.7528,-3.7528,-3.82,-3.8532,-3.8532,-3.8957,-3.9513,-4.0122,-3.9676,-4.0196,-4.1367,-4.1619,-4.1522,-4.1091,-4.0833,-4.0032,-3.8865,-3.8367,-3.7841,-3.7303,-3.707,-3.6978,-3.6978,-3.6978,-3.6978,-3.6978,0.0,0.0,0.0,0.0,0.0,0.0,0.0,0.0,0.0,0.0,0.0,0.0,0.0,0.0,0.0,0.0,0.0,0.0,0.0,-0.8052,-0.8292,-0.8708,-0.8806,-0.8976,-0.9217,-0.9217,-0.9217,-0.946,-0.9579,-0.9579,-0.97,-1.0061,-1.0304,-1.0422,-1.0612,-1.0711,-1.0703,-1.089,-1.0982,-1.0971,-1.1216,-1.129,-1.1374,-1.1309,-1.1414,-1.1612,0.0,0.0,0.0,0.0,-1.2507,-1.2768,-1.3516,-1.3943,-1.4107,-1.4556,-1.4892,-1.5374,-1.6444,-1.7226,-1.8005,-1.8948,-1.996,-2.0986,-2.1759,-2.2053,-2.2541,-2.345,-2.3486,-2.3644,-2.4757,-2.5545,-2.6379,-2.7318,-2.8723,-2.9953,-3.088,-3.1724,-3.2353,-3.235,-3.3203,-3.3967,-3.4161,-3.445,-3.478,-3.5431,-3.6189,-3.674,-3.6936,-3.8091,-3.8708,-3.8708,-3.9488,-3.9914,-3.9772,-4.0154,-4.0505,-4.0703,-4.0574,-4.0702,-4.11,-4.1381,-4.1518,-4.1439,-4.0982,-4.0225,-3.9218,-3.8473,-3.7777,-3.707,-3.7056,-3.6978,-3.6978,-3.6978,-3.6978,-3.6978,0.0,0.0,0.0,0.0,0.0,0.0,0.0,0.0,0.0,0.0,0.0,0.0,0.0,0.0,0.0,0.0,0.0,0.0,0.0,0.0,-0.8665,-0.8924,-0.902,-0.919,-0.9307,-0.9307,-0.945,-0.9744,-0.9864,-0.9892,-0.994,-1.0425,-1.0668,-1.0789,-1.1035,-1.1035,-1.1031,-1.1398,-1.1362,-1.1056,-1.1426,-1.1577,-1.1603,-1.1532,-1.175,0.0,0.0,0.0,0.0,0.0,-1.2772,-1.3192,-1.3751,-1.399,-1.4337,-1.5365,-1.5682,-1.5965,-1.7054,-1.7842,-1.866,-1.9613,-2.0592,-2.1447,-2.2112,-2.2528,-2.3031,-2.3933,-2.3989,-2.4063,-2.496,-2.5636,-2.6426,-2.7398,-2.8709,-2.9995,-3.1084,-3.1823,-3.2353,-3.2448,-3.3289,-3.3956,-3.435,-3.4621,-3.5219,-3.6143,-3.6734,-3.7307,-3.7585,-3.8575,-3.9203,-3.9305,-4.0097,-4.0558,-4.0399,-4.0773,-4.1001,-4.1001,-4.093,-4.0916,-4.1001,-4.1198,-4.1367,-4.1604,-4.1216,-4.0474,-3.9453,-3.8814,-3.7989,-3.707,-3.7056,-3.6978,-3.6978,-3.6978,-3.6978,-3.6978,0.0,0.0,0.0,0.0,0.0,0.0,0.0,0.0,0.0,0.0,0.0,0.0,0.0,0.0,0.0,0.0,0.0,0.0,0.0,0.0,0.0,-0.9364,-0.9378,-0.9381,-0.9497,-0.9497,-0.9452,-0.9598,-0.9954,-1.0148,-1.0293,-1.1008,-1.1133,-1.0899,-1.1503,-1.1627,-1.1382,-1.1627,-1.165,-1.15,-1.1841,-1.1845,-1.1778,-1.1824,0.0,0.0,0.0,0.0,0.0,0.0,-1.2659,-1.3388,-1.3482,-1.3674,-1.4259,-1.5567,-1.5958,-1.6377,-1.801,-1.8718,-1.9219,-2.0389,-2.1156,-2.1739,-2.2403,-2.2991,-2.368,-2.4264,-2.4259,-2.4395,-2.4968,-2.5409,-2.6107,-2.7131,-2.8261,-2.9456,-3.1019,-3.171,-3.2152,-3.2581,-3.3033,-3.3528,-3.4161,-3.4564,-3.5338,-3.6577,-3.6909,-3.7294,-3.7848,-3.8562,-3.9011,-3.9305,-4.0037,-4.0399,-4.0399,-4.0773,-4.1001,-4.1001,-4.0773,-4.0773,-4.1001,-4.1001,-4.11,-4.1396,-4.1396,-4.0667,-3.9482,-3.9268,-3.845,-3.7303,-3.707,-3.6978,-3.6978,-3.6978,-3.6978,-3.6978,0.0,0.0,0.0,0.0,0.0,0.0,0.0,0.0,0.0,0.0,0.0,0.0,0.0,0.0,0.0,0.0,0.0,0.0,0.0,0.0,0.0,0.0,0.0,0.0,0.0,0.0,0.0,0.0,-1.0251,-1.0332,-1.0491,-1.0954,-1.1079,-1.0963,-1.154,-1.1674,-1.1438,-1.1657,-1.1766,-1.1837,0.0,-1.2073,-1.2007,0.0,0.0,0.0,0.0,0.0,0.0,0.0,0.0,0.0,-1.4641,-1.4999,-1.5529,-1.634,-1.6737,-1.7124,-1.825,-1.9064,-1.9814,-2.0796,-2.1511,-2.2212,-2.2999,-2.33,-2.3582,-2.4206,-2.4167,-2.4218,-2.4825,-2.573,-2.6631,-2.7363,-2.8838,-3.0348,-3.1392,-3.2026,-3.27,-3.3581,-3.3777,-3.4255,-3.5112,-3.5316,-3.5746,-3.6615,-3.6909,-3.7214,-3.7585,-3.8472,-3.9011,-3.9305,-4.0037,-4.0399,-4.0399,-4.0616,-4.0773,-4.0773,-4.0688,-4.0688,-4.0773,-4.0916,-4.1001,-4.11,-4.11,-4.0404,-3.9268,-3.9024,-3.8211,-3.707,-3.6978,-3.6978,-3.6978,-3.6978,-3.6978,-3.6978,0.0,0.0,0.0,0.0,0.0,0.0,0.0,0.0,0.0,0.0,0.0,0.0,0.0,0.0,0.0,0.0,0.0,0.0,0.0,0.0,0.0,0.0,0.0,0.0,0.0,0.0,0.0,0.0,0.0,0.0,-1.0783,-1.1077,-1.1277,-1.1374,-1.1615,-1.1744,-1.172,-1.1842,0.0,0.0,0.0,0.0,0.0,0.0,0.0,0.0,0.0,0.0,0.0,0.0,0.0,-1.4843,-1.5281,-1.5742,-1.6223,-1.6942,-1.7457,-1.7948,-1.8793,-1.9675,-2.0406,-2.1234,-2.1866,-2.2456,-2.3135,-2.3422,-2.3726,-2.4226,-2.4136,-2.4094,-2.4562,-2.5498,-2.6381,-2.7176,-2.8809,-3.0263,-3.1494,-3.2128,-3.2925,-3.407,-3.4304,-3.4736,-3.5649,-3.5756,-3.5991,-3.6615,-3.6909,-3.7294,-3.7769,-3.8472,-3.91,-3.9496,-4.0037,-4.0471,-4.0702,-4.0702,-4.0773,-4.0859,-4.0773,-4.0702,-4.0688,-4.0859,-4.0845,-4.0845,-4.1001,-4.0223,-3.9039,-3.9039,-3.8211,-3.6978,-3.6978,-3.6978,-3.6978,-3.6978,-3.707,-3.7148,0.0,0.0,0.0,0.0,0.0,0.0,0.0,0.0,0.0,0.0,0.0,0.0,0.0,0.0,0.0,0.0,0.0,0.0,0.0,0.0,0.0,0.0,0.0,0.0,0.0,0.0,0.0,0.0,0.0,0.0,0.0,0.0,0.0,0.0,0.0,0.0,0.0,0.0,0.0,0.0,0.0,0.0,0.0,0.0,0.0,0.0,0.0,0.0,0.0,0.0,-1.5464,-1.5064,-1.573,-1.6234,-1.6612,-1.7563,-1.8197,-1.8807,-1.9668,-2.0435,-2.1062,-2.1707,-2.2237,-2.2796,-2.3127,-2.3536,-2.3978,-2.4307,-2.4216,-2.414,-2.4476,-2.5237,-2.6189,-2.7216,-2.8584,-3.0032,-3.1462,-3.2183,-3.3061,-3.426,-3.4667,-3.5186,-3.588,-3.5987,-3.6193,-3.6628,-3.6909,-3.7387,-3.8122,-3.8652,-3.9114,-3.9686,-4.0225,-4.063,-4.0916,-4.0773,-4.0773,-4.0916,-4.0773,-4.0702,-4.0702,-4.0702,-4.0702,-4.0688,-4.0845,-4.0069,-3.8943,-3.9021,-3.8206,-3.6978,-3.6978,-3.6978,-3.6978,-3.6978,-3.7148,-3.7303,0.0,0.0,0.0,0.0,0.0,0.0,0.0,0.0,0.0,0.0,-0.9578,-0.9706,0.0,0.0,0.0,0.0,0.0,0.0,0.0,0.0,0.0,0.0,0.0,0.0,0.0,0.0,0.0,0.0,-1.1237,0.0,0.0,0.0,0.0,0.0,0.0,0.0,0.0,0.0,0.0,0.0,0.0,0.0,0.0,0.0,0.0,0.0,0.0,0.0,0.0,0.0,-1.6318,-1.6321,-1.648,-1.695,-1.7576,-1.8519,-1.8831,-1.9118,-2.0209,-2.088,-2.1365,-2.2214,-2.2683,-2.3239,-2.4231,-2.4107,0.0,-2.4806,-2.4439,-2.4316,-2.5601,-2.6375,-2.7337,-2.8697,-2.9971,-3.1122,-3.1812,-3.2983,-3.3853,-3.4141,-3.4885,-3.5549,-3.5696,-3.5874,-3.6193,-3.6628,-3.6909,-3.7387,-3.8122,-3.8498,-3.9038,-3.9922,-4.0443,-4.0702,-4.0773,-4.0702,-4.0702,-4.0773,-4.0702,-4.0702,-4.0702,-4.0702,-4.0702,-4.0674,-4.0238,-3.9619,-3.8833,-3.8366,-3.7639,-3.6978,-3.6978,-3.6978,-3.6978,-3.6978,-3.6978,-3.707,0.0,0.0,0.0,0.0,0.0,0.0,0.0,0.0,-0.9747,-1.0002,-1.0253,-1.0363,-1.0033,-1.0036,0.0,0.0,0.0,0.0,0.0,0.0,0.0,0.0,0.0,0.0,0.0,-1.1573,-1.1558,-1.1558,0.0,-1.1966,-1.2065,-1.2447,-1.2466,-1.2461,-1.2702,0.0,0.0,0.0,0.0,0.0,0.0,0.0,0.0,0.0,0.0,0.0,0.0,0.0,0.0,0.0,-1.7554,-1.7983,-1.7723,-1.7798,-1.8201,-1.9166,-1.959,-1.9853,-2.0694,-2.1425,-2.2116,-2.2683,-2.3127,-2.3689,-2.4565,0.0,0.0,-2.5362,-2.5128,-2.5163,-2.6182,-2.6972,-2.7806,-2.8952,-3.0292,-3.1511,-3.2277,-3.3436,-3.4528,-3.5251,-3.5709,-3.6136,-3.6456,-3.6326,-3.637,-3.6909,-3.7015,-3.7387,-3.8122,-3.8782,-3.9407,-3.9996,-4.0357,-4.063,-4.0702,-4.0702,-4.0702,-4.0702,-4.0702,-4.0702,-4.0702,-4.0702,-4.0702,-4.0674,-4.0041,-3.9437,-3.8819,-3.8173,-3.754,-3.6978,-3.6978,-3.6978,-3.6978,-3.6978,-3.707,-3.7148,0.0,0.0,0.0,0.0,0.0,0.0,0.0,-0.9808,-1.0059,-1.0441,-1.0802,-1.0907,-1.0253,-1.0363,-1.0472,0.0,0.0,0.0,0.0,0.0,0.0,0.0,0.0,0.0,0.0,0.0,0.0,-1.2192,-1.2391,0.0,0.0,0.0,0.0,0.0,-1.364,-1.4091,-1.4545,0.0,0.0,0.0,0.0,-1.4767,0.0,0.0,0.0,0.0,0.0,0.0,0.0,0.0,-1.863,-1.9138,-1.8965,-1.8838,-1.9045,-1.9862,-2.0277,-2.0622,-2.1318,-2.2116,-2.2796,-2.3231,-2.368,-2.4239,-2.4898,-2.4948,-2.513,-2.5916,-2.5885,-2.5853,-2.6766,-2.7506,-2.8271,-2.9209,-3.0561,-3.1771,-3.2786,-3.3925,-3.5,-3.593,-3.6372,-3.6677,-3.6973,-3.668,-3.664,-3.7108,-3.7294,-3.7664,-3.8213,-3.923,-3.9862,-4.0009,-4.0284,-4.0544,-4.0702,-4.0702,-4.0702,-4.0702,-4.0702,-4.0702,-4.0702,-4.0561,-4.0505,-4.0463,-3.9704,-3.91,-3.8608,-3.7976,-3.7428,-3.6978,-3.6978,-3.6978,-3.6978,-3.6978,-3.707,-3.7226,0.0,0.0,0.0,0.0,0.0,0.0,0.0,-1.0329,-1.0765,-1.1017,-1.1017,-1.1236,-1.1459,-1.124,-1.0907,0.0,0.0,0.0,0.0,0.0,0.0,0.0,0.0,0.0,0.0,0.0,0.0,-1.2655,-1.3265,0.0,0.0,0.0,0.0,0.0,0.0,-1.4659,-1.5004,-1.4891,0.0,0.0,0.0,0.0,0.0,0.0,0.0,0.0,0.0,0.0,0.0,0.0,0.0,-1.9042,-1.9864,-2.0132,-2.0235,-2.0852,0.0,0.0,-2.223,-2.2683,-2.3119,-2.3991,-2.4437,-2.4898,-2.5789,0.0,-2.5371,-2.618,-2.6076,-2.622,-2.7717,-2.8438,-2.9312,-3.0781,0.0,-3.2252,-3.3138,-3.4516,-3.5395,-3.4951,-3.622,-3.6887,-3.6155,-3.642,-3.6815,-3.7108,-3.7952,-3.8512,-3.8602,-3.9482,-4.0009,-3.9996,-4.0443,-4.0702,-4.0702,-4.0702,-4.0702,-4.0702,-4.0702,-4.0702,-4.0674,-4.0112,-3.9859,-3.9802,-3.8594,-3.8032,-3.7934,-3.7316,-3.7035,-3.6978,-3.6978,-3.6978,-3.6978,-3.6978,-3.6978,-3.707,0.0,0.0,0.0,0.0,0.0,0.0,-1.043,-1.0666,-1.09,-1.1114,-1.1338,-1.1637,-1.1748,-1.1859,-1.17,0.0,0.0,0.0,0.0,0.0,0.0,0.0,0.0,0.0,0.0,0.0,-1.3106,-1.3189,-1.3833,0.0,0.0,0.0,0.0,0.0,0.0,-1.5451,-1.5688,-1.5727,0.0,0.0,0.0,0.0,0.0,0.0,0.0,0.0,0.0,0.0,-1.8446,0.0,0.0,0.0,-2.0457,-2.1123,0.0,0.0,-2.1361,-2.1632,-2.2628,-2.3344,-2.3888,-2.4445,-2.5008,-2.556,-2.6227,0.0,-2.6316,-2.7283,-2.7372,-2.7717,-2.8945,-2.9403,-2.987,0.0,0.0,0.0,-3.3367,-3.4458,-3.5277,-3.5685,-3.638,-3.6678,-3.655,-3.6641,-3.6909,-3.7572,-3.8226,-3.8679,-3.8742,-3.9557,-3.9996,-3.9996,-4.0443,-4.0702,-4.0702,-4.0702,-4.0519,-4.0154,-4.0154,-3.9957,-3.9592,-3.9339,-3.924,-3.9184,-3.8285,-3.7906,-3.785,-3.7245,-3.6978,-3.6978,-3.6978,-3.6978,-3.6978,-3.6978,-3.707,-3.7226,0.0,0.0,0.0,0.0,0.0,-1.0555,-1.0647,-1.0808,-1.0987,-1.1223,-1.1691,-1.2024,-1.2199,-1.2149,-1.2187,-1.1995,0.0,0.0,0.0,0.0,0.0,0.0,0.0,0.0,0.0,0.0,-1.3593,-1.3768,-1.4213,-1.4435,0.0,0.0,-1.5338,-1.5451,0.0,0.0,0.0,0.0,0.0,0.0,0.0,0.0,0.0,0.0,0.0,0.0,0.0,0.0,0.0,0.0,0.0,0.0,0.0,0.0,0.0,0.0,-2.1904,-2.2362,-2.3279,-2.3999,-2.4548,-2.5008,-2.5569,-2.6118,-2.6545,0.0,-2.7088,-2.8077,-2.8388,-2.8717,-2.9669,-3.0099,-3.0609,0.0,0.0,-3.2566,-3.3639,-3.4408,-3.5189,-3.6018,-3.6357,-3.6553,-3.678,-3.6963,-3.7374,-3.8044,-3.8498,-3.8756,-3.9011,-3.9379,-3.9729,-3.9996,-4.0357,-4.0532,-4.0435,-4.0335,-4.0027,-3.9507,-3.9507,-3.9283,-3.8861,-3.8664,-3.858,-3.8552,-3.7906,-3.7625,-3.7597,-3.7161,-3.6978,-3.6978,-3.6978,-3.6978,-3.6978,-3.707,-3.7148,-3.7303,0.0,0.0,0.0,0.0,0.0,0.0,0.0,-1.0907,-1.1236,-1.1568,-1.1787,-1.2197,-1.2743,-1.2353,-1.2202,-1.2743,0.0,0.0,0.0,0.0,0.0,0.0,0.0,0.0,0.0,0.0,-1.3867,-1.4196,-1.4428,-1.4536,-1.4546,-1.5003,-1.5451,-1.5778,0.0,0.0,0.0,0.0,0.0,0.0,0.0,0.0,0.0,0.0,0.0,0.0,0.0,0.0,0.0,0.0,0.0,0.0,0.0,-2.2033,-2.2037,0.0,-2.2967,-2.3689,-2.4565,-2.4787,-2.5008,-2.5898,-2.6336,-2.6654,0.0,-2.7206,-2.7539,-2.8184,-2.8485,-2.891,-2.9448,-3.0495,-3.1333,0.0,0.0,0.0,-3.3977,-3.4698,-3.5325,-3.5598,-3.6306,-3.6793,-3.6691,-3.7387,-3.8044,-3.8602,-3.8742,-3.9011,-3.9292,-3.9011,-3.9216,-3.9982,-4.0298,-4.0178,-3.9802,-3.9536,-3.9229,-3.8875,-3.8875,-3.8875,-3.8847,-3.8201,-3.7906,-3.7878,-3.7259,-3.6993,-3.6993,-3.6978,-3.6978,-3.6978,-3.6978,-3.6978,-3.6978,-3.7226,-3.7303,-3.738,0.0,0.0,0.0,0.0,0.0,0.0,0.0,-1.1568,-1.1787,-1.1896,-1.2018,-1.2353,-1.2762,-1.2706,-1.2637,-1.2956,0.0,0.0,0.0,0.0,0.0,0.0,0.0,0.0,0.0,0.0,-1.4553,-1.501,-1.53,-1.5355,-1.5424,-1.6044,-1.619,-1.6184,-1.641,-1.6784,0.0,0.0,0.0,0.0,0.0,0.0,-1.8546,0.0,0.0,0.0,0.0,0.0,0.0,0.0,0.0,0.0,0.0,0.0,0.0,-2.3737,-2.3897,-2.415,-2.4718,-2.5229,-2.5789,-2.6336,-2.6663,-2.698,-2.753,-2.7853,-2.8184,-2.8708,-2.9132,-2.9554,-3.0297,-3.0817,-3.1424,-3.2139,0.0,0.0,0.0,-3.4588,-3.5113,-3.5537,-3.6235,-3.683,-3.6934,-3.7572,-3.8135,-3.8602,-3.8742,-3.8911,-3.8883,-3.8937,-3.9288,-3.9982,-3.9294,-3.9229,-3.9774,-3.9089,-3.8559,-3.8201,-3.8201,-3.799,-3.7569,-3.7372,-3.7274,-3.7259,-3.7063,-3.6978,-3.6978,-3.6978,-3.6978,-3.6978,-3.6978,-3.6978,-3.6978,-3.7226,-3.738,-3.7534,0.0,0.0,0.0,0.0,0.0,0.0,0.0,-1.1787,-1.2005,-1.2005,-1.2339,-1.2562,-1.2758,-1.2986,-1.3179,-1.3279,0.0,0.0,0.0,0.0,0.0,0.0,0.0,0.0,-1.4654,-1.4772,-1.4999,-1.5349,-1.5671,-1.5927,-1.6004,-1.6551,-1.6655,-1.6655,-1.6882,-1.7258,0.0,0.0,0.0,0.0,0.0,0.0,-1.9305,0.0,0.0,0.0,0.0,0.0,0.0,0.0,0.0,0.0,0.0,0.0,0.0,0.0,-2.4898,-2.5051,-2.5278,-2.5898,-2.6445,-2.6663,-2.7098,-2.7422,-2.796,-2.8291,-2.8621,-2.9353,-2.9659,-3.0078,-3.0817,-3.1333,-3.1823,-3.2533,0.0,0.0,-3.4261,-3.4738,-3.5211,-3.5883,-3.6546,-3.7015,-3.7387,-3.7848,-3.8317,-3.8679,-3.872,-3.8702,-3.861,-3.8317,-3.8514,-3.9219,-3.8587,-3.8519,-3.9072,-3.8351,-3.785,-3.7555,-3.7555,-3.7358,-3.6978,-3.6978,-3.6978,-3.6978,-3.6978,-3.6978,0.0,-3.6978,-3.6978,-3.6978,-3.6978,-3.707,-3.7148,-3.7303,-3.7534,-3.7777,0.0,0.0,0.0,0.0,0.0,0.0,0.0,0.0,-1.2114,-1.2114,-1.255,-1.2855,-1.2855,-1.3315,-1.3628,-1.3526,0.0,0.0,0.0,0.0,0.0,0.0,0.0,0.0,-1.4934,-1.528,-1.5512,-1.5512,-1.5841,-1.6055,-1.6381,-1.6706,-1.693,-1.7279,-1.7508,-1.7998,-1.8617,-1.913,-1.9205,-1.9065,-1.9405,-1.9675,0.0,0.0,0.0,0.0,0.0,0.0,0.0,0.0,0.0,0.0,0.0,0.0,0.0,0.0,0.0,0.0,0.0,-2.6663,-2.6989,-2.7098,-2.753,-2.8067,-2.8291,-2.8621,0.0,0.0,0.0,-3.0599,-3.1127,-3.1924,-3.251,-3.2812,-3.3346,-3.3965,-3.464,-3.503,-3.5596,-3.6615,-3.6909,-3.7294,-3.7861,-3.8291,-3.8612,-3.8854,-3.8506,-3.8328,-3.8288,-3.7216,-3.7016,-3.7812,-3.7993,-3.7964,-3.7906,-3.749,-3.7184,-3.6978,-3.6978,-3.6978,-3.6978,-3.6978,-3.6978,-3.6978,-3.6978,-3.6978,-3.6978,-3.6978,-3.6978,-3.6978,-3.6978,-3.7148,-3.7303,-3.7534,-3.7701,-3.7929,0.0,0.0,0.0,0.0,0.0,0.0,0.0,0.0,0.0,0.0,-1.2767,-1.2631,-1.3058,-1.3194,-1.357,0.0,0.0,0.0,0.0,0.0,0.0,0.0,0.0,0.0,-1.5792,-1.6132,-1.6366,-1.6605,-1.6949,-1.7189,-1.7332,-1.778,-1.7893,-1.7793,-1.8127,-1.8516,-1.9143,-1.9557,-1.9774,-2.0057,-2.0516,-2.0815,0.0,0.0,0.0,0.0,-2.2422,-2.279,0.0,0.0,0.0,0.0,0.0,0.0,0.0,0.0,-2.6772,-2.7098,-2.7422,0.0,-2.7431,-2.7862,-2.8281,-2.8591,0.0,-2.9353,0.0,0.0,0.0,0.0,-3.1424,-3.2117,-3.2823,-3.3158,-3.3953,-3.4543,-3.4531,-3.5126,-3.5787,-3.6628,-3.6909,-3.7294,-3.7861,-3.792,-3.8025,-3.8276,-3.7898,-3.7612,-3.7303,-3.7003,-3.6798,-3.6753,-3.6819,-3.7132,-3.7651,-3.6979,-3.6754,-3.6978,-3.6978,-3.6978,-3.6978,-3.6978,-3.6978,-3.6978,-3.6978,-3.6978,-3.6978,-3.6978,-3.6978,-3.6978,-3.6978,-3.7148,-3.7303,-3.7534,-3.7701,-3.7929,0.0,0.0,0.0,0.0,0.0,0.0,0.0,0.0,0.0,0.0,0.0,0.0,0.0,0.0,0.0,0.0,0.0,0.0,0.0,0.0,0.0,0.0,0.0,-1.62,-1.6312,-1.6779,-1.7009,-1.7256,-1.7719,-1.799,-1.8186,-1.8646,-1.8768,-1.8666,-1.8882,-1.9314,-1.9815,-2.004,-2.0385,-2.0737,-2.1203,0.0,0.0,0.0,0.0,0.0,-2.336,-2.3593,0.0,-2.4359,-2.4676,-2.511,0.0,0.0,0.0,0.0,-2.7206,-2.7755,-2.796,-2.8077,-2.8077,-2.8388,-2.8804,-2.9227,-2.9448,0.0,0.0,0.0,0.0,0.0,-3.1936,-3.2633,-3.3346,-3.358,-3.415,-3.4726,-3.4932,-3.5596,-3.6263,-3.6815,-3.7108,-3.7389,-3.7766,-3.7732,-3.7704,-3.7785,-3.7362,-3.6958,-3.6784,-3.6511,-3.6306,-3.6072,-3.6232,-3.6557,-3.7181,-3.6795,-3.6693,-3.6978,-3.6978,-3.6978,-3.6978,-3.6978,-3.6978,-3.6978,-3.6978,-3.6978,-3.6978,-3.6978,-3.6978,-3.6978,-3.707,-3.7226,-3.7457,-3.7701,-3.7777,-3.7929,0.0,0.0,0.0,0.0,0.0,0.0,0.0,0.0,0.0,0.0,0.0,0.0,0.0,0.0,0.0,0.0,0.0,0.0,0.0,0.0,0.0,0.0,0.0,-1.6431,-1.6655,-1.725,-1.7602,-1.7596,-1.8181,-1.8532,-1.8997,-1.9236,-1.9475,-1.9597,-1.9815,-2.004,-2.0385,-2.0608,-2.096,-2.1325,-2.166,0.0,0.0,0.0,0.0,0.0,0.0,0.0,0.0,-2.5008,-2.5331,-2.5551,-2.6008,0.0,0.0,0.0,0.0,0.0,-2.8398,-2.8611,-2.8834,-2.891,-2.9333,-2.9764,-3.0099,0.0,0.0,0.0,0.0,0.0,0.0,-3.3269,-3.3878,-3.4075,-3.4347,-3.4823,-3.5608,-3.6263,-3.6722,-3.7015,-3.7322,-3.7456,-3.7688,-3.7576,-3.7431,-3.7348,-3.6822,-3.6456,-3.6456,-3.5995,-3.571,-3.571,-3.5978,-3.6246,-3.6642,-3.6721,-3.6786,-3.6978,-3.6978,-3.6978,-3.6978,-3.6978,-3.6978,-3.6978,-3.6978,-3.6978,-3.6978,-3.6978,-3.6978,-3.6978,-3.7226,-3.738,-3.7548,-3.7777,-3.7853,-3.7929,0.0,0.0,0.0,0.0,0.0,0.0,0.0,0.0,0.0,0.0,0.0,0.0,0.0,0.0,0.0,0.0,0.0,0.0,0.0,0.0,0.0,-1.7361,-1.7367,-1.725,-1.7367,-1.7726,-1.8077,-1.8305,-1.8305,-1.8655,-1.9236,-1.9584,-1.9931,-2.0162,-2.0155,-2.0385,-2.0608,-2.0967,-2.1318,-2.1668,-2.2456,0.0,0.0,0.0,0.0,0.0,0.0,0.0,0.0,-2.5229,-2.578,-2.6436,-2.6436,0.0,0.0,0.0,0.0,0.0,-2.9237,-2.9448,-2.9564,-2.9774,-3.0088,-3.0391,-3.062,0.0,0.0,0.0,0.0,0.0,0.0,-3.3679,-3.4064,-3.4347,-3.4726,-3.532,-3.6168,-3.6358,-3.664,-3.7015,-3.7065,-3.7192,-3.7648,-3.7016,-3.6542,-3.6754,-3.6185,-3.5859,-3.5859,-3.5764,-3.571,-3.571,-3.5978,-3.6246,-3.6484,-3.6642,-3.6786,-3.6978,-3.6978,-3.6978,-3.6978,-3.6978,-3.6978,-3.6978,-3.6978,-3.6978,-3.6978,-3.6978,-3.6978,-3.6978,-3.7056,-3.7148,-3.738,-3.738,-3.7625,-3.7929,0.0,0.0,0.0,0.0,0.0,0.0,0.0,0.0,0.0,0.0,0.0,0.0,0.0,0.0,0.0,0.0,0.0,0.0,0.0,0.0,0.0,-1.7485,-1.7837,-1.7954,-1.7726,-1.8077,-1.8428,-1.8648,-1.9161,-1.9506,-1.9584,-1.9924,-2.0392,-2.1081,-2.0859,-2.1081,-2.1531,-2.1995,-2.2222,-2.2456,0.0,0.0,0.0,0.0,0.0,0.0,0.0,0.0,0.0,0.0,-2.6327,-2.6871,-2.7196,0.0,0.0,0.0,0.0,0.0,-2.9448,-2.9764,-3.014,-3.0706,-3.0695,-3.0724,-3.0931,0.0,0.0,0.0,0.0,0.0,0.0,-3.3866,-3.4347,-3.4738,-3.5126,-3.5608,-3.6263,-3.664,-3.6807,-3.6869,-3.6884,-3.6852,-3.6571,-3.6284,-3.6082,-3.5994,-3.5791,-3.571,-3.571,-3.571,-3.571,-3.571,-3.5978,-3.6166,-3.6246,-3.6484,-3.6693,-3.6978,-3.6978,-3.6978,-3.6978,-3.6978,-3.6978,-3.6978,-3.6978,-3.6978,-3.6978,-3.6978,-3.6978,-3.6978,-3.7148,-3.7226,-3.7303,-3.738,-3.7625,-3.7777,0.0,0.0,0.0,0.0,0.0,0.0,0.0,0.0,0.0,0.0,0.0,0.0,0.0,0.0,0.0,0.0,0.0,0.0,0.0,0.0,-1.7373,-1.7602,-1.8071,-1.8305,-1.8083,-1.8428,-1.8803,-1.9212,-1.9915,-2.0268,-2.0259,-2.0428,-2.0967,-2.1782,-2.1439,-2.166,-2.223,-2.2788,-2.3014,-2.3135,0.0,0.0,0.0,0.0,0.0,0.0,0.0,0.0,0.0,0.0,0.0,0.0,0.0,0.0,0.0,-2.8804,-2.9227,-2.9659,-2.9764,-3.0078,-3.0715,-3.1486,-3.1452,-3.1227,-3.1635,-3.2075,-3.2396,-3.2396,-3.2836,-3.3381,-3.3481,-3.4052,-3.4726,-3.5223,-3.5524,-3.5908,-3.6358,-3.6714,-3.6842,-3.6664,-3.6661,-3.6429,-3.5706,-3.5748,-3.5648,-3.5426,-3.5562,-3.571,-3.571,-3.571,-3.571,-3.571,-3.5898,-3.6072,-3.6086,-3.6246,-3.6549,-3.6836,-3.6836,-3.6915,-3.6915,-3.6915,-3.6993,-3.6978,-3.6978,-3.6978,-3.6978,-3.6978,-3.6978,-3.6978,-3.7148,-3.7226,-3.7226,-3.7457,-3.7534,-3.7534,0.0,0.0,0.0,0.0,0.0,0.0,0.0,0.0,0.0,0.0,0.0,0.0,0.0,0.0,0.0,0.0,0.0,0.0,0.0,0.0,-1.7972,-1.7972,-1.8188,-1.8421,-1.8421,-1.8887,-1.9603,-2.0239,-2.026,-2.0725,-2.1504,-2.1227,-2.1432,-2.2116,-2.1782,-2.201,-2.257,-2.2901,-2.3135,-2.3585,-2.4342,0.0,0.0,0.0,0.0,0.0,0.0,0.0,0.0,0.0,0.0,0.0,0.0,0.0,-2.9132,-2.9448,-2.9774,-2.9994,-3.0287,-3.0505,-3.1038,-3.2115,-3.2317,-3.2509,-3.3171,-3.3451,-3.3435,-3.3435,-3.3389,-3.3481,-3.3977,-3.4652,-3.5223,-3.5524,-3.5812,-3.6098,-3.6628,-3.6463,-3.6405,-3.6625,-3.6044,-3.5634,-3.564,-3.5459,-3.5453,-3.5399,-3.5562,-3.571,-3.571,-3.571,-3.571,-3.571,-3.5723,-3.5817,-3.6086,-3.6086,-3.6246,-3.647,-3.647,-3.6549,-3.6707,-3.6707,-3.685,-3.6978,-3.6978,-3.6978,-3.6978,-3.6978,-3.6978,-3.6978,-3.6978,-3.6978,-3.707,-3.7226,-3.7303,-3.7303,0.0,0.0,0.0,0.0,0.0,0.0,0.0,0.0,0.0,0.0,0.0,0.0,0.0,0.0,0.0,0.0,0.0,0.0,0.0,-1.7608,-1.7726,-1.7972,-1.8421,-1.8765,-1.8765,-1.9298,-1.9827,-2.0336,-2.0684,-2.1256,-2.1905,-2.181,-2.2116,-2.2675,-2.2562,-2.2909,-2.3697,-2.4016,-2.4342,-2.4565,-2.5128,-2.5348,0.0,0.0,0.0,0.0,0.0,0.0,0.0,0.0,-2.8281,-2.8591,0.0,0.0,-2.9448,-2.9973,-3.0183,-3.0297,-3.062,-3.0817,-3.132,-3.2496,-3.3115,0.0,0.0,-3.3986,-3.4073,-3.3868,-3.4058,-3.4328,-3.4504,-3.4932,-3.532,-3.5524,-3.5991,-3.637,-3.6909,-3.67,-3.6393,-3.6298,-3.5757,-3.5227,-3.4861,-3.504,-3.5236,-3.5236,-3.5562,-3.571,-3.571,-3.571,-3.571,-3.571,-3.571,-3.5547,-3.526,-3.526,-3.5339,-3.5418,-3.6053,-3.6484,-3.6721,-3.6721,-3.6772,-3.6978,-3.6978,-3.6978,-3.6978,-3.6978,-3.6978,-3.6978,-3.6978,-3.707,-3.7226,-3.7303,-3.738,-3.7457,0.0,0.0,0.0,0.0,0.0,0.0,0.0,0.0,0.0,0.0,0.0,0.0,0.0,0.0,0.0,0.0,0.0,0.0,-1.7713,-1.783,-1.8071,-1.8311,-1.8887,-1.9229,-1.9339,-1.9985,-2.0399,-2.0417,-2.1119,-2.1814,-2.2372,-2.2276,-2.2562,-2.3127,-2.3231,-2.3792,-2.4582,-2.4787,-2.5119,-2.545,-2.5679,-2.5898,0.0,0.0,0.0,0.0,0.0,0.0,0.0,0.0,0.0,0.0,0.0,0.0,0.0,0.0,-3.0609,-3.0806,-3.1023,-3.1333,-3.1929,-3.295,0.0,0.0,-3.4513,-3.4804,-3.4865,-3.444,-3.4719,-3.4852,-3.4834,-3.5126,-3.5416,-3.5716,-3.6181,-3.6577,-3.6772,-3.6534,-3.6235,-3.5913,-3.5351,-3.4842,-3.4437,-3.4825,-3.5086,-3.5086,-3.548,-3.571,-3.571,-3.571,-3.571,-3.571,-3.5533,-3.5248,-3.4828,-3.4651,-3.4556,-3.4634,-3.537,-3.6018,-3.6642,-3.6642,-3.6772,-3.6978,-3.6978,-3.7056,-3.707,-3.7056,-3.6978,-3.6978,-3.6978,-3.707,-3.7226,-3.7226,-3.7303,-3.738,0.0,0.0,0.0,0.0,0.0,0.0,0.0,0.0,0.0,0.0,0.0,0.0,0.0,0.0,0.0,0.0,0.0,0.0,-1.8415,-1.8765,-1.8874,-1.8874,-1.9461,-1.9931,-2.027,-2.1264,-2.143,-2.0857,-2.1679,-2.2379,-2.2945,-2.2726,-2.2909,-2.3472,-2.3776,-2.4223,-2.4787,-2.511,-2.556,-2.6127,-2.6127,-2.6445,-2.6989,0.0,0.0,0.0,0.0,0.0,0.0,0.0,-2.9659,0.0,0.0,0.0,0.0,0.0,-3.123,-3.1618,-3.1618,-3.2026,-3.2667,-3.3367,0.0,0.0,-3.5619,-3.5968,-3.5817,-3.5271,-3.5157,-3.5151,-3.4822,-3.5223,-3.5716,-3.592,-3.6358,-3.6612,-3.6352,-3.5981,-3.5691,-3.5365,-3.4763,-3.4397,-3.4397,-3.4825,-3.5086,-3.5086,-3.548,-3.571,-3.571,-3.571,-3.571,-3.571,-3.514,-3.4828,-3.4814,-3.4153,-3.4009,-3.4162,-3.4162,-3.4958,-3.6391,-3.6628,-3.6772,-3.6978,-3.6978,-3.7148,-3.7303,-3.707,-3.6978,-3.6978,-3.6978,-3.6978,-3.6978,-3.6978,-3.6978,-3.6978,0.0,0.0,0.0,0.0,0.0,0.0,0.0,0.0,0.0,0.0,0.0,0.0,0.0,0.0,0.0,0.0,0.0,0.0,-1.8421,-1.8765,-1.8997,-1.912,-1.9584,-2.004,-2.0608,-2.1284,-2.1799,-2.2037,-2.2383,-2.2604,-2.3059,-2.3408,-2.3801,-2.4454,-2.4667,-2.511,-2.5789,-2.5999,-2.6436,-2.6772,-2.689,-2.7314,-2.7638,0.0,0.0,0.0,0.0,0.0,0.0,0.0,0.0,0.0,0.0,0.0,0.0,-3.1023,-3.1322,-3.1618,-3.1823,-3.2128,-3.2667,-3.3367,0.0,0.0,-3.4704,-3.5166,-3.5387,-3.5247,-3.5027,-3.4918,-3.5054,-3.5332,-3.5716,-3.6181,-3.664,-3.6903,-3.6521,-3.6222,-3.5826,-3.5365,-3.4763,-3.4397,-3.4397,-3.4825,-3.5003,-3.4921,-3.5399,-3.5642,-3.548,-3.5642,-3.5533,-3.5113,-3.4923,-3.4434,-3.3593,-3.3417,-3.3383,-3.3594,-3.3608,-3.4493,-3.6003,-3.608,-3.6367,-3.6978,-3.6978,-3.7056,-3.707,-3.6978,-3.6978,-3.6978,-3.6978,-3.6978,-3.6978,-3.6978,-3.707,-3.7226,0.0,0.0,0.0,0.0,0.0,0.0,0.0,0.0,0.0,0.0,-1.6661,-1.7086,0.0,0.0,0.0,0.0,0.0,0.0,0.0,-1.9113,-1.9461,-1.9809,-2.0162,-2.0737,-2.141,-2.1873,-2.2436,-2.2996,-2.2785,-2.3014,-2.3352,-2.4024,-2.4454,-2.4787,-2.5441,-2.5999,-2.6336,-2.6772,-2.7098,-2.7422,-2.753,-2.7853,-2.8291,0.0,0.0,0.0,0.0,0.0,0.0,0.0,0.0,0.0,0.0,0.0,0.0,-3.1424,-3.1732,-3.2037,-3.224,-3.2555,0.0,-3.3536,-3.3717,-3.4009,-3.431,-3.4809,-3.5216,-3.5389,-3.5364,-3.5283,-3.5368,-3.562,-3.5908,-3.6452,-3.6828,-3.6932,-3.6315,-3.6168,-3.5809,-3.5038,-3.462,-3.4397,-3.4397,-3.4743,-3.4921,-3.4839,-3.5318,-3.5562,-3.5399,-3.5562,-3.5547,-3.5194,-3.4719,-3.4136,-3.3417,-3.2955,-3.2845,-3.2951,-3.2965,-3.3721,-3.5063,-3.5565,-3.606,-3.6564,-3.6958,-3.707,-3.6978,-3.707,-3.707,-3.6978,-3.6978,-3.6978,-3.6978,-3.6978,-3.707,-3.7148,0.0,0.0,-1.7034,-1.7169,0.0,0.0,0.0,0.0,0.0,0.0,-1.6932,-1.727,0.0,0.0,0.0,-1.8885,0.0,0.0,0.0,0.0,-2.0071,-2.063,-2.0994,-2.1699,-2.2523,-2.2822,-2.3159,-2.3536,-2.3223,-2.3352,-2.4024,-2.4565,-2.4889,-2.5,-2.6109,-2.6654,-2.6663,-2.7206,-2.7647,-2.796,-2.8067,-2.8398,-2.8727,-2.8804,0.0,0.0,0.0,0.0,0.0,0.0,0.0,0.0,0.0,0.0,-3.1333,-3.1823,-3.2229,-3.2555,-3.2779,-3.3081,-3.3381,-3.3679,-3.3779,-3.3866,-3.4335,-3.4802,-3.5246,-3.5445,-3.5743,-3.5893,-3.561,-3.5824,-3.6193,-3.6628,-3.6871,-3.6765,-3.5965,-3.5908,-3.5626,-3.4528,-3.4397,-3.4397,-3.4397,-3.466,-3.4756,-3.4756,-3.5154,-3.5399,-3.5399,-3.5562,-3.5683,-3.5642,-3.4584,-3.3896,-3.3788,-3.2793,-3.2282,-3.2417,-3.2417,-3.2849,-3.3851,-3.5105,-3.5823,-3.5948,-3.6908,-3.7148,-3.6978,-3.7226,-3.7148,-3.6978,-3.6978,-3.6978,-3.6978,-3.6978,-3.6978,-3.6978,0.0,0.0,-1.6895,-1.7449,0.0,0.0,0.0,0.0,0.0,0.0,0.0,0.0,0.0,-1.7942,0.0,-1.8904,-1.8965,0.0,0.0,0.0,-1.9889,-2.0325,-2.0978,-2.1767,-2.2482,-2.2776,-2.3102,-2.3703,-2.3772,-2.4024,-2.4565,-2.5008,-2.5551,-2.6218,-2.6654,-2.6989,-2.7323,-2.7862,-2.8184,-2.8291,-2.892,-2.9343,-2.9459,-2.9669,-2.9984,0.0,0.0,0.0,0.0,0.0,0.0,0.0,-3.1424,-3.1516,-3.1629,-3.1913,-3.2229,-3.2555,-3.2779,-3.3281,0.0,-3.3679,-3.3965,-3.4347,-3.4628,-3.4822,-3.4894,-3.4992,-3.5199,-3.5454,-3.5537,-3.5824,-3.6193,-3.6922,-3.6737,-3.6393,-3.6038,-3.5744,-3.5208,-3.4489,-3.4397,-3.4397,-3.4397,-3.466,-3.4756,-3.4756,-3.5154,-3.5399,-3.5399,-3.5562,-3.5506,-3.5031,-3.4774,-3.4204,-3.3254,-3.2996,-3.2777,-3.2417,-3.23,-3.2499,-3.301,-3.4404,-3.5717,-3.6718,-3.7,-3.7056,-3.6978,-3.707,-3.7056,-3.6978,-3.6978,-3.6978,-3.6978,-3.6978,-3.6978,-3.6978,0.0,0.0,0.0,0.0,0.0,0.0,0.0,0.0,0.0,0.0,0.0,0.0,0.0,-1.8293,0.0,0.0,-1.9043,-1.9243,-1.9463,-1.98,-2.023,-2.0977,-2.1642,-2.2161,-2.2779,-2.293,-2.3252,-2.3866,-2.4054,-2.435,-2.474,-2.5092,-2.5748,-2.6645,-2.7106,-2.7456,-2.7862,-2.8388,-2.8708,-2.8717,-2.9343,-2.9659,-2.9774,-3.0088,-3.0401,-3.0609,-3.0713,0.0,0.0,0.0,0.0,0.0,0.0,0.0,-3.2037,-3.2342,-3.2555,-3.2768,-3.3181,0.0,0.0,-3.3965,0.0,-3.4628,-3.4726,-3.4823,-3.4823,-3.4932,-3.5223,-3.5512,-3.5716,-3.6003,-3.637,-3.7015,-3.6634,-3.6251,-3.61,-3.5639,-3.5077,-3.4463,-3.4397,-3.4397,-3.4397,-3.4494,-3.466,-3.4756,-3.5003,-3.5236,-3.5399,-3.548,-3.5494,-3.5262,-3.4977,-3.4529,-3.3919,-3.3634,-3.3261,-3.2722,-3.2663,-3.2886,-3.3468,-3.4339,-3.5613,-3.6978,-3.6929,-3.6915,-3.6978,-3.6978,-3.6978,-3.6978,-3.6978,-3.6978,-3.6978,-3.6978,-3.6978,-3.6978,0.0,0.0,0.0,0.0,0.0,0.0,0.0,0.0,0.0,0.0,0.0,0.0,0.0,-1.8653,-1.8914,0.0,0.0,0.0,-1.986,-2.0178,-2.071,-2.1767,-2.211,-2.2576,-2.3165,-2.3203,-2.3414,-2.4001,-2.434,-2.4508,-2.4792,-2.5263,-2.5807,-2.6649,-2.7333,-2.7842,-2.829,-2.8996,-2.9237,-2.9237,-2.9659,-2.9984,-3.0203,-3.0495,-3.0703,-3.0931,-3.123,-3.1424,-3.1527,-3.1924,0.0,0.0,0.0,0.0,-3.2544,-3.2779,-3.2891,-3.3092,-3.358,0.0,-3.3965,-3.4335,-3.4628,0.0,-3.4823,-3.4835,-3.503,-3.5223,-3.5428,-3.5716,-3.592,-3.6181,-3.6546,-3.7015,-3.6557,-3.6135,-3.6087,-3.5547,-3.4959,-3.4463,-3.4397,-3.4397,-3.4397,-3.4397,-3.4494,-3.4839,-3.4839,-3.5003,-3.5399,-3.548,-3.5562,-3.571,-3.5248,-3.4936,-3.4828,-3.4262,-3.3797,-3.3213,-3.3288,-3.3752,-3.4478,-3.4658,-3.5572,-3.6915,-3.6772,-3.685,-3.6978,-3.6978,-3.6978,-3.6978,-3.6978,-3.6978,-3.6978,-3.6978,-3.6978,-3.6978,0.0,0.0,0.0,0.0,0.0,0.0,0.0,0.0,0.0,0.0,-1.8422,-1.8422,0.0,-1.866,-1.8898,-1.9233,-1.9471,-1.9807,-2.0008,0.0,0.0,-2.1361,-2.1669,-2.2237,-2.3082,-2.2954,-2.3353,-2.4226,-2.4281,-2.451,-2.5099,-2.5732,-2.6248,-2.6663,-2.7584,-2.7969,-2.8172,-2.9401,-2.9889,-2.9984,-3.0713,-3.0817,-3.0724,-3.1219,-3.1424,-3.1527,-3.1823,-3.2026,-3.2342,-3.2443,-3.2443,0.0,0.0,0.0,-3.2544,-3.2779,-3.3092,-3.3281,-3.358,0.0,-3.4347,0.0,-3.4932,-3.5126,0.0,-3.5126,-3.5512,-3.5524,-3.562,-3.5716,-3.592,-3.6181,-3.6546,-3.7015,-3.6237,-3.5697,-3.6035,-3.5195,-3.4489,-3.441,-3.4397,-3.4397,-3.4397,-3.4397,-3.4564,-3.5003,-3.5086,-3.5236,-3.5642,-3.5629,-3.5629,-3.571,-3.5642,-3.5357,-3.4841,-3.4746,-3.4421,-3.3824,-3.3976,-3.4519,-3.5328,-3.5341,-3.5792,-3.6707,-3.6929,-3.6993,-3.6978,-3.6978,-3.6978,-3.6978,-3.6978,-3.6978,-3.6978,-3.6978,-3.6978,-3.6978,0.0,0.0,0.0,0.0,0.0,0.0,0.0,0.0,0.0,0.0,0.0,-1.9153,0.0,-1.9354,-1.9561,-1.9783,-1.999,-2.03,-2.0704,-2.1019,-2.1318,-2.1725,-2.203,-2.2511,-2.33,-2.3326,-2.3618,-2.4217,-2.4433,-2.4942,-2.5638,-2.6352,-2.6904,-2.7166,-2.8058,-2.8702,-2.9174,-2.9901,-3.0297,-3.0516,-3.0827,-3.1034,-3.1034,-3.1424,-3.1721,-3.1924,-3.2353,-3.2454,-3.2544,-3.2857,-3.2676,-3.2372,-3.2778,0.0,0.0,0.0,-3.3261,-3.3779,-3.4064,-3.4347,-3.4726,0.0,-3.5126,-3.5223,-3.5223,-3.5428,-3.562,-3.5812,-3.5812,-3.5908,-3.6181,-3.637,-3.6546,-3.7015,-3.6429,-3.5968,-3.6061,-3.5417,-3.4776,-3.4437,-3.4397,-3.4397,-3.4397,-3.4397,-3.4577,-3.4921,-3.4825,-3.4908,-3.5318,-3.5236,-3.5318,-3.5562,-3.5562,-3.544,-3.533,-3.5316,-3.511,-3.463,-3.4708,-3.5063,-3.5543,-3.5825,-3.6286,-3.685,-3.685,-3.6929,-3.6978,-3.6978,-3.6978,-3.6978,-3.6978,-3.6978,-3.6978,-3.6978,-3.6978,-3.6978,0.0,0.0,0.0,0.0,0.0,0.0,0.0,0.0,0.0,0.0,0.0,0.0,0.0,0.0,0.0,0.0,-2.0506,-2.0925,-2.1318,-2.1522,-2.1827,-2.2224,-2.2627,-2.3038,-2.3546,-2.3836,-2.4134,-2.4449,-2.4843,-2.5436,-2.6238,-2.7073,-2.7643,-2.8053,-2.8767,-2.9312,-2.9756,-3.04,-3.0713,-3.0931,-3.1023,-3.123,-3.1424,-3.1845,-3.2037,-3.2342,-3.2779,-3.2869,-3.2757,-3.3281,-3.2925,-3.2471,-3.3058,-3.3203,0.0,0.0,0.0,-3.387,0.0,0.0,-3.4727,-3.492,-3.5222,-3.5416,0.0,-3.5716,-3.5812,-3.6015,-3.5891,-3.5886,-3.6157,-3.6157,-3.6344,-3.6705,-3.6301,-3.5865,-3.5778,-3.5417,-3.4894,-3.445,-3.4397,-3.4397,-3.4397,-3.4397,-3.4494,-3.4756,-3.4577,-3.466,-3.5086,-3.5003,-3.5019,-3.5184,-3.5251,-3.5264,-3.5276,-3.5411,-3.5355,-3.5104,-3.5254,-3.5466,-3.5636,-3.6105,-3.6549,-3.6836,-3.6707,-3.6707,-3.6915,-3.6836,-3.6836,-3.6915,-3.6836,-3.6836,-3.6836,-3.6836,-3.6836,-3.6836,0.0,0.0,0.0,0.0,0.0,0.0,0.0,0.0,0.0,0.0,0.0,0.0,-2.0078,-2.03,-2.0617,-2.0822,-2.1121,-2.142,-2.1623,-2.2123,-2.2426,-2.2526,-2.3229,0.0,-2.4035,-2.4332,-2.4735,-2.5235,-2.5235,-2.5741,-2.6765,-2.7783,-2.8644,-2.9198,-2.9495,-2.9457,-2.9121,-3.0525,-3.1127,-3.123,-3.1721,-3.1924,-3.2026,-3.2566,-3.2891,-3.288,-3.3181,-3.3281,-3.3281,-3.358,-3.3331,-3.2924,-3.3238,-3.3323,-3.3206,0.0,0.0,0.0,0.0,-3.3905,0.0,-3.4469,-3.5239,-3.592,0.0,-3.5991,-3.6275,-3.6015,-3.5781,-3.5499,-3.5499,-3.5592,-3.5672,-3.5935,-3.5213,-3.4761,-3.4982,-3.4634,-3.4437,-3.4397,-3.4397,-3.4397,-3.4397,-3.4397,-3.4494,-3.4756,-3.4756,-3.4839,-3.5086,-3.5236,-3.5144,-3.4579,-3.4724,-3.4532,-3.3964,-3.4597,-3.4869,-3.4841,-3.5398,-3.5843,-3.6031,-3.6072,-3.6246,-3.6391,-3.6405,-3.6563,-3.6707,-3.647,-3.6549,-3.6721,-3.6484,-3.6391,-3.6391,-3.6391,-3.6391,-3.6484,0.0,0.0,0.0,0.0,0.0,0.0,0.0,0.0,0.0,0.0,0.0,0.0,0.0,-2.0814,-2.1121,-2.142,-2.1623,-2.203,-2.2535,-2.2736,-2.2937,-2.3229,-2.3728,-2.4035,0.0,-2.4833,-2.5137,-2.5333,-2.5616,-2.6319,-2.7239,-2.8112,-2.8921,-2.9611,-3.0204,-3.0363,-3.0429,-3.0976,-3.1424,-3.1721,-3.1924,-3.2128,-3.2342,-3.2779,-3.2891,-3.2992,-3.3181,-3.3381,-3.358,-3.3679,-3.3429,-3.3238,-3.3687,-3.3419,-3.3031,-3.3052,-3.2939,-3.2931,0.0,0.0,0.0,-3.4281,-3.4613,-3.4947,-3.5039,-3.5132,-3.5316,-3.5224,-3.5073,-3.5014,-3.5014,-3.5014,-3.5105,-3.5377,-3.5137,-3.4844,-3.4735,-3.4577,-3.4405,-3.4017,-3.3979,-3.3979,-3.3979,-3.3979,-3.4063,-3.4327,-3.434,-3.441,-3.466,-3.4729,-3.4561,-3.4153,-3.422,-3.4085,-3.3806,-3.4465,-3.492,-3.5104,-3.5705,-3.6072,-3.6325,-3.6166,-3.6246,-3.6391,-3.6058,-3.6138,-3.6484,-3.6405,-3.6484,-3.6484,-3.6405,-3.6405,-3.6405,-3.6405,-3.6405,-3.6405,0.0,0.0,0.0,0.0,0.0,0.0,0.0,0.0,0.0,-2.0617,0.0,0.0,0.0,0.0,-2.1623,-2.1928,-2.2224,-2.2636,-2.3238,-2.3338,-2.3538,-2.3935,-2.4332,0.0,0.0,-2.5323,-2.5625,-2.5723,-2.611,-2.6875,-2.7747,-2.8582,-2.9405,-3.0135,-3.0756,-3.1143,-3.1207,-3.1359,-3.1732,-3.2128,-3.224,-3.2454,-3.2667,-3.288,-3.3092,-3.3181,-3.3381,-3.3476,-3.3621,-3.3621,-3.3335,-3.2996,-3.347,-3.3066,-3.2572,-3.2959,-3.2726,-3.2544,-3.2907,-3.3411,0.0,0.0,-3.4214,-3.4441,-3.4635,-3.4726,-3.4726,-3.4726,-3.4575,-3.4449,-3.4449,-3.4299,-3.4325,-3.4603,-3.4565,-3.4488,-3.4193,-3.4229,-3.4161,-3.3764,-3.3713,-3.3713,-3.381,-3.381,-3.3894,-3.4147,-3.4243,-3.4243,-3.4397,-3.4564,-3.44,-3.3967,-3.374,-3.3496,-3.3211,-3.3869,-3.443,-3.4804,-3.5405,-3.5867,-3.6152,-3.6072,-3.6072,-3.6152,-3.5804,-3.5965,-3.6484,-3.6325,-3.6325,-3.6405,-3.6405,-3.6312,-3.6152,-3.6312,-3.6312,-3.6232,0.0,0.0,0.0,0.0,0.0,0.0,0.0,0.0,-2.0933,-2.0925,0.0,0.0,0.0,0.0,0.0,-2.2526,-2.2846,-2.3247,-2.3728,-2.3935,-2.4233,-2.4529,-2.503,0.0,0.0,0.0,0.0,0.0,-2.6794,-2.7339,-2.8276,-2.9116,-2.9934,-3.0806,-3.1311,-3.1469,-3.1351,-3.1805,-3.2218,-3.2544,-3.2768,-3.2869,-3.2992,-3.3181,-3.3481,-3.3679,-3.3656,-3.3539,-3.33,-3.3576,-3.2982,-3.223,-3.2436,-3.2142,-3.1793,-3.2322,-3.2094,-3.1761,0.0,0.0,0.0,-3.3417,-3.4095,-3.4675,-3.4675,-3.4675,-3.4675,-3.4675,-3.4248,-3.3872,-3.3872,-3.3432,-3.3257,-3.3784,-3.3581,-3.3398,-3.3398,-3.3556,-3.3713,-3.3713,-3.3713,-3.381,-3.4076,-3.4076,-3.416,-3.4397,-3.4397,-3.4397,-3.4397,-3.4812,-3.4701,-3.4054,-3.3417,-3.2806,-3.2209,-3.2806,-3.339,-3.3883,-3.457,-3.5153,-3.571,-3.571,-3.571,-3.571,-3.571,-3.6058,-3.6642,-3.6246,-3.6246,-3.6405,-3.6405,-3.6138,-3.5723,-3.6232,-3.6058,-3.5804,0.0,0.0,0.0,0.0,0.0,0.0,0.0,0.0,-2.1522,0.0,0.0,0.0,-2.1928,-2.2333,-2.2745,-2.3147,-2.3338,-2.3637,-2.3935,-2.4233,-2.4637,-2.5039,-2.5421,-2.5703,0.0,0.0,0.0,0.0,0.0,0.0,0.0,0.0,-2.9953,-3.0914,-3.1364,-3.1469,-3.134,-3.124,-3.1817,-3.2745,-3.2273,-3.2451,-3.3181,-3.3481,-3.3679,-3.3633,-3.3457,-3.3526,-3.3541,-3.3256,-3.3267,-3.3443,-3.3188,-3.2707,-3.2214,-3.1973,-3.2059,-3.2213,-3.23,0.0,0.0,0.0,0.0,0.0,-3.3533,-3.3533,-3.3533,-3.3533,-3.3407,-3.3307,-3.3307,-3.3181,-3.3131,-3.3282,-3.3255,-3.3154,-3.3154,-3.3398,-3.3471,-3.3471,-3.3641,-3.3725,-3.381,-3.381,-3.3894,-3.416,-3.416,-3.4243,-3.4397,-3.4265,-3.4233,-3.4152,-3.3719,-3.3265,-3.2671,-3.3747,-3.4217,-3.3987,-3.4991,-3.556,-3.571,-3.571,-3.5804,-3.5992,-3.5804,-3.5978,-3.6484,-3.6246,-3.5992,-3.5884,-3.6072,-3.5978,-3.5723,-3.6072,-3.6072,-3.5992,0.0,0.0,0.0,0.0,0.0,0.0,0.0,-2.1609,-2.1775,0.0,0.0,0.0,-2.2434,-2.2937,-2.3438,-2.3637,-2.3935,-2.4233,-2.4529,-2.4735,-2.503,-2.5616,-2.58,-2.6091,0.0,0.0,0.0,0.0,0.0,0.0,0.0,0.0,0.0,-3.0719,-3.1309,-3.157,-3.1406,-3.0987,-3.1494,-3.254,-3.2222,-3.2613,-3.3481,-3.3679,-3.3737,-3.3711,-3.3514,-3.3315,-3.3182,-3.2883,-3.2903,-3.2996,-3.2707,-3.2497,-3.2273,-3.1946,-3.2125,-3.2388,-3.2475,-3.2723,-3.2982,-3.3068,0.0,0.0,-3.3081,-3.3081,-3.3081,-3.3081,-3.3081,-3.3081,-3.3081,-3.3081,-3.3081,-3.3081,-3.3081,-3.3081,-3.3081,-3.324,-3.324,-3.324,-3.3398,-3.3471,-3.3556,-3.3556,-3.3725,-3.4076,-3.4076,-3.4243,-3.4577,-3.4426,-3.4379,-3.43,-3.4189,-3.3873,-3.3292,-3.4032,-3.4421,-3.4353,-3.5031,-3.5479,-3.571,-3.571,-3.5804,-3.5898,-3.5804,-3.5898,-3.6246,-3.6166,-3.5992,-3.5898,-3.6232,-3.6152,-3.5898,-3.6298,-3.6391,-3.6246,0.0,0.0,-2.1393,-2.1385,-2.174,0.0,0.0,-2.1878,-2.1868,0.0,-2.2224,-2.2434,-2.3046,-2.3538,-2.3827,-2.4134,-2.443,-2.4833,-2.5333,-2.5333,-2.5616,-2.61,0.0,0.0,0.0,0.0,0.0,0.0,0.0,0.0,0.0,0.0,0.0,-3.0629,-3.12,-3.1561,-3.1681,-3.0927,-3.1177,-3.2018,-3.2311,-3.2949,-3.3679,-3.372,-3.3699,-3.3672,-3.3565,-3.311,-3.2503,-3.2593,-3.2219,-3.1761,-3.1821,-3.1986,-3.2038,-3.2038,-3.2213,-3.2475,-3.2636,-3.2711,-3.2797,-3.3068,-3.3081,0.0,-3.3081,-3.3081,-3.3081,-3.3081,-3.3081,-3.3081,-3.3081,-3.3081,-3.3081,-3.3081,-3.3081,-3.3081,-3.3081,-3.3167,-3.3154,-3.3154,-3.3154,-3.324,-3.3484,-3.3484,-3.3654,-3.4076,-3.416,-3.4327,-3.4839,-3.5003,-3.4927,-3.4633,-3.4778,-3.4651,-3.3977,-3.4032,-3.4302,-3.4828,-3.4896,-3.5208,-3.571,-3.571,-3.571,-3.571,-3.5723,-3.5898,-3.6086,-3.6086,-3.6166,-3.6166,-3.6563,-3.6484,-3.6232,-3.6758,-3.6772,-3.6484,-2.1224,-2.128,-2.1431,-2.1628,0.0,0.0,0.0,0.0,-2.2476,-2.2468,-2.2837,-2.3338,-2.3836,-2.3935,-2.4233,-2.4735,-2.5039,-2.5323,-2.5606,-2.58,-2.61,-2.64,0.0,0.0,0.0,0.0,0.0,0.0,0.0,0.0,0.0,0.0,0.0,0.0,-3.1107,-3.1238,-3.1659,-3.0943,-3.0948,-3.153,-3.1627,-3.2454,-3.3633,-3.3422,-3.349,-3.3589,-3.2931,-3.275,-3.275,-3.302,-3.2754,-3.2374,-3.2815,-3.2656,-3.23,-3.23,-3.2475,-3.2636,-3.2711,-3.2896,-3.3068,-3.3081,-3.3081,0.0,-3.3081,-3.3081,-3.3081,-3.3081,-3.3081,-3.3081,-3.3081,-3.3081,-3.3081,-3.3081,-3.3081,-3.3081,-3.3081,-3.324,-3.3313,-3.3313,-3.3471,-3.3641,-3.3907,-3.3992,-3.4076,-3.4314,-3.4314,-3.4577,-3.5003,-3.5086,-3.5182,-3.5466,-3.5533,-3.5248,-3.4665,-3.514,-3.5181,-3.4841,-3.5316,-3.5601,-3.571,-3.571,-3.571,-3.571,-3.5898,-3.6072,-3.6086,-3.6246,-3.6325,-3.6325,-3.6405,-3.6405,-3.6405,-3.6628,-3.6707,-3.6628,-2.1623,-2.178,-2.1808,-2.2006,0.0,0.0,0.0,0.0,-2.2859,-2.2762,-2.3338,-2.3935,-2.4233,-2.4529,-2.4833,-2.5216,-2.5518,-2.581,-2.6091,-2.638,-2.6582,0.0,0.0,0.0,0.0,0.0,0.0,0.0,0.0,0.0,0.0,0.0,0.0,-3.0621,-3.0951,-3.1247,-3.1506,-3.1095,-3.1228,-3.1575,-3.1575,-3.216,-3.3095,-3.3203,-3.3173,-3.3026,-3.2774,-3.267,-3.2616,-3.2806,-3.2621,-3.2449,-3.272,-3.2697,-3.255,-3.255,-3.2723,-3.2896,-3.2896,-3.2995,-3.3081,-3.3081,-3.3081,0.0,0.0,-3.3081,-3.3081,-3.3081,-3.3081,-3.3081,-3.3081,-3.3081,-3.3081,-3.3081,-3.3154,-3.324,-3.3081,-3.324,-3.3398,-3.3398,-3.3556,-3.3713,-3.3894,-3.3823,-3.3823,-3.4063,-3.4147,-3.441,-3.4743,-3.4908,-3.5086,-3.5399,-3.548,-3.5413,-3.5276,-3.5574,-3.5574,-3.5276,-3.5574,-3.571,-3.571,-3.5817,-3.5898,-3.5898,-3.6152,-3.6325,-3.6405,-3.6405,-3.6549,-3.6693,-3.6549,-3.6563,-3.6563,-3.6642,-3.6786,-3.685,-2.2021,-2.2281,-2.2386,-2.2386,0.0,0.0,0.0,0.0,-2.3147,-2.3247,-2.3836,-2.443,-2.4726,-2.5051,-2.5528,-2.5877,-2.6011,-2.6204,-2.6678,-2.687,-2.7146,-2.7441,0.0,-2.7925,0.0,0.0,0.0,0.0,0.0,0.0,0.0,0.0,-2.9686,-2.9913,-3.0696,-3.1177,-3.1349,-3.1145,-3.1323,-3.1616,-3.1723,-3.2041,-3.2524,-3.296,-3.2864,-3.2478,-3.2629,-3.258,-3.2475,-3.2475,-3.2562,-3.2562,-3.2562,-3.2649,-3.281,-3.281,-3.2896,-3.3081,-3.3081,-3.3081,-3.3081,-3.3081,-3.3081,-3.3081,0.0,0.0,0.0,-3.3081,-3.3081,-3.3081,-3.3081,-3.3081,-3.3081,-3.3081,-3.324,-3.3326,-3.3167,-3.324,-3.3398,-3.3313,-3.3471,-3.3641,-3.3641,-3.3556,-3.3556,-3.3725,-3.3992,-3.4243,-3.4494,-3.4673,-3.4921,-3.5086,-3.5236,-3.5399,-3.5562,-3.5562,-3.5562,-3.5562,-3.5642,-3.5642,-3.5642,-3.5898,-3.5992,-3.6072,-3.6312,-3.6484,-3.6642,-3.6549,-3.6693,-3.6993,-3.6786,-3.6707,-3.6786,-3.6786,-3.685,-3.6993,-2.2131,-2.2257,-2.2595,-2.2915,0.0,0.0,0.0,0.0,-2.3546,-2.3935,-2.4637,-2.5226,-2.5499,-2.5457,-2.5759,-2.6723,-2.6219,-2.6253,-2.741,-2.7357,-2.7441,-2.7904,0.0,0.0,-2.8395,0.0,0.0,0.0,0.0,0.0,0.0,0.0,-2.9624,-2.993,-3.0167,0.0,-3.1326,-3.0593,-3.0663,-3.11,-3.1379,-3.1914,-3.2442,-3.2319,-3.2301,-3.2533,-3.2482,-3.2524,-3.2723,-3.2909,-3.2995,-3.2995,-3.2995,-3.3081,-3.3068,-3.3068,-3.3081,-3.3081,-3.3081,-3.3081,-3.3081,-3.3081,-3.3081,-3.3081,-3.3081,0.0,-3.3081,-3.3081,0.0,-3.3081,-3.3081,0.0,0.0,-3.3081,-3.3167,-3.3154,-3.3081,-3.324,-3.3313,-3.3154,-3.3154,-3.324,-3.3398,-3.3556,-3.381,-3.3992,-3.4076,-3.4327,-3.4756,-3.4756,-3.4921,-3.5086,-3.5086,-3.5154,-3.5154,-3.5154,-3.5154,-3.5154,-3.5318,-3.5399,-3.548,-3.5642,-3.5723,-3.5804,-3.6232,-3.6405,-3.6484,-3.6758,-3.6993,-3.6993,-3.6786,-3.6772,-3.6993,-3.6993,-3.6993,-3.6978,-2.2434,-2.2434,-2.2567,-2.2551,0.0,0.0,0.0,0.0,-2.3877,-2.4884,-2.5314,-2.5703,-2.61,-2.6124,-2.6285,-2.687,-2.6802,-2.695,-2.7526,-2.7831,-2.8019,-2.8196,-2.8477,-2.8664,0.0,0.0,0.0,0.0,-2.885,0.0,0.0,0.0,-2.9227,-2.9438,-2.9993,-3.0544,-3.0906,-3.0766,-3.0813,-3.0985,-3.1145,-3.134,-3.1619,-3.1964,-3.2274,-3.2442,-3.2386,-3.2649,-3.2982,-3.3081,-3.3081,-3.3081,-3.3081,-3.3081,-3.3081,-3.3081,-3.3081,-3.3154,-3.324,-3.324,-3.324,-3.324,-3.324,-3.324,-3.3154,-3.3081,-3.3081,-3.3081,0.0,0.0,0.0,0.0,0.0,0.0,-3.324,-3.324,-3.3167,-3.324,-3.3398,-3.3326,-3.3398,-3.3484,-3.3398,-3.3556,-3.3713,-3.3894,-3.3992,-3.4243,-3.4577,-3.4577,-3.466,-3.4921,-3.4921,-3.5003,-3.5086,-3.5086,-3.5086,-3.5086,-3.5318,-3.5399,-3.5399,-3.5737,-3.5898,-3.5978,-3.6232,-3.6405,-3.6405,-3.6707,-3.685,-3.685,-3.685,-3.6915,-3.6993,-3.685,-3.6915,-3.7035,-2.2589,-2.2689,-2.2667,-2.2381,0.0,0.0,0.0,0.0,-2.4228,-2.5382,-2.5722,-2.61,-2.6592,-2.6476,-2.6615,-2.7146,-2.7128,-2.7275,-2.7893,-2.8196,-2.8395,-2.8488,-2.8664,-2.8757,-2.8757,0.0,0.0,0.0,0.0,0.0,0.0,0.0,0.0,-2.9046,-2.9795,-3.0232,-3.0303,-3.0605,-3.0801,-3.0859,-3.0945,-3.1062,-3.1276,-3.1824,-3.2099,-3.2313,-3.2388,-3.2649,-3.2982,-3.3081,-3.3081,-3.3081,-3.3081,-3.3154,-3.3154,-3.3167,-3.3154,-3.3326,-3.3398,-3.3398,-3.3398,-3.3471,-3.3484,-3.3398,-3.3326,-3.324,-3.3154,-3.3154,-3.3154,0.0,0.0,0.0,-3.3081,-3.3081,0.0,-3.324,-3.3167,-3.324,-3.3313,-3.3313,-3.3484,-3.3471,-3.3313,-3.3484,-3.3556,-3.3641,-3.381,-3.4076,-3.4314,-3.4397,-3.4481,-3.4673,-3.4831,-3.4914,-3.4908,-3.508,-3.508,-3.5003,-3.5236,-3.5318,-3.5399,-3.5817,-3.5992,-3.5992,-3.6312,-3.6405,-3.6405,-3.6642,-3.6707,-3.6786,-3.685,-3.6993,-3.6978,-3.685,-3.685,-3.7077,-2.2388,-2.2779,-2.2955,-2.2568,0.0,0.0,0.0,-2.407,-2.4813,-2.5088,-2.5938,-2.6602,-2.69,-2.628,-2.6462,-2.7819,-2.6996,-2.704,-2.8691,-2.8488,-2.8488,-2.8757,-2.8757,-2.8757,-2.8757,-2.8757,0.0,0.0,0.0,0.0,0.0,0.0,0.0,0.0,-2.9622,-2.9806,-2.96,-3.0057,-3.042,-3.0601,-3.0894,-3.1241,-3.1661,-3.1685,-3.1862,-3.2038,-3.23,-3.2562,-3.2711,-3.2982,-3.3081,-3.3081,-3.3081,-3.324,-3.3313,-3.3154,-3.3398,-3.3641,-3.3484,-3.3398,-3.3484,-3.3641,-3.3556,-3.3484,-3.3641,-3.3556,-3.3398,-3.3398,-3.324,-3.3081,-3.3081,-3.3081,-3.3081,-3.3081,-3.3081,0.0,0.0,-3.3081,-3.3081,-3.3081,-3.3167,-3.3167,-3.3081,-3.3167,-3.324,-3.3398,-3.3641,-3.381,-3.4076,-3.4314,-3.4397,-3.4397,-3.4959,-3.4986,-3.441,-3.4972,-3.5155,-3.4839,-3.5003,-3.5236,-3.5399,-3.5642,-3.571,-3.5723,-3.6232,-3.6405,-3.6405,-3.6642,-3.6772,-3.6993,-3.6786,-3.685,-3.6978,-3.6978,-3.6978,-3.7077,-2.2191,-2.2366,-2.2508,-2.2186,-2.2344,-2.2723,-2.3275,-2.3673,-2.4142,-2.5083,-2.5438,-2.5928,-2.6588,-2.6527,-2.6764,-2.7673,-2.726,-2.7441,-2.8445,-2.8278,-2.8337,-2.8735,-2.8757,-2.8757,-2.8757,-2.8757,-2.885,0.0,0.0,0.0,0.0,0.0,0.0,0.0,0.0,-2.9588,0.0,-3.0034,-3.0397,-3.0668,-3.1038,-3.1407,-3.1749,-3.1849,-3.2038,-3.23,-3.2388,-3.2649,-3.2982,-3.3068,-3.3081,-3.3081,-3.3081,-3.324,-3.3398,-3.3313,-3.3471,-3.3725,-3.3823,-3.3823,-3.3907,-3.3992,-3.3907,-3.3823,-3.3556,-3.3484,-3.3398,-3.324,-3.3154,-3.3081,-3.3081,-3.3081,-3.3081,-3.3081,-3.3081,-3.3081,0.0,-3.3081,-3.3068,-3.2896,-3.2982,-3.3081,-3.3081,-3.324,-3.3398,-3.3556,-3.3999,-3.4307,-3.434,-3.4595,-3.4634,-3.441,-3.4986,-3.5012,-3.441,-3.4999,-3.5083,-3.4577,-3.4908,-3.5154,-3.5236,-3.5562,-3.571,-3.5723,-3.6072,-3.6166,-3.6246,-3.6563,-3.6707,-3.6786,-3.685,-3.6915,-3.6978,-3.6978,-3.7245,-3.7737,-2.2003,-2.1943,-2.2026,-2.1844,-2.2116,-2.256,-2.3108,-2.3413,-2.3977,-2.4816,-2.5179,-2.5554,-2.6289,-2.6277,-2.6606,-2.742,-2.7189,-2.7441,-2.8434,-2.8217,-2.8254,-2.8735,-2.8757,-2.8757,-2.8757,-2.8757,-2.885,-2.9035,0.0,-2.885,0.0,0.0,0.0,0.0,0.0,-2.9577,-2.968,-3.0034,-3.0408,-3.0769,-3.1306,-3.1572,-3.1749,-3.2025,-3.2213,-3.23,-3.24,-3.2649,-3.2982,-3.3068,-3.3154,-3.324,-3.324,-3.3411,-3.3654,-3.3556,-3.3725,-3.3979,-3.4076,-3.4076,-3.416,-3.416,-3.4076,-3.3907,-3.3738,-3.3484,-3.3398,-3.324,-3.3154,-3.3167,-3.3154,-3.3154,-3.3167,-3.324,-3.3154,-3.3081,0.0,-3.3081,-3.3081,-3.2896,-3.2982,-3.3081,-3.3081,-3.324,-3.3398,-3.3556,-3.3986,-3.4294,-3.4256,-3.479,-3.4842,-3.441,-3.5378,-3.5516,-3.4577,-3.528,-3.5267,-3.4647,-3.499,-3.5154,-3.5236,-3.5562,-3.571,-3.571,-3.6072,-3.6246,-3.6246,-3.6563,-3.6707,-3.6772,-3.685,-3.7055,-3.7316,-3.7316,-3.777,-3.8515,-2.1746,-2.1635,-2.1741,-2.1731,-2.2087,-2.253,-2.2794,-2.3486,-2.4197,-2.4385,-2.5027,-2.5573,-2.5844,-2.5727,-2.6009,-2.7168,-2.6711,-2.6963,-2.8626,-2.8265,-2.8233,-2.8735,-2.8757,-2.8757,-2.8757,-2.8757,-2.8757,-2.8757,0.0,0.0,0.0,0.0,0.0,0.0,-2.9393,0.0,-2.9886,-3.0136,-3.051,-3.1074,-3.1673,-3.1849,-3.1761,-3.2213,-3.2213,-3.2038,-3.23,-3.2562,-3.2723,-3.2982,-3.324,-3.3398,-3.3398,-3.3738,-3.3992,-3.381,-3.4063,-3.4314,-3.416,-3.4076,-3.416,-3.4314,-3.4063,-3.3797,-3.3992,-3.3738,-3.3398,-3.3398,-3.324,-3.3154,-3.3313,-3.324,-3.3154,-3.3313,-3.3215,-3.3031,-3.3031,-3.3031,-3.3043,-3.3068,-3.3068,-3.3081,-3.3081,-3.3081,-3.3154,-3.3398,-3.3581,-3.3836,-3.4076,-3.4803,-3.5025,-3.4424,-3.6031,-3.621,-3.4782,-3.5594,-3.5766,-3.5086,-3.5086,-3.5236,-3.5399,-3.5642,-3.571,-3.5723,-3.6232,-3.6405,-3.6405,-3.6642,-3.685,-3.6993,-3.6786,-3.7242,-3.7948,-3.7976,-3.8585,-3.9452,-2.1527,-2.1545,-2.183,-2.2176,-2.2441,-2.2794,-2.2969,-2.3418,-2.375,-2.3924,-2.4297,-2.4764,-2.5357,-2.5549,-2.5883,-2.6743,-2.6429,-2.6801,-2.8156,-2.7763,-2.7872,-2.8724,-2.8757,-2.8757,-2.8757,-2.8757,-2.8757,-2.8757,-2.8757,0.0,-2.8757,0.0,0.0,0.0,0.0,0.0,-2.9886,-3.0136,-3.051,-3.1062,-3.1318,-3.1572,-3.1749,-3.1837,-3.2025,-3.23,-3.255,-3.281,-3.2982,-3.3081,-3.3154,-3.324,-3.3313,-3.3484,-3.3654,-3.3907,-3.4076,-3.4243,-3.4314,-3.4243,-3.4076,-3.416,-3.3979,-3.3641,-3.3569,-3.3484,-3.3398,-3.324,-3.3154,-3.3167,-3.3154,-3.3154,-3.3167,-3.3154,-3.2802,-3.2356,-3.1932,-3.2102,-3.2264,-3.2513,-3.2723,-3.2896,-3.3068,-3.2896,-3.2982,-3.3398,-3.3705,-3.3842,-3.3823,-3.4448,-3.4585,-3.4173,-3.5187,-3.5299,-3.4494,-3.5299,-3.5468,-3.4839,-3.5154,-3.5318,-3.5399,-3.5642,-3.571,-3.5723,-3.6232,-3.6405,-3.6405,-3.6772,-3.6993,-3.6978,-3.6915,-3.7667,-3.8678,-3.9128,-3.9327,-3.9507,-2.1473,-2.1741,-2.2087,-2.2353,-2.2706,-2.2969,-2.3047,-2.3406,-2.3667,-2.3754,-2.411,-2.4471,-2.4815,-2.5173,-2.5794,-2.6572,-2.6259,-2.6617,-2.796,-2.7403,-2.7435,-2.8396,-2.844,-2.8538,-2.8746,-2.8757,-2.8757,-2.8757,-2.8757,0.0,-2.8757,0.0,0.0,0.0,0.0,-2.9977,-3.0057,-3.0306,-3.0589,-3.0871,-3.1128,-3.1395,0.0,-3.1761,-3.2038,-3.2264,-3.2278,-3.2684,-3.3081,-3.3081,-3.3003,-3.2874,-3.303,-3.2949,-3.2912,-3.316,-3.3243,-3.3294,-3.3623,-3.3506,-3.3307,-3.3553,-3.327,-3.2925,-3.2759,-3.2746,-3.2739,-3.2739,-3.2789,-3.2962,-3.3189,-3.3154,-3.3081,-3.2896,-3.2421,-3.1975,-3.1722,-3.1806,-3.2015,-3.224,-3.2574,-3.281,-3.3068,-3.2982,-3.2982,-3.3398,-3.3604,-3.3728,-3.3836,-3.4448,-3.4702,-3.4634,-3.5427,-3.5539,-3.4958,-3.5549,-3.5502,-3.4921,-3.5236,-3.5399,-3.5399,-3.5642,-3.571,-3.571,-3.6072,-3.6246,-3.6325,-3.6693,-3.685,-3.6906,-3.7597,-3.8316,-3.9173,-3.9802,-3.9856,-3.9712,-2.1392,-2.1836,-2.2249,-2.228,-2.2669,-2.2969,-2.3057,-2.3454,-2.3754,-2.3841,-2.4196,-2.4454,-2.454,-2.4956,-2.5541,-2.6381,-2.6098,-2.6465,-2.7771,-2.7151,-2.7096,-2.7913,-2.7956,-2.8211,-2.8549,-2.8626,-2.8659,-2.8659,-2.8724,0.0,0.0,0.0,0.0,0.0,0.0,0.0,0.0,-3.0487,-3.0578,-3.0668,-3.1128,-3.1306,-3.1383,-3.1689,-3.184,-3.1855,-3.1736,-3.2237,-3.2955,-3.288,-3.2697,-3.2447,-3.2542,-3.2281,-3.2034,-3.2114,-3.2114,-3.2149,-3.2636,-3.2406,-3.2162,-3.2649,-3.2418,-3.1992,-3.1818,-3.1886,-3.2026,-3.2097,-3.2281,-3.2554,-3.3098,-3.3126,-3.2857,-3.2598,-3.2102,-3.1791,-3.1791,-3.1854,-3.2012,-3.2231,-3.2498,0.0,-3.3068,-3.3068,-3.3154,-3.3313,-3.3398,-3.3569,-3.392,-3.4456,-3.4852,-3.5214,-3.5976,-3.6142,-3.566,-3.5909,-3.5706,-3.5192,-3.5358,-3.5399,-3.5399,-3.5642,-3.571,-3.571,-3.5992,-3.6086,-3.6166,-3.6567,-3.6809,-3.7069,-3.8375,-3.9145,-3.9436,-4.0076,-4.0198,-3.9922,-2.1222,-2.1401,-2.1558,-2.1466,-2.1959,-2.237,-2.2541,-2.3093,-2.359,-2.3754,-2.4024,-2.4292,-2.4454,-2.4956,-2.5179,-2.5177,-2.583,-2.6324,-2.6779,-2.7216,-2.7601,-2.7763,-2.7945,-2.7894,-2.7577,-2.796,-2.8167,-2.8167,-2.856,0.0,0.0,0.0,0.0,0.0,0.0,0.0,-3.0216,-3.0487,0.0,-3.0972,-3.1217,-3.1395,-3.1613,-3.1267,-3.1184,-3.1272,-3.0809,-3.1316,-3.2062,-3.1755,-3.1625,-3.17,-3.2064,-3.1894,-3.163,-3.222,-3.214,-3.1911,-3.2162,-3.2043,-3.1924,-3.1932,-3.1894,-3.1737,-3.1749,-3.1737,-3.1762,-3.1782,-3.1807,-3.1972,-3.2349,-3.2365,-3.2215,-3.168,-3.1517,-3.1467,-3.122,-3.1617,-3.2065,-3.2598,-3.2661,-3.281,-3.3068,-3.2896,-3.2896,-3.3154,-3.3154,-3.3167,-3.324,-3.3658,-3.4183,-3.4671,-3.5223,-3.5704,-3.604,-3.5785,-3.5594,-3.5553,-3.5477,-3.5399,-3.5399,-3.5642,-3.571,-3.571,-3.5992,-3.6086,-3.6127,-3.6849,-3.7522,-3.8034,-3.8754,-3.9086,-3.9266,-3.9861,-3.9936,-3.9774,-2.1145,-2.12,-2.1259,-2.122,-2.188,-2.2434,-2.251,-2.3054,-2.358,-2.3754,-2.411,-2.4368,-2.4454,-2.4956,-2.5296,-2.5379,-2.6045,-2.6563,-2.6783,-2.705,-2.7158,-2.7317,-2.7268,-2.7315,-2.7315,-2.7545,-2.7665,-2.7665,-2.7894,0.0,0.0,0.0,0.0,0.0,0.0,-3.0136,0.0,0.0,-3.0781,-3.0781,-3.1128,-3.1228,-3.1053,-3.0975,-3.0784,-3.0556,-3.0177,-3.04,-3.0881,-3.1153,-3.1142,-3.0997,-3.1251,-3.0968,-3.0637,-3.111,-3.1032,-3.1016,-3.1376,-3.1169,-3.095,-3.1162,-3.101,-3.0795,-3.0729,-3.0887,-3.1029,-3.1095,-3.1305,-3.1551,-3.1864,-3.187,-3.17,-3.1272,-3.1235,-3.1248,-3.1083,-3.1555,-3.199,-3.2421,-3.2709,-3.2982,-3.3081,-3.2982,-3.2982,-3.3081,-3.3081,-3.3154,-3.3398,-3.3751,-3.4417,-3.5344,-3.5668,-3.6041,-3.6567,-3.6393,-3.6048,-3.5614,-3.5672,-3.553,-3.5236,-3.548,-3.5562,-3.5575,-3.613,-3.6361,-3.6402,-3.725,-3.802,-3.8697,-3.8987,-3.9219,-3.9463,-3.9752,-3.9686,-3.9496,-2.0979,-2.1071,-2.1089,-2.1182,-2.188,-2.2425,-2.251,-2.3054,-2.359,-2.3754,-2.4186,-2.4454,-2.4454,-2.4871,-2.5349,-2.5646,-2.612,-2.653,-2.6732,-2.6671,-2.6639,-2.6743,-2.6661,-2.6661,-2.6922,-2.7119,-2.7173,-2.7173,-2.7261,-2.7315,0.0,0.0,0.0,0.0,0.0,0.0,0.0,-3.0454,-3.0543,-3.043,-3.0885,-3.0811,-3.0441,-3.0493,-3.029,-2.9928,-2.9537,-2.9597,-2.9831,-3.0505,-3.0623,-3.0444,-3.0524,-3.0143,-2.9869,-3.0011,-3.0075,-3.0099,-3.0542,-3.034,-3.0112,-3.0331,-3.035,-3.0227,-2.9972,-3.0241,-3.056,-3.0527,-3.0902,-3.1185,-3.1483,-3.1398,-3.1192,-3.1153,-3.1083,-3.1133,-3.1245,-3.1645,-3.2077,-3.2403,-3.2707,-3.2995,-3.3081,-3.3081,-3.3081,-3.3154,-3.3154,-3.3376,-3.3722,-3.4081,-3.4891,-3.609,-3.6302,-3.6599,-3.7194,-3.7063,-3.6642,-3.591,-3.595,-3.5814,-3.5362,-3.5611,-3.5693,-3.5802,-3.6426,-3.678,-3.7026,-3.7656,-3.8386,-3.9119,-3.9119,-3.9335,-3.9598,-3.9598,-3.9407,-3.9203,-2.0576,-2.0708,-2.0922,-2.1182,-2.1796,-2.2264,-2.2425,-2.3054,-2.3503,-2.3503,-2.411,-2.4454,-2.4292,-2.4786,-2.5137,-2.5009,-2.5571,-2.6021,-2.5977,-2.6338,-2.6381,-2.5998,-2.6216,-2.6184,-2.5784,-2.6378,-2.6693,-2.6693,-2.7108,-2.7315,0.0,0.0,0.0,0.0,0.0,-2.8838,-2.8838,-2.9367,-2.9538,-2.9538,-3.0061,-3.0206,-3.011,-2.9629,-2.9412,-2.9304,-2.8991,-2.9034,-2.9204,-2.9477,-2.9724,-2.9945,-3.0087,-2.9972,-2.9869,-3.0011,-2.9934,-2.9804,-2.9854,-2.9829,-2.9804,-2.9854,-3.035,-3.0696,-3.0202,-3.0611,-3.0996,-3.0535,-3.07,-3.0925,-3.0976,-3.0842,-3.0766,-3.1091,-3.1083,-3.1257,-3.1754,-3.2142,-3.2488,-3.2993,-3.2698,-3.2649,-3.3081,-3.2896,-3.2884,-3.3313,-3.3398,-3.3541,-3.3872,-3.4297,-3.5084,-3.6238,-3.6509,-3.6975,-3.7808,-3.7273,-3.6946,-3.6841,-3.6569,-3.6465,-3.6412,-3.6571,-3.6829,-3.7039,-3.7093,-3.7587,-3.826,-3.8301,-3.8681,-3.9312,-3.9312,-3.9339,-3.9305,-3.91,-3.8997,-3.8908,-2.0163,-2.0135,-2.0276,-2.0775,-2.1412,-2.2039,-2.265,-2.3312,-2.3667,-2.3667,-2.4024,-2.4378,-2.4368,-2.4786,-2.5031,-2.4946,-2.5647,-2.6087,-2.5902,-2.6356,-2.6465,-2.6087,-2.5905,-2.5849,-2.5822,-2.5923,-2.6021,-2.619,-2.6376,-2.6463,-2.6463,0.0,0.0,0.0,-2.8391,-2.87,-2.87,-2.9215,-2.9397,-2.9397,-2.976,-2.9822,-2.9593,-2.9376,-2.91,-2.8799,-2.8662,-2.8816,-2.9131,-2.9341,-2.9599,-2.9792,-2.9869,-2.9869,-2.9869,-3.0011,-3.0011,-3.0011,-3.0011,-3.0011,-2.9934,-2.9869,-3.0033,-3.0211,-2.9984,-3.0188,-3.0276,-3.0049,-3.011,-3.0262,-3.0417,-3.0262,-3.0215,-3.0487,-3.0941,-3.1435,-3.1829,-3.229,-3.2723,-3.3081,-3.281,-3.2723,-3.3081,-3.2982,-3.3068,-3.3398,-3.3629,-3.392,-3.4323,-3.4882,-3.5531,-3.6431,-3.6583,-3.697,-3.7611,-3.7456,-3.717,-3.6805,-3.6763,-3.6639,-3.6284,-3.6471,-3.6944,-3.7464,-3.7638,-3.8061,-3.851,-3.851,-3.8658,-3.8859,-3.8859,-3.8859,-3.8859,-3.8922,-3.8908,-3.8908,-1.9979,-1.9857,-2.0024,-2.068,-2.125,-2.1797,-2.2359,-2.2918,-2.3288,-2.3363,-2.3665,-2.4053,-2.4358,-2.47,-2.4861,-2.4861,-2.5519,-2.5894,-2.5797,-2.6055,-2.6141,-2.6044,-2.5743,-2.5654,-2.5812,-2.5728,-2.5728,-2.5895,-2.5895,-2.5895,-2.5895,-2.6063,-2.6501,-2.7184,-2.7946,-2.8264,-2.8264,-2.8783,-2.8939,-2.8855,-2.9213,-2.9165,-2.8982,-2.9063,-2.8835,-2.8578,-2.8736,-2.8973,-2.9197,-2.9431,-2.9611,-2.9792,-2.9869,-2.9869,-2.9869,-2.9934,-3.0011,-3.0011,-3.0011,-3.0011,-3.0011,-2.9869,-2.9917,-2.9993,-2.9829,-2.9995,-3.0058,-2.9894,-2.9869,-2.9934,-3.0011,-2.9856,-2.9836,-3.0282,-3.081,-3.1415,-3.1967,-3.2389,-3.2723,-3.3081,-3.281,-3.2723,-3.3081,-3.3068,-3.3068,-3.3398,-3.367,-3.4149,-3.4753,-3.5402,-3.5973,-3.6585,-3.6705,-3.6922,-3.7413,-3.7413,-3.7193,-3.678,-3.6975,-3.6948,-3.653,-3.6809,-3.7312,-3.7887,-3.8153,-3.8394,-3.8602,-3.8602,-3.8602,-3.8602,-3.8602,-3.8602,-3.8602,-3.8756,-3.8742,-3.8729,-2.0077,-2.0151,-2.0363,-2.1097,-2.1358,-2.1534,-2.1515,-2.1709,-2.206,-2.2461,-2.2925,-2.3453,-2.4155,-2.4615,-2.4861,-2.4861,-2.4871,-2.5137,-2.557,-2.5391,-2.5295,-2.557,-2.5559,-2.5559,-2.5559,-2.5822,-2.5895,-2.5895,-2.5895,-2.5895,-2.5895,-2.6396,-2.6727,-2.6903,-2.7161,-2.7242,-2.7242,-2.7743,-2.7812,-2.7534,-2.803,-2.8191,-2.8271,-2.8431,-2.8657,-2.887,-2.9263,-2.9419,-2.9419,-2.9702,-2.9792,-2.9869,-3.0011,-2.9934,-2.9792,-2.9792,-2.9792,-2.9792,-2.9792,-2.9792,-2.9792,-2.9792,-3.0206,-3.0457,-2.9917,-3.0363,-3.0747,-3.0189,-3.0075,-3.0011,-2.9869,-2.9611,-2.97,-3.0556,-3.0765,-3.1159,-3.2228,-3.2388,-3.2562,-3.3081,-3.2649,-3.2562,-3.3081,-3.2896,-3.2884,-3.3398,-3.367,-3.4237,-3.506,-3.5877,-3.6427,-3.6684,-3.6709,-3.6815,-3.7108,-3.7108,-3.7108,-3.7095,-3.74,-3.7492,-3.7492,-3.8018,-3.8187,-3.82,-3.8498,-3.8602,-3.8602,-3.8602,-3.8602,-3.8602,-3.8602,-3.8602,-3.8602,-3.8602,-3.8408,-3.8213,-1.9724,-1.9912,-2.0193,-2.069,-2.0929,-2.1269,-2.1899,-2.204,-2.2215,-2.2543,-2.2828,-2.3052,-2.3278,-2.4083,-2.4615,-2.4615,-2.4786,-2.4946,-2.5126,-2.52,-2.5295,-2.557,-2.538,-2.5464,-2.5822,-2.5728,-2.5728,-2.5895,-2.5895,-2.5979,-2.6074,-2.6479,-2.6727,-2.6891,-2.729,-2.7371,-2.7452,-2.78,-2.795,-2.8007,-2.8167,-2.8259,-2.8431,-2.851,-2.8657,-2.8803,-2.8949,-2.9184,-2.9419,-2.9702,-2.9792,-2.9869,-3.0011,-2.9934,-2.9792,-2.9792,-2.9792,-2.9792,-2.9599,-2.9689,-2.9792,-2.9599,-2.9827,-3.0005,-2.9829,-3.0072,-3.0291,-3.0113,-3.0075,-3.0011,-2.9869,-2.9599,-2.9779,-3.0815,-3.1013,-3.1314,-3.224,-3.24,-3.2487,-3.2649,-3.2475,-3.2475,-3.281,-3.2896,-3.3068,-3.3398,-3.3844,-3.4414,-3.5073,-3.5527,-3.6071,-3.6696,-3.6534,-3.6628,-3.6815,-3.6815,-3.6815,-3.6815,-3.7108,-3.7307,-3.7505,-3.8031,-3.8135,-3.7979,-3.8226,-3.8239,-3.8083,-3.8083,-3.8083,-3.8083,-3.8083,-3.8083,-3.8161,-3.8317,-3.8304,-3.8213,-1.9566,-1.9872,-2.0106,-2.0292,-2.0569,-2.0985,-2.1428,-2.1548,-2.1709,-2.197,-2.2181,-2.2443,-2.2534,-2.335,-2.4021,-2.4281,-2.4607,-2.4786,-2.4861,-2.5031,-2.52,-2.557,-2.5464,-2.5549,-2.5895,-2.5812,-2.5906,-2.5979,-2.6146,-2.6229,-2.649,-2.6644,-2.6809,-2.6974,-2.7301,-2.7371,-2.7371,-2.7719,-2.7869,-2.7926,-2.8099,-2.8259,-2.8431,-2.851,-2.8657,-2.8791,-2.8949,-2.9184,-2.9419,-2.9702,-2.9869,-2.9934,-2.9934,-2.9934,-2.9856,-2.9792,-2.9792,-2.9792,-2.9599,-2.9689,-2.9792,-2.9599,-2.9702,-2.9792,-2.9792,-3.0098,-3.0329,-3.0049,-3.0011,-2.9997,-3.0068,-2.9736,-2.9774,-3.1005,-3.1137,-3.1385,-3.224,-3.2562,-3.2649,-3.2649,-3.2649,-3.2736,-3.281,-3.2982,-3.3154,-3.3326,-3.3655,-3.4199,-3.4868,-3.5423,-3.5966,-3.6615,-3.6452,-3.6452,-3.6628,-3.6628,-3.6628,-3.6628,-3.6922,-3.7307,-3.7703,-3.7952,-3.8057,-3.79,-3.8057,-3.7979,-3.79,-3.79,-3.79,-3.79,-3.79,-3.79,-3.79,-3.8135,-3.8122,-3.8135,-1.9645,-1.9951,-2.0186,-1.9942,-2.0255,-2.0489,-2.0342,-2.0489,-2.0654,-2.0829,-2.1243,-2.165,-2.1829,-2.2473,-2.3074,-2.3743,-2.4219,-2.4594,-2.4861,-2.4861,-2.5115,-2.5559,-2.5559,-2.5644,-2.5895,-2.6074,-2.6157,-2.6157,-2.6479,-2.6644,-2.6891,-2.6891,-2.6985,-2.7231,-2.7231,-2.7231,-2.7231,-2.7731,-2.7788,-2.7603,-2.8007,-2.8179,-2.8259,-2.8431,-2.8657,-2.887,-2.9263,-2.9419,-2.9419,-2.9702,-2.9934,-3.0088,-2.9869,-2.9934,-3.0011,-2.9869,-2.9792,-2.9792,-2.9792,-2.9792,-2.9792,-2.9792,-2.9817,-2.9842,-2.9804,-3.0363,-3.0694,-3.0033,-2.9854,-3.0018,-3.057,-3.0061,-2.996,-3.1245,-3.1277,-3.1422,-3.2278,-3.2797,-3.3081,-3.3081,-3.3081,-3.3068,-3.3068,-3.3081,-3.3081,-3.3081,-3.3081,-3.3558,-3.4663,-3.5373,-3.602,-3.6439,-3.6358,-3.6358,-3.6358,-3.6358,-3.6358,-3.6452,-3.6922,-3.7413,-3.79,-3.79,-3.79,-3.79,-3.79,-3.79,-3.79,-3.79,-3.79,-3.79,-3.79,-3.79,-3.79,-3.8135,-3.8057,-3.79,-1.9794,-2.0108,-2.0186,-1.9942,-2.0177,-2.0342,-2.0342,-2.0342,-2.042,-2.0644,-2.1053,-2.1288,-2.1143,-2.1847,-2.239,-2.2582,-2.3485,-2.4178,-2.4605,-2.4786,-2.5031,-2.5285,-2.5464,-2.5644,-2.5895,-2.599,-2.5979,-2.5979,-2.6146,-2.6396,-2.6644,-2.6809,-2.6985,-2.7231,-2.7371,-2.7441,-2.7452,-2.78,-2.7881,-2.78,-2.8099,-2.8179,-2.8259,-2.8431,-2.8657,-2.8803,-2.9118,-2.9275,-2.9419,-2.9702,-2.9869,-2.9869,-2.9792,-2.9869,-2.9869,-2.9792,-2.9792,-2.9792,-2.9521,-2.9611,-2.9779,-2.9521,-2.9924,-3.0306,-3.0112,-3.0506,-3.0874,-3.0669,-3.0643,-3.0729,-3.111,-3.0935,-3.0904,-3.136,-3.1589,-3.1804,-3.198,-3.2462,-3.2723,-3.2562,-3.2723,-3.281,-3.281,-3.2982,-3.3081,-3.3081,-3.3081,-3.3558,-3.4663,-3.4839,-3.5445,-3.6332,-3.6193,-3.6193,-3.6358,-3.6193,-3.6275,-3.6628,-3.6922,-3.7307,-3.7598,-3.7808,-3.79,-3.79,-3.79,-3.7808,-3.7611,-3.7808,-3.7808,-3.7611,-3.7808,-3.79,-3.79,-3.7979,-3.79,-3.79,-1.9627,-1.9863,-2.002,-1.9794,-1.9951,-2.0108,-2.0108,-2.0186,-2.0342,-2.0411,-2.0731,-2.0886,-2.0741,-2.1338,-2.1805,-2.2017,-2.291,-2.368,-2.4209,-2.4398,-2.4651,-2.502,-2.5295,-2.5559,-2.5728,-2.5895,-2.6146,-2.6396,-2.6573,-2.6727,-2.6891,-2.6974,-2.7067,-2.7231,-2.7301,-2.7371,-2.7371,-2.7626,-2.7708,-2.7788,-2.8099,-2.8179,-2.8259,-2.8431,-2.8657,-2.8803,-2.9052,-2.9197,-2.9419,-2.9702,-2.9869,-2.9934,-2.9869,-2.9869,-2.9934,-2.9869,-2.9702,-2.9611,-2.9419,-2.9509,-2.9674,-2.9911,-3.0557,-3.1057,-3.0741,-3.1175,-3.1516,-3.1103,-3.0972,-3.1054,-3.1427,-3.0951,-3.079,-3.1357,-3.1282,-3.1332,-3.1829,-3.2237,-3.2511,-3.2711,-3.2822,-3.281,-3.2711,-3.281,-3.2896,-3.2896,-3.2896,-3.3471,-3.4663,-3.4726,-3.5228,-3.632,-3.6275,-3.6275,-3.6358,-3.6275,-3.6358,-3.6709,-3.7015,-3.7214,-3.7505,-3.7808,-3.79,-3.79,-3.79,-3.7703,-3.7505,-3.7703,-3.7611,-3.7505,-3.7505,-3.7703,-3.79,-3.7795,-3.7808,-3.7939,-1.939,-1.9627,-1.9794,-1.9645,-1.9794,-1.9863,-1.9863,-2.0108,-2.0342,-2.0342,-2.0489,-2.0644,-2.0566,-2.0964,-2.1366,-2.1748,-2.2281,-2.2961,-2.3743,-2.3857,-2.4106,-2.4724,-2.5051,-2.5273,-2.5535,-2.5946,-2.6396,-2.6809,-2.6985,-2.7149,-2.7149,-2.7149,-2.7231,-2.7231,-2.7231,-2.7231,-2.7231,-2.7452,-2.7522,-2.7522,-2.8007,-2.8179,-2.8259,-2.8431,-2.8578,-2.8803,-2.8961,-2.9197,-2.9341,-2.9624,-2.9779,-2.9921,-2.9779,-2.9779,-2.9921,-2.9702,-2.9521,-2.9341,-2.9419,-2.9431,-2.9646,-3.039,-3.117,-3.1643,-3.1468,-3.1991,-3.2268,-3.146,-3.129,-3.1369,-3.1662,-3.1008,-3.0663,-3.1417,-3.1112,-3.1016,-3.1695,-3.2122,-3.2444,-3.2932,-3.2995,-3.2896,-3.2723,-3.2636,-3.2636,-3.2636,-3.2636,-3.3195,-3.4573,-3.4635,-3.5228,-3.632,-3.6358,-3.637,-3.637,-3.6358,-3.6546,-3.6709,-3.7015,-3.7307,-3.7611,-3.7808,-3.79,-3.79,-3.79,-3.7703,-3.7413,-3.7413,-3.7413,-3.74,-3.7214,-3.7464,-3.7938,-3.7727,-3.7885,-3.8227,-1.9557,-1.9636,-1.9645,-1.9645,-1.9794,-1.9863,-1.9863,-2.0108,-2.0342,-2.0489,-2.0731,-2.0819,-2.0644,-2.0819,-2.1013,-2.1306,-2.1376,-2.1995,-2.3236,-2.3612,-2.3886,-2.3949,-2.474,-2.5202,-2.5284,-2.5688,-2.6074,-2.6313,-2.6561,-2.6809,-2.6974,-2.7149,-2.7231,-2.7231,-2.7231,-2.7231,-2.7231,-2.7452,-2.7522,-2.7522,-2.8007,-2.8179,-2.8259,-2.8431,-2.851,-2.8578,-2.8803,-2.8882,-2.8961,-2.9131,-2.9209,-2.9287,-2.9209,-2.9209,-2.9209,-2.904,-2.8961,-2.904,-2.9611,-2.9702,-2.9839,-3.0482,-3.1009,-3.1468,-3.1386,-3.1813,-3.219,-3.2018,-3.2006,-3.2181,-3.2757,-3.2719,-3.2421,-3.1953,-3.2322,-3.2409,-3.1686,-3.2203,-3.2624,-3.255,-3.2487,-3.2475,-3.2475,-3.2475,-3.2475,-3.2475,-3.2475,-3.3044,-3.4404,-3.4466,-3.5057,-3.6332,-3.6193,-3.6098,-3.6098,-3.6275,-3.664,-3.7015,-3.7108,-3.732,-3.7808,-3.79,-3.79,-3.79,-3.7703,-3.7413,-3.7201,-3.7201,-3.7015,-3.6815,-3.7015,-3.7603,-3.8324,-3.8311,-3.873,-3.9364,-1.939,-1.9469,-1.9469,-1.9469,-1.9548,-1.9539,-1.9539,-1.9863,-2.0108,-2.0177,-2.0489,-2.0731,-2.0644,-2.0819,-2.0906,-2.1061,-2.1205,-2.1608,-2.2261,-2.2835,-2.3244,-2.3496,-2.4335,-2.5038,-2.5557,-2.587,-2.6074,-2.624,-2.6479,-2.6727,-2.6891,-2.6974,-2.7067,-2.7231,-2.7231,-2.7231,-2.7231,-2.7301,-2.7371,-2.7371,-2.7684,-2.7938,-2.803,-2.8259,-2.8498,-2.8657,-2.8803,-2.8882,-2.8961,-2.9052,-2.9131,-2.9131,-2.9131,-2.9131,-2.9052,-2.8961,-2.8882,-2.8882,-2.9209,-2.951,-3.0027,-3.0667,-3.1285,-3.176,-3.2227,-3.2503,-3.2679,-3.2496,-3.2496,-3.2498,-3.2686,-3.25,-3.2116,-3.1771,-3.1794,-3.1782,-3.1552,-3.1859,-3.213,-3.2363,-3.24,-3.24,-3.24,-3.24,-3.24,-3.24,-3.2475,-3.3032,-3.4144,-3.4466,-3.5057,-3.6156,-3.6193,-3.6181,-3.6181,-3.637,-3.6546,-3.6734,-3.6815,-3.7108,-3.7505,-3.7505,-3.7505,-3.7716,-3.7735,-3.757,-3.7406,-3.7712,-3.7731,-3.7635,-3.7622,-3.8089,-3.8799,-3.8704,-3.9064,-3.9651,-1.9231,-1.9301,-1.9301,-1.9301,-1.9301,-1.939,-1.939,-1.9706,-1.9863,-1.9863,-2.0255,-2.0489,-2.0489,-2.0731,-2.0896,-2.0984,-2.1282,-2.1512,-2.1578,-2.2061,-2.2542,-2.3088,-2.4027,-2.497,-2.5801,-2.599,-2.6157,-2.6313,-2.6479,-2.6644,-2.6974,-2.6891,-2.6985,-2.7231,-2.7231,-2.7231,-2.7231,-2.7219,-2.7301,-2.7301,-2.7534,-2.7777,-2.7962,-2.8099,-2.8407,-2.8724,-2.8724,-2.8803,-2.8973,-2.8973,-2.8973,-2.8973,-2.8973,-2.8973,-2.8973,-2.8973,-2.8816,-2.8724,-2.8803,-2.9352,-3.0065,-3.0865,-3.1493,-3.2125,-3.2943,-3.3081,-3.3068,-3.281,-3.281,-3.2723,-3.2475,-3.213,-3.1761,-3.1663,-3.1332,-3.1294,-3.1602,-3.1663,-3.1908,-3.2339,-3.24,-3.24,-3.24,-3.24,-3.24,-3.24,-3.2562,-3.3032,-3.404,-3.4454,-3.5057,-3.6061,-3.6275,-3.6358,-3.6358,-3.6358,-3.6452,-3.6452,-3.6628,-3.6892,-3.73,-3.73,-3.7471,-3.7839,-3.7967,-3.7967,-3.7813,-3.8146,-3.8323,-3.831,-3.8114,-3.8583,-3.9298,-3.909,-3.9375,-3.9959,-1.9002,-1.9152,-1.9301,-1.9301,-1.9469,-1.9566,-1.9566,-1.9794,-1.9863,-1.9863,-2.0177,-2.0342,-2.0342,-2.0489,-2.0809,-2.1128,-2.1205,-2.1359,-2.1731,-2.1838,-2.2133,-2.2835,-2.41,-2.5053,-2.5633,-2.5812,-2.6146,-2.6561,-2.6313,-2.6561,-2.7149,-2.6974,-2.6985,-2.7231,-2.7231,-2.7231,-2.7231,-2.7371,-2.7522,-2.7522,-2.7788,-2.795,-2.8179,-2.8179,-2.8339,-2.851,-2.851,-2.851,-2.851,-2.851,-2.851,-2.851,-2.851,-2.851,-2.851,-2.851,-2.851,-2.8578,-2.8724,-2.9352,-3.0065,-3.0865,-3.1493,-3.2125,-3.2943,-3.3081,-3.3068,-3.3068,-3.3068,-3.2982,-3.2723,-3.2686,-3.2488,-3.2052,-3.2127,-3.2202,-3.1965,-3.2152,-3.2351,-3.2388,-3.24,-3.24,-3.24,-3.24,-3.24,-3.24,-3.2388,-3.2956,-3.4326,-3.4375,-3.5057,-3.6332,-3.6358,-3.6358,-3.6358,-3.6358,-3.6452,-3.6722,-3.6722,-3.7082,-3.7795,-3.7795,-3.8185,-3.871,-3.8443,-3.8358,-3.8358,-3.8101,-3.8015,-3.8002,-3.831,-3.8936,-3.9706,-3.9594,-4.0114,-4.0767,-1.9002,-1.9073,-1.9073,-1.9073,-1.9311,-1.939,-1.939,-1.9706,-1.9863,-1.9863,-2.0255,-2.0498,-2.0498,-2.0566,-2.0644,-2.0799,-2.0974,-2.1138,-2.1436,-2.1502,-2.2139,-2.343,-2.3951,-2.4658,-2.5801,-2.5822,-2.599,-2.6146,-2.6063,-2.6313,-2.6809,-2.6727,-2.6891,-2.7231,-2.7231,-2.7231,-2.7231,-2.7301,-2.7301,-2.7301,-2.7383,-2.7626,-2.7765,-2.795,-2.8111,-2.8339,-2.8431,-2.851,-2.851,-2.851,-2.851,-2.851,-2.851,-2.8566,-2.8819,-2.9141,-2.9319,-2.9484,-2.9567,-2.9864,-3.0391,-3.1218,-3.193,-3.2548,-3.3031,-3.2982,-3.281,-3.281,-3.2736,-3.2649,-3.2562,-3.2475,-3.2388,-3.2038,-3.2213,-3.23,-3.2038,-3.2213,-3.24,-3.24,-3.24,-3.2475,-3.255,-3.2475,-3.2475,-3.255,-3.255,-3.3032,-3.4131,-3.4929,-3.5662,-3.6345,-3.6358,-3.6358,-3.6358,-3.6358,-3.6452,-3.6546,-3.6887,-3.726,-3.768,-3.7927,-3.8206,-3.8545,-3.8703,-3.8755,-3.878,-3.8919,-3.9057,-3.9044,-3.9158,-3.9487,-3.9969,-3.9969,-4.021,-4.0593,-1.8763,-1.8843,-1.8922,-1.8922,-1.9073,-1.9222,-1.9222,-1.946,-1.9696,-1.9696,-2.0098,-2.0411,-2.0411,-2.0489,-2.0644,-2.0654,-2.0896,-2.1061,-2.1282,-2.1502,-2.2149,-2.3472,-2.3849,-2.447,-2.5561,-2.5819,-2.5895,-2.599,-2.5895,-2.6146,-2.6644,-2.6479,-2.6644,-2.6974,-2.7067,-2.7149,-2.7149,-2.7149,-2.7231,-2.7231,-2.7231,-2.7301,-2.7522,-2.78,-2.803,-2.8259,-2.8431,-2.851,-2.851,-2.851,-2.8619,-2.8751,-2.8751,-2.8961,-2.9368,-2.9641,-2.9917,-3.0122,-3.029,-3.0495,-3.0821,-3.1296,-3.197,-3.255,-3.2822,-3.2736,-3.2636,-3.2636,-3.2475,-3.2388,-3.23,-3.23,-3.2213,-3.2038,-3.2125,-3.23,-3.2201,-3.2388,-3.2562,-3.2649,-3.2649,-3.2649,-3.281,-3.2885,-3.2897,-3.3071,-3.3221,-3.3643,-3.4391,-3.5506,-3.6181,-3.6358,-3.6358,-3.6358,-3.6358,-3.6358,-3.6445,-3.6621,-3.6998,-3.7472,-3.8032,-3.8202,-3.8479,-3.8767,-3.9058,-3.9132,-3.9157,-3.9534,-3.9697,-3.9697,-3.9788,-3.9981,-4.007,-4.007,-4.0185,-4.0389,-1.8442,-1.8531,-1.87,-1.87,-1.8851,-1.9002,-1.9002,-1.9152,-1.9301,-1.9301,-1.9618,-1.9863,-1.9942,-2.0333,-2.0654,-2.0906,-2.1061,-2.1282,-2.1502,-2.1655,-2.2091,-2.2783,-2.3907,-2.457,-2.4816,-2.555,-2.5979,-2.624,-2.5979,-2.6146,-2.655,-2.6313,-2.6313,-2.6644,-2.6809,-2.6891,-2.6891,-2.7149,-2.7231,-2.7231,-2.7231,-2.7301,-2.7522,-2.7788,-2.803,-2.8259,-2.8431,-2.851,-2.851,-2.8522,-2.8871,-2.9304,-2.9316,-2.9665,-3.0013,-2.976,-2.9929,-3.0218,-3.0735,-3.1039,-3.1199,-3.1199,-3.1624,-3.2038,-3.23,-3.24,-3.24,-3.24,-3.24,-3.23,-3.2038,-3.2038,-3.2038,-3.2038,-3.2038,-3.2213,-3.2624,-3.2711,-3.2797,-3.3068,-3.3081,-3.3081,-3.3081,-3.3583,-3.3897,-3.3909,-3.4412,-3.4964,-3.5516,-3.6056,-3.6358,-3.6358,-3.6358,-3.6358,-3.637,-3.6358,-3.6634,-3.7186,-3.7186,-3.7776,-3.8868,-3.8881,-3.9182,-3.9697,-3.9697,-3.9697,-3.9697,-3.9697,-3.9697,-3.9697,-3.9981,-4.007,-4.007,-4.007,-4.007,-4.007,-1.8362,-1.8442,-1.8531,-1.87,-1.8851,-1.9082,-1.9222,-1.939,-1.9557,-1.9706,-2.0029,-2.0255,-2.0411,-2.0489,-2.0644,-2.0654,-2.0722,-2.0886,-2.1282,-2.1886,-2.2424,-2.2804,-2.3599,-2.447,-2.5322,-2.5746,-2.5895,-2.599,-2.5895,-2.6146,-2.6644,-2.6561,-2.6644,-2.6974,-2.6985,-2.6891,-2.6891,-2.6974,-2.6974,-2.6974,-2.7149,-2.7219,-2.7301,-2.7534,-2.7777,-2.8009,-2.8432,-2.8644,-2.8867,-2.9249,-2.9475,-2.9582,-2.9877,-3.0274,-3.0625,-3.0572,-3.0942,-3.1228,-3.1384,-3.152,-3.1595,-3.1956,-3.2253,-3.255,-3.255,-3.2475,-3.2313,-3.2125,-3.2038,-3.1849,-3.1761,-3.1761,-3.1849,-3.195,-3.2125,-3.2388,-3.2636,-3.2896,-3.2982,-3.3081,-3.3081,-3.3232,-3.3621,-3.362,-3.387,-3.4449,-3.4989,-3.5366,-3.5449,-3.6056,-3.6358,-3.6358,-3.6358,-3.6546,-3.6935,-3.6558,-3.6634,-3.7186,-3.7575,-3.8153,-3.8881,-3.927,-3.9534,-3.9697,-3.9697,-3.9581,-3.9374,-3.9374,-3.9374,-3.9478,-3.9465,-3.9672,-3.9788,-3.9788,-3.9788,-3.9788,-1.8201,-1.8362,-1.8442,-1.8531,-1.8843,-1.9073,-1.9152,-1.9311,-1.9548,-1.9627,-1.9942,-2.0186,-2.0333,-2.0489,-2.0566,-2.0566,-2.0654,-2.0896,-2.1205,-2.1931,-2.2505,-2.2839,-2.3598,-2.4349,-2.5258,-2.563,-2.5812,-2.5895,-2.5895,-2.6074,-2.6313,-2.6313,-2.6479,-2.6727,-2.6727,-2.6809,-2.6809,-2.6974,-2.6974,-2.7056,-2.7149,-2.7231,-2.7231,-2.7545,-2.7836,-2.8152,-2.8692,-2.9012,-2.9237,-2.9726,-2.9964,-3.0067,-3.0326,-3.0667,-3.1077,-3.0979,-3.133,-3.1661,-3.1661,-3.1661,-3.1761,-3.2125,-3.2288,-3.2363,-3.2376,-3.2288,-3.2125,-3.2038,-3.1849,-3.1661,-3.1661,-3.1661,-3.1761,-3.2125,-3.23,-3.2475,-3.281,-3.2995,-3.3156,-3.337,-3.3407,-3.3621,-3.4173,-3.4245,-3.4595,-3.5328,-3.568,-3.5868,-3.5868,-3.6182,-3.6358,-3.6358,-3.6358,-3.6621,-3.7174,-3.686,-3.7086,-3.7864,-3.8191,-3.8642,-3.9207,-3.9546,-3.9697,-3.9685,-3.9581,-3.9478,-3.9258,-3.9258,-3.9258,-3.9258,-3.9374,-3.9581,-3.9697,-3.9697,-3.9697,-3.9697,-1.804,-1.8201,-1.8362,-1.8442,-1.8763,-1.9002,-1.9002,-1.9152,-1.9301,-1.9301,-1.9627,-1.9863,-1.9863,-2.0333,-2.0566,-2.0566,-2.0741,-2.1003,-2.1188,-2.1845,-2.2451,-2.291,-2.3763,-2.4418,-2.4798,-2.5333,-2.5728,-2.5895,-2.5895,-2.5895,-2.5895,-2.5895,-2.5895,-2.5979,-2.6396,-2.6561,-2.6561,-2.6985,-2.7149,-2.7149,-2.7149,-2.7254,-2.73,-2.7708,-2.8117,-2.8477,-2.9094,-2.9499,-2.982,-3.0133,-3.0372,-3.0589,-3.0606,-3.0937,-3.1217,-3.1062,-3.133,-3.1661,-3.1661,-3.1661,-3.1761,-3.1937,-3.1849,-3.1749,-3.195,-3.1849,-3.1761,-3.1937,-3.1849,-3.1661,-3.1661,-3.1661,-3.1849,-3.23,-3.24,-3.2587,-3.3057,-3.3156,-3.3357,-3.3909,-3.3972,-3.4186,-3.4738,-3.529,-3.583,-3.632,-3.6358,-3.6358,-3.6358,-3.6358,-3.6358,-3.6358,-3.6408,-3.6697,-3.7249,-3.7312,-3.7852,-3.8868,-3.8868,-3.9157,-3.9697,-3.9697,-3.9697,-3.9697,-3.9478,-3.927,-3.9258,-3.927,-3.9258,-3.9362,-3.9581,-3.9697,-3.9697,-3.9697,-3.9722,-3.9772,-1.804,-1.804,-1.8201,-1.8531,-1.87,-1.8851,-1.9152,-1.9301,-1.9381,-1.9478,-1.9636,-1.9715,-1.9863,-2.0177,-2.0342,-2.0342,-2.0664,-2.1045,-2.1382,-2.2221,-2.292,-2.3359,-2.4231,-2.4883,-2.5125,-2.5411,-2.5728,-2.5895,-2.5895,-2.599,-2.6146,-2.6146,-2.6229,-2.6479,-2.6324,-2.6313,-2.6313,-2.6644,-2.6727,-2.6727,-2.7056,-2.7461,-2.7816,-2.79,-2.8463,-2.9195,-2.9605,-3.0001,-3.0426,-3.0678,-3.0968,-3.1063,-3.0722,-3.0937,-3.1217,-3.1062,-3.133,-3.1661,-3.1661,-3.1661,-3.1761,-3.1937,-3.195,-3.195,-3.195,-3.2125,-3.2125,-3.1849,-3.1749,-3.1661,-3.1661,-3.1661,-3.1849,-3.23,-3.24,-3.271,-3.3571,-3.3721,-3.3922,-3.4474,-3.455,-3.4763,-3.5316,-3.5868,-3.6232,-3.6358,-3.6358,-3.6358,-3.6358,-3.6358,-3.6358,-3.6358,-3.6784,-3.7274,-3.7826,-3.8278,-3.863,-3.8868,-3.8868,-3.9157,-3.9697,-3.9697,-3.9594,-3.9374,-3.9581,-3.9374,-3.8945,-3.9154,-3.9258,-3.927,-3.9362,-3.9478,-3.9697,-3.9697,-3.9973,-4.0337,-1.804,-1.8121,-1.8282,-1.8531,-1.8612,-1.8772,-1.9073,-1.9152,-1.9231,-1.939,-1.9557,-1.9636,-1.9715,-1.9951,-2.0186,-2.0264,-2.0586,-2.0918,-2.1361,-2.221,-2.2899,-2.3335,-2.4206,-2.4786,-2.5031,-2.5211,-2.5464,-2.5895,-2.5895,-2.5979,-2.6074,-2.6074,-2.6146,-2.6229,-2.6229,-2.624,-2.624,-2.6479,-2.6644,-2.6667,-2.7141,-2.7558,-2.782,-2.8326,-2.89,-2.9462,-2.9829,-3.0338,-3.0937,-3.1045,-3.1139,-3.105,-3.0758,-3.0859,-3.1139,-3.1062,-3.133,-3.1661,-3.1661,-3.1661,-3.1749,-3.1849,-3.195,-3.2038,-3.2288,-3.23,-3.2213,-3.2038,-3.1849,-3.1661,-3.1661,-3.1661,-3.1934,-3.2467,-3.2592,-3.2953,-3.3943,-3.4107,-3.4307,-3.4961,-3.5115,-3.5328,-3.5881,-3.6194,-3.6358,-3.6358,-3.6358,-3.6358,-3.6358,-3.6358,-3.6483,-3.6747,-3.7036,-3.7588,-3.8417,-3.8718,-3.9007,-3.927,-3.927,-3.9421,-3.9697,-3.9581,-3.9478,-3.9478,-3.9374,-3.9154,-3.905,-3.927,-3.9258,-3.9258,-3.9478,-3.9581,-3.9697,-3.9697,-3.9873,-4.0124,-1.804,-1.8201,-1.8362,-1.8353,-1.8612,-1.8772,-1.9002,-1.9002,-1.9073,-1.9301,-1.9469,-1.9557,-1.9557,-1.9715,-1.9942,-2.0186,-2.0479,-2.0869,-2.1228,-2.2168,-2.2855,-2.3287,-2.4088,-2.4625,-2.4946,-2.4946,-2.52,-2.5812,-2.5822,-2.5812,-2.5812,-2.5895,-2.5895,-2.5906,-2.6063,-2.6146,-2.6157,-2.6396,-2.6561,-2.6689,-2.7329,-2.7651,-2.7872,-2.8729,-2.9346,-2.9708,-3.015,-3.0685,-3.1217,-3.1217,-3.1139,-3.0972,-3.0769,-3.0871,-3.1062,-3.1062,-3.1318,-3.1661,-3.1661,-3.1661,-3.1749,-3.1749,-3.1849,-3.2113,-3.255,-3.2288,-3.2038,-3.2213,-3.1937,-3.1661,-3.1661,-3.1661,-3.193,-3.2653,-3.2828,-3.3228,-3.4309,-3.4487,-3.479,-3.5524,-3.568,-3.5868,-3.632,-3.6358,-3.6358,-3.6358,-3.6358,-3.6358,-3.6358,-3.6458,-3.6709,-3.7174,-3.7374,-3.7927,-3.8856,-3.8956,-3.9245,-3.9697,-3.9697,-3.9697,-3.9697,-3.9478,-3.9478,-3.9594,-3.9166,-3.905,-3.9258,-3.9362,-3.9374,-3.9374,-3.9594,-3.9697,-3.9697,-3.9798,-3.9772,-3.971,-1.804,-1.804,-1.8121,-1.8362,-1.8612,-1.8772,-1.9002,-1.9152,-1.9301,-1.9301,-1.9301,-1.9301,-1.9301,-1.9557,-1.9715,-1.9942,-2.0512,-2.1057,-2.1501,-2.2355,-2.3138,-2.373,-2.4251,-2.47,-2.5115,-2.52,-2.52,-2.5285,-2.5559,-2.5644,-2.5644,-2.5812,-2.5895,-2.5895,-2.5895,-2.5895,-2.5979,-2.6146,-2.6396,-2.6689,-2.7329,-2.7952,-2.8654,-2.9194,-2.9877,-3.0473,-3.0563,-3.0711,-3.1062,-3.1062,-3.0984,-3.0972,-3.0972,-3.105,-3.1217,-3.1217,-3.1484,-3.1661,-3.1661,-3.1661,-3.1749,-3.195,-3.1937,-3.2038,-3.2388,-3.2213,-3.195,-3.1837,-3.1749,-3.1661,-3.1661,-3.1661,-3.193,-3.2653,-3.2828,-3.3362,-3.4842,-3.5084,-3.5376,-3.6182,-3.6257,-3.6282,-3.6358,-3.6358,-3.6358,-3.6358,-3.6358,-3.6358,-3.6358,-3.681,-3.7111,-3.7186,-3.8128,-3.8718,-3.8868,-3.9346,-3.9622,-3.9697,-3.9697,-3.9697,-3.9697,-3.9697,-3.9581,-3.9362,-3.9478,-3.9478,-3.9374,-3.9581,-3.9697,-3.9697,-3.9697,-3.9697,-3.9747,-4.0224,-4.0111,-3.976,-1.787,-1.7951,-1.804,-1.8201,-1.8282,-1.8451,-1.8772,-1.8922,-1.9082,-1.9301,-1.9301,-1.9301,-1.9301,-1.9478,-1.9729,-2.0033,-2.0462,-2.1087,-2.1851,-2.2487,-2.3133,-2.3734,-2.4272,-2.4625,-2.4786,-2.4946,-2.5031,-2.5031,-2.538,-2.5644,-2.5738,-2.5822,-2.5895,-2.5895,-2.5895,-2.5895,-2.5917,-2.6444,-2.6723,-2.6959,-2.8064,-2.868,-2.9018,-2.9621,-3.0122,-3.0397,-3.0578,-3.0679,-3.0781,-3.0972,-3.0984,-3.0984,-3.0984,-3.1139,-3.1306,-3.1306,-3.1484,-3.1661,-3.1661,-3.1661,-3.1749,-3.1849,-3.1849,-3.1849,-3.1937,-3.1937,-3.1849,-3.1849,-3.1761,-3.1661,-3.1661,-3.2067,-3.2454,-3.3022,-3.3533,-3.4274,-3.5248,-3.5561,-3.5824,-3.6332,-3.6358,-3.6358,-3.6358,-3.6358,-3.6358,-3.6358,-3.6646,-3.6822,-3.6822,-3.7349,-3.7789,-3.8115,-3.8605,-3.9019,-3.932,-3.9572,-3.9697,-3.9697,-3.9697,-3.9697,-3.9685,-3.9581,-3.9478,-3.9478,-3.9478,-3.9478,-3.9478,-3.9697,-3.9697,-3.9697,-3.9697,-3.9697,-3.9722,-3.9973,-4.0002,-3.9916]},{"header":{"parameterUnit":"m.s-1","parameterCategory":1,"la1":30.6,"la2":28.766,"lo1":-90.7593,"lo2":-88.6598,"dy":0.0162,"dx":0.0183,"nx":116,"ny":114,"refTime":"2024-02-26T18:00:00:Z","depth":0,"parameterNumber":3,"parameterNumberName":"V-component_of_WINDS"},"data":[0.0,0.0,0.0,0.0,0.0,0.0,0.0,0.0,0.0,0.0,0.0,0.0,0.0,0.0,0.0,0.0,0.0,0.0,0.0,0.0,0.0,0.0,0.0,0.0,0.0,0.0,0.0,0.0,0.0,0.0,0.0,0.0,0.0,0.0,0.0,0.0,0.0,0.0,0.0,0.0,0.0,0.0,0.0,0.0,0.0,0.0,0.0,0.0,0.0,0.0,0.0,0.0,0.0,0.0,0.0,0.0,0.0,0.0,0.0,0.0,0.0,0.0,0.0,0.0,0.0,0.0,0.0,0.0,0.0,0.0,0.0,0.0,0.0,0.0,0.0,0.0,0.0,0.0,0.0,0.0,0.0,0.0,0.0,0.0,0.0,0.0,0.0,0.0,0.0,0.0,0.0,0.0,0.0,0.0,0.0,0.0,0.0,0.0,0.0,0.0,0.0,0.0,0.0,0.0,0.0,0.0,0.0,0.0,0.0,0.0,0.0,0.0,0.0,0.0,0.0,0.0,0.0,0.0,0.0,0.0,0.0,0.0,0.0,0.0,0.0,0.0,0.0,0.0,0.0,0.0,0.0,0.0,0.0,0.0,0.0,0.0,0.0,0.0,0.0,0.0,0.0,0.0,0.0,0.0,0.0,0.0,0.0,0.0,0.0,0.0,0.0,0.0,0.0,0.0,0.0,0.0,0.0,0.0,0.0,0.0,0.0,0.0,0.0,0.0,0.0,0.0,0.0,0.0,0.0,0.0,0.0,0.0,0.0,0.0,0.0,0.0,0.0,0.0,0.0,0.0,0.0,0.0,0.0,0.0,0.0,0.0,0.0,0.0,0.0,0.0,0.0,0.0,0.0,0.0,0.0,0.0,0.0,0.0,0.0,0.0,0.0,0.0,0.0,0.0,0.0,0.0,0.0,0.0,0.0,0.0,0.0,0.0,0.0,0.0,0.0,0.0,0.0,0.0,0.0,0.0,0.0,0.0,0.0,0.0,0.0,0.0,0.0,0.0,0.0,0.0,0.0,0.0,0.0,0.0,0.0,0.0,0.0,0.0,0.0,0.0,0.0,0.0,0.0,0.0,0.0,0.0,0.0,0.0,0.0,0.0,0.0,0.0,0.0,0.0,0.0,0.0,0.0,0.0,0.0,0.0,0.0,0.0,0.0,0.0,0.0,0.0,0.0,0.0,0.0,0.0,0.0,0.0,0.0,0.0,0.0,0.0,0.0,0.0,0.0,0.0,0.0,0.0,0.0,0.0,0.0,0.0,0.0,0.0,0.0,0.0,0.0,0.0,0.0,0.0,0.0,0.0,0.0,0.0,0.0,0.0,0.0,0.0,0.0,0.0,0.0,0.0,0.0,0.0,0.0,0.0,0.0,0.0,0.0,0.0,0.0,0.0,0.0,0.0,0.0,0.0,0.0,0.0,0.0,0.0,0.0,0.0,0.0,0.0,0.0,0.0,0.0,0.0,0.0,0.0,0.0,0.0,0.0,0.0,0.0,0.0,0.0,0.0,0.0,0.0,0.0,0.0,0.0,0.0,0.0,0.0,0.0,0.0,0.0,0.0,0.0,0.0,0.0,0.0,0.0,0.0,0.0,0.0,0.0,0.0,0.0,0.0,0.0,0.0,0.0,0.0,0.0,0.0,0.0,0.0,0.0,0.0,0.0,0.0,0.0,0.0,0.0,0.0,0.0,0.0,0.0,0.0,0.0,0.0,0.0,0.0,0.0,0.0,0.0,0.0,0.0,0.0,0.0,0.0,0.0,0.0,0.0,0.0,0.0,0.0,0.0,0.0,0.0,0.0,0.0,0.0,0.0,0.0,0.0,0.0,0.0,0.0,0.0,0.0,0.0,0.0,0.0,0.0,0.0,0.0,0.0,0.0,0.0,0.0,0.0,0.0,0.0,0.0,0.0,0.0,0.0,0.0,0.0,0.0,0.0,0.0,0.0,0.0,0.0,0.0,0.0,0.0,0.0,0.0,0.0,0.0,0.0,0.0,0.0,0.0,0.0,0.0,0.0,0.0,0.0,0.0,0.0,0.0,0.0,0.0,0.0,0.0,0.0,0.0,0.0,0.0,0.0,0.0,0.0,0.0,0.0,0.0,0.0,0.0,0.0,0.0,0.0,0.0,0.0,0.0,0.0,0.0,0.0,0.0,0.0,0.0,0.0,0.0,0.0,0.0,0.0,0.0,0.0,0.0,0.0,0.0,0.0,0.0,0.0,0.0,0.0,0.0,0.0,0.0,0.0,0.0,0.0,0.0,0.0,0.0,0.0,0.0,0.0,0.0,0.0,0.0,0.0,0.0,0.0,0.0,0.0,0.0,0.0,0.0,0.0,0.0,0.0,0.0,0.0,0.0,0.0,0.0,0.0,0.0,0.0,0.0,0.0,0.0,0.0,0.0,0.0,0.0,0.0,0.0,0.0,0.0,0.0,0.0,0.0,0.0,0.0,0.0,0.0,0.0,0.0,0.0,0.0,0.0,0.0,0.0,0.0,0.0,0.0,0.0,0.0,0.0,0.0,0.0,0.0,0.0,0.0,0.0,0.0,0.0,0.0,0.0,0.0,0.0,0.0,0.0,0.0,0.0,0.0,0.0,0.0,0.0,0.0,0.0,0.0,0.0,0.0,0.0,0.0,0.0,0.0,0.0,0.0,0.0,0.0,0.0,0.0,0.0,0.0,0.0,0.0,0.0,0.0,0.0,0.0,0.0,0.0,0.0,0.0,0.0,0.0,0.0,0.0,0.0,0.0,0.0,0.0,0.0,0.0,0.0,0.0,0.0,0.0,0.0,0.0,0.0,0.0,0.0,0.0,0.0,0.0,0.0,0.0,0.0,0.0,0.0,0.0,0.0,0.0,0.0,0.0,0.0,0.0,0.0,0.0,0.0,0.0,0.0,0.0,0.0,0.0,0.0,0.0,0.0,0.0,0.0,0.0,0.0,0.0,0.0,0.0,0.0,0.0,0.0,0.0,0.0,0.0,0.0,0.0,0.0,0.0,0.0,0.0,0.0,0.0,0.0,0.0,0.0,0.0,0.0,0.0,0.0,0.0,0.0,0.0,0.0,0.0,0.0,0.0,0.0,0.0,0.0,0.0,0.0,0.0,0.0,0.0,0.0,0.0,0.0,0.0,0.0,0.0,0.0,0.0,0.0,0.0,0.0,0.0,0.0,0.0,0.0,0.0,0.0,0.0,0.0,0.0,0.0,0.0,0.0,0.0,0.0,0.0,0.0,0.0,0.0,0.0,0.0,0.0,0.0,0.0,0.0,0.0,0.0,0.0,0.0,0.0,0.0,0.0,0.0,0.0,0.0,0.0,0.0,0.0,0.0,0.0,0.0,0.0,0.0,0.0,0.0,0.0,0.0,0.0,0.0,0.0,0.0,0.0,0.0,0.0,0.0,0.0,0.0,0.0,0.0,0.0,0.0,0.0,0.0,0.0,0.0,0.0,0.0,0.0,0.0,0.0,0.0,0.0,0.0,0.0,0.0,0.0,0.0,0.0,0.0,0.0,0.0,0.0,0.0,0.0,0.0,0.0,0.0,0.0,0.0,0.0,0.0,0.0,0.0,0.0,0.0,0.0,0.0,0.0,0.0,0.0,0.0,0.0,0.0,0.0,0.0,0.0,0.0,0.0,0.0,0.0,0.0,0.0,0.0,0.0,0.0,0.0,0.0,0.0,0.0,0.0,0.0,0.0,0.0,0.0,0.0,0.0,0.0,0.0,0.0,0.0,0.0,0.0,0.0,0.0,0.0,0.0,0.0,0.0,0.0,0.0,0.0,0.0,0.0,0.0,0.0,0.0,0.0,0.0,0.0,0.0,0.0,0.0,0.0,0.0,0.0,0.0,0.0,0.0,0.0,0.0,0.0,0.0,0.0,0.0,0.0,0.0,0.0,0.0,0.0,0.0,0.0,0.0,0.0,0.0,0.0,0.0,0.0,0.0,0.0,0.0,0.0,0.0,0.0,0.0,0.0,0.0,0.0,0.0,0.0,0.0,0.0,0.0,0.0,0.0,0.0,0.0,0.0,0.0,0.0,0.0,0.0,0.0,0.0,0.0,0.0,0.0,0.0,0.0,0.0,0.0,0.0,0.0,0.0,0.0,0.0,0.0,0.0,0.0,0.0,0.0,0.0,0.0,0.0,0.0,0.0,0.0,0.0,0.0,0.0,0.0,0.0,0.0,0.0,0.0,0.0,0.0,0.0,0.0,0.0,0.0,0.0,0.0,0.0,0.0,0.0,0.0,0.0,0.0,0.0,0.0,0.0,0.0,0.0,0.0,0.0,0.0,0.0,0.0,0.0,0.0,0.0,0.0,0.0,0.0,0.0,0.0,0.0,0.0,0.0,0.0,0.0,0.0,0.0,0.0,0.0,0.0,0.0,0.0,0.0,0.0,0.0,0.0,0.0,0.0,0.0,0.0,0.0,0.0,0.0,0.0,0.0,0.0,0.0,0.0,0.0,0.0,0.0,0.0,0.0,0.0,0.0,0.0,0.0,0.0,0.0,0.0,0.0,0.0,0.0,0.0,0.0,0.0,0.0,0.0,0.0,0.0,0.0,0.0,0.0,0.0,0.0,0.0,0.0,0.0,0.0,0.0,0.0,0.0,0.0,0.0,0.0,0.0,0.0,0.0,0.0,0.0,0.0,0.0,0.0,0.0,0.0,0.0,0.0,0.0,0.0,0.0,0.0,0.0,0.0,0.0,0.0,0.0,0.0,0.0,0.0,0.0,0.0,0.0,0.0,0.0,0.0,0.0,0.0,0.0,0.0,0.0,0.0,0.0,0.0,0.0,0.0,0.0,0.0,0.0,0.0,0.0,0.0,0.0,0.0,0.0,0.0,0.0,0.0,0.0,0.0,0.0,0.0,0.0,0.0,0.0,0.0,0.0,0.0,0.0,0.0,0.0,0.0,0.0,0.0,0.0,0.0,0.0,0.0,0.0,0.0,0.0,0.0,0.0,0.0,0.0,0.0,0.0,0.0,0.0,0.0,0.0,0.0,0.0,0.0,0.0,0.0,0.0,0.0,0.0,0.0,0.0,0.0,0.0,0.0,0.0,0.0,0.0,0.0,0.0,0.0,0.0,0.0,0.0,0.0,0.0,0.0,0.0,0.0,0.0,0.0,0.0,0.0,0.0,0.0,0.0,0.0,0.0,0.0,0.0,0.0,0.0,0.0,0.0,0.0,0.0,0.0,0.0,0.0,0.0,0.0,0.0,0.0,0.0,0.0,0.0,0.0,0.0,0.0,0.0,0.0,0.0,0.0,0.0,0.0,0.0,0.0,0.0,0.0,0.0,0.0,0.0,0.0,0.0,0.0,0.0,0.0,0.0,0.0,0.0,0.0,0.0,0.0,0.0,0.0,0.0,0.0,0.0,0.0,0.0,0.0,0.0,0.0,0.0,0.0,0.0,0.0,0.0,0.0,0.0,0.0,0.0,0.0,0.0,0.0,0.0,0.0,0.0,0.0,0.0,0.0,0.0,0.0,0.0,0.0,0.0,0.0,0.0,0.0,0.0,0.0,0.0,0.0,0.0,0.0,0.0,0.0,0.0,0.0,0.0,0.0,0.0,0.0,0.0,0.0,0.0,0.0,0.0,0.0,0.0,0.0,0.0,0.0,0.0,0.0,0.0,0.0,0.0,0.0,0.0,0.0,0.0,0.0,0.0,0.0,0.0,0.0,0.0,0.0,0.0,0.0,0.0,0.0,0.0,0.0,0.0,0.0,0.0,0.0,0.0,0.0,0.0,0.0,0.0,0.0,0.0,0.0,0.0,0.0,0.0,0.0,0.0,0.0,0.0,0.0,0.0,0.0,0.0,0.0,0.0,0.0,0.0,0.0,0.0,0.0,0.0,0.0,0.0,0.0,0.0,0.0,0.0,0.0,0.0,0.0,0.0,0.0,0.0,0.0,0.0,0.0,0.0,0.0,0.0,0.0,0.0,0.0,0.0,0.0,0.0,0.0,0.0,0.0,0.0,0.0,0.0,0.0,0.0,0.0,0.0,0.0,0.0,0.0,0.0,0.0,0.0,0.0,0.0,0.0,0.0,0.0,0.0,0.0,0.0,0.0,0.0,0.0,0.0,0.0,0.0,0.0,-3.3199,-3.3199,0.0,0.0,0.0,0.0,0.0,0.0,0.0,0.0,0.0,0.0,0.0,0.0,0.0,0.0,0.0,0.0,0.0,0.0,0.0,0.0,0.0,0.0,0.0,0.0,0.0,0.0,-4.6303,-4.63,-4.63,-4.6295,-4.6301,-4.6301,-4.6308,-4.6305,-4.63,-4.6236,-4.5988,-4.5591,-4.5012,-4.4927,-4.5235,-4.5119,-4.4565,-4.3638,0.0,0.0,0.0,0.0,0.0,0.0,0.0,0.0,0.0,0.0,0.0,0.0,0.0,0.0,0.0,0.0,0.0,0.0,0.0,0.0,0.0,0.0,0.0,0.0,0.0,0.0,0.0,0.0,0.0,0.0,0.0,0.0,0.0,0.0,0.0,0.0,0.0,0.0,0.0,0.0,0.0,0.0,0.0,0.0,0.0,0.0,0.0,0.0,0.0,0.0,0.0,0.0,0.0,0.0,0.0,0.0,0.0,0.0,0.0,0.0,0.0,0.0,0.0,0.0,0.0,0.0,0.0,0.0,0.0,0.0,-3.2775,-3.2846,0.0,0.0,0.0,0.0,0.0,0.0,0.0,0.0,0.0,0.0,0.0,0.0,0.0,0.0,0.0,0.0,0.0,0.0,0.0,0.0,0.0,0.0,0.0,-4.6299,-4.6303,-4.6306,-4.6306,-4.6306,-4.6309,-4.6306,-4.6306,-4.6309,-4.6307,-4.6306,-4.63,-4.622,-4.5832,-4.5103,-4.4958,-4.4731,-4.4427,-4.5233,-4.5201,-4.4453,0.0,0.0,0.0,0.0,0.0,0.0,0.0,0.0,0.0,0.0,0.0,0.0,0.0,0.0,0.0,0.0,0.0,0.0,0.0,0.0,0.0,0.0,0.0,0.0,0.0,0.0,0.0,0.0,0.0,0.0,0.0,0.0,0.0,0.0,0.0,0.0,0.0,0.0,0.0,0.0,0.0,0.0,0.0,0.0,0.0,0.0,0.0,0.0,0.0,0.0,0.0,0.0,0.0,0.0,0.0,0.0,0.0,0.0,0.0,0.0,0.0,0.0,0.0,0.0,-3.3951,-3.3536,-3.3171,-3.3283,-3.304,-3.2523,-3.2763,-3.2839,-3.2632,-3.2846,0.0,0.0,0.0,0.0,0.0,0.0,0.0,0.0,0.0,0.0,0.0,0.0,0.0,0.0,0.0,0.0,0.0,0.0,0.0,0.0,0.0,-4.6275,-4.6306,-4.6303,-4.6305,-4.6306,-4.6308,-4.6305,-4.6303,-4.6308,-4.6301,-4.6306,-4.6303,-4.6235,-4.6127,-4.5947,-4.5809,-4.5305,-4.451,-4.525,-4.5473,-4.5208,-4.4327,0.0,0.0,0.0,0.0,0.0,0.0,0.0,0.0,0.0,0.0,0.0,0.0,0.0,0.0,0.0,0.0,0.0,0.0,0.0,0.0,0.0,0.0,0.0,0.0,0.0,0.0,0.0,0.0,0.0,0.0,0.0,0.0,0.0,0.0,0.0,0.0,0.0,0.0,0.0,0.0,0.0,0.0,0.0,-4.1093,-4.0745,0.0,0.0,0.0,0.0,0.0,0.0,0.0,0.0,0.0,0.0,0.0,0.0,0.0,-3.5148,-3.4765,-3.4414,-3.3922,-3.3452,-3.3396,-3.3086,-3.2516,-3.3038,-3.3211,-3.3043,-3.356,0.0,-3.2241,-3.2431,0.0,0.0,0.0,0.0,0.0,0.0,0.0,0.0,0.0,0.0,0.0,0.0,0.0,0.0,0.0,0.0,0.0,0.0,0.0,0.0,0.0,-4.6287,-4.63,-4.6307,-4.6756,-4.6829,-4.6339,-4.6752,-4.6812,-4.6319,-4.6295,-4.6306,-4.6308,-4.6242,-4.6143,-4.5986,-4.5887,-4.5602,-4.5182,-4.543,-4.5495,-4.5381,-4.4997,-4.4134,-4.2871,-4.1837,0.0,0.0,0.0,0.0,0.0,0.0,0.0,0.0,0.0,0.0,0.0,0.0,0.0,0.0,0.0,0.0,0.0,0.0,0.0,0.0,0.0,0.0,0.0,0.0,0.0,0.0,0.0,0.0,0.0,0.0,0.0,0.0,0.0,0.0,0.0,0.0,0.0,0.0,0.0,-4.1261,-4.084,-4.0502,-4.0288,-3.9986,0.0,0.0,0.0,0.0,0.0,0.0,0.0,0.0,0.0,-3.5539,-3.5016,-3.4616,-3.4346,-3.4005,-3.3831,-3.3831,-3.3688,-3.3567,-3.3457,-3.3567,-3.3539,-3.3428,-3.3607,-3.3432,-3.3022,-3.3309,-3.3444,-3.3592,0.0,0.0,0.0,0.0,-3.3473,-3.3417,0.0,0.0,0.0,0.0,0.0,0.0,0.0,0.0,0.0,0.0,0.0,0.0,-4.6308,-4.6503,-4.6621,-4.6639,-4.7406,-4.7627,-4.6983,-4.7553,-4.7611,-4.6979,-4.6931,-4.6846,-4.6616,-4.6317,-4.6075,-4.5887,-4.5838,-4.5765,-4.569,-4.5549,-4.5457,-4.54,-4.538,-4.486,-4.388,-4.2598,-4.1909,0.0,0.0,0.0,0.0,0.0,0.0,0.0,0.0,0.0,0.0,0.0,0.0,0.0,0.0,0.0,0.0,0.0,0.0,0.0,0.0,0.0,0.0,0.0,0.0,0.0,0.0,0.0,0.0,0.0,0.0,0.0,0.0,0.0,0.0,0.0,0.0,0.0,0.0,-4.1012,-4.0631,-4.0255,-4.0037,-3.9729,0.0,0.0,0.0,0.0,0.0,0.0,-3.6414,-3.5958,-3.5509,-3.5096,-3.4777,-3.451,-3.4235,-3.4058,-3.41,-3.4259,-3.4112,-3.3963,-3.4023,-3.4032,-3.3944,-3.3724,-3.3949,-3.4095,-3.4068,-3.4068,-3.4175,-3.4175,-3.4327,-3.4479,-3.441,-3.379,-3.3583,-3.3487,0.0,0.0,0.0,0.0,0.0,0.0,0.0,0.0,0.0,0.0,0.0,-4.6307,-4.6306,-4.7037,-4.7528,-4.7533,-4.8271,-4.872,-4.8681,-4.8711,-4.8727,-4.8679,-4.8679,-4.8293,-4.7469,-4.6569,-4.6046,-4.5905,-4.5841,-4.5757,-4.57,-4.5566,-4.5457,-4.54,-4.5339,-4.4779,-4.3893,-4.3811,-4.3254,-4.237,0.0,0.0,0.0,0.0,0.0,0.0,0.0,0.0,0.0,0.0,0.0,0.0,0.0,0.0,0.0,0.0,0.0,0.0,0.0,0.0,0.0,0.0,0.0,0.0,0.0,0.0,0.0,0.0,0.0,0.0,0.0,0.0,0.0,0.0,0.0,0.0,0.0,0.0,0.0,-3.9952,-3.9694,0.0,0.0,0.0,0.0,-3.7298,-3.7178,-3.6892,-3.61,-3.5831,-3.5379,-3.4765,-3.5078,-3.5035,-3.4484,-3.4846,-3.4859,-3.4554,-3.43,-3.3995,-3.3665,-3.4216,-3.4326,-3.4193,-3.4982,-3.5305,-3.5224,-3.4329,-3.4023,-3.4175,-3.4175,-3.4327,-3.441,-3.379,-3.3583,-3.3487,0.0,0.0,0.0,0.0,0.0,0.0,0.0,0.0,-4.4958,-4.6148,-4.6797,-4.7141,-4.7139,-4.7884,-4.8376,-4.8369,-4.9142,-4.9391,-4.884,-4.9337,-4.9391,-4.8814,-4.88,-4.8367,-4.7462,-4.7582,-4.735,-4.6739,-4.7187,-4.7403,-4.7359,-4.7237,-4.6839,-4.6244,-4.6164,-4.5621,-4.4696,-4.4141,-4.3697,-4.333,-4.2408,-4.1999,0.0,0.0,0.0,0.0,0.0,0.0,0.0,0.0,0.0,0.0,0.0,0.0,0.0,0.0,0.0,0.0,0.0,0.0,0.0,0.0,0.0,0.0,0.0,0.0,0.0,0.0,0.0,0.0,0.0,0.0,0.0,0.0,0.0,0.0,0.0,0.0,0.0,-4.0624,-4.0654,0.0,-4.0025,-3.9778,-3.9305,-3.8388,-3.8152,-3.7689,-3.6917,-3.6514,-3.6104,-3.5703,-3.5497,-3.5266,-3.5048,-3.4966,-3.4974,-3.5148,-3.4749,-3.4641,-3.4781,-3.4673,-3.4684,-3.4629,-3.491,-3.5003,-3.4977,-3.4794,-3.4847,-3.5165,-3.5165,-3.5244,-3.5162,-3.4576,-3.4344,-3.4263,0.0,0.0,0.0,0.0,0.0,0.0,0.0,0.0,-4.5312,-4.6189,-4.7061,-4.7598,-4.7604,-4.858,-4.9243,-4.9243,-5.003,-5.0293,-4.9728,-5.0215,-5.0269,-4.9679,-4.9361,-4.8904,-4.8254,-4.8413,-4.8218,-4.765,-4.8116,-4.8314,-4.8268,-4.8142,-4.7761,-4.7126,-4.7044,-4.6502,-4.5638,-4.5023,-4.4576,-4.4205,-4.3282,-4.2895,-4.281,0.0,0.0,0.0,0.0,0.0,0.0,0.0,0.0,0.0,0.0,0.0,0.0,0.0,0.0,0.0,0.0,0.0,0.0,0.0,0.0,0.0,0.0,0.0,0.0,0.0,0.0,0.0,0.0,0.0,0.0,0.0,0.0,0.0,0.0,-4.1478,-4.1418,-4.1151,-4.1183,-4.1083,-4.0599,-4.018,-3.9628,-3.8883,-3.8492,-3.8029,-3.7351,-3.688,-3.6458,-3.6229,-3.5866,-3.5699,-3.555,-3.5384,-3.5369,-3.5521,-3.5126,-3.5103,-3.5154,-3.4921,-3.4756,-3.4673,-3.4756,-3.4756,-3.4839,-3.5003,-3.5236,-3.548,-3.548,-3.5562,-3.5575,-3.4886,-3.4749,-3.4746,0.0,0.0,0.0,0.0,0.0,0.0,0.0,-4.4481,-4.5351,-4.6228,-4.71,-4.7643,-4.7682,-4.9157,-5.0147,-5.0147,-5.0912,-5.1394,-5.1394,-5.1394,-5.1369,-5.1291,-5.0494,-4.9994,-4.9906,-4.9023,-4.8567,-4.8528,-4.8498,-4.8408,-4.8293,-4.8201,-4.8126,-4.8027,-4.79,-4.7382,-4.6621,-4.6571,-4.5982,-4.501,-4.4085,-4.3739,-4.3644,0.0,0.0,0.0,0.0,0.0,0.0,0.0,0.0,0.0,0.0,0.0,0.0,0.0,0.0,0.0,0.0,0.0,0.0,0.0,0.0,0.0,0.0,0.0,0.0,0.0,0.0,0.0,0.0,0.0,0.0,0.0,0.0,0.0,-4.2532,-4.2284,-4.1959,-4.1515,-4.1206,-4.0857,-4.0305,-3.9877,-3.9266,-3.8635,-3.8223,-3.7752,-3.7149,-3.6799,-3.6445,-3.6057,-3.6308,-3.6197,-3.583,-3.6194,-3.6152,-3.571,-3.548,-3.5154,-3.4839,-3.4756,-3.4673,-3.4397,-3.466,-3.4756,-3.4839,-3.5003,-3.5086,-3.5086,-3.5072,-3.5236,-3.5332,-3.4754,-3.4631,-3.4774,0.0,0.0,0.0,0.0,0.0,0.0,0.0,-4.538,-4.623,-4.7059,-4.7939,-4.8718,-4.9346,-5.038,-5.1049,-5.1049,-5.1213,-5.1336,-5.1336,-5.1336,-5.1323,-5.1292,-5.1026,-5.0547,-4.9839,-5.019,-5.004,-4.9373,-4.9939,-5.0168,-5.0081,-4.9971,-4.9527,-4.887,-4.8783,-4.8258,-4.7477,-4.7388,-4.7209,-4.682,-4.528,-4.4621,-4.4535,0.0,0.0,0.0,0.0,0.0,0.0,0.0,0.0,0.0,0.0,0.0,0.0,0.0,0.0,0.0,0.0,0.0,0.0,0.0,0.0,0.0,0.0,0.0,0.0,0.0,0.0,0.0,0.0,0.0,0.0,0.0,-4.3528,-4.339,-4.2511,-4.2433,-4.2432,-4.2204,-4.2152,-4.2035,-4.1786,-4.1342,-4.0758,-3.997,-3.9612,-3.8983,-3.8135,-3.7754,-3.7382,-3.6945,-3.6872,-3.6676,-3.647,-3.6401,-3.6232,-3.5992,-3.5413,-3.5086,-3.5003,-3.466,-3.4481,-3.4397,-3.4481,-3.4494,-3.4481,-3.4577,-3.4564,-3.466,-3.499,-3.5236,-3.5372,-3.5211,-3.5318,-3.5452,0.0,0.0,0.0,0.0,0.0,0.0,0.0,-4.574,-4.6581,-4.7391,-4.8271,-4.9123,-4.9997,-5.0855,-5.1362,-5.1362,-5.131,-5.1296,-5.1296,-5.1296,-5.1292,-5.1259,0.0,-5.0891,-5.0358,-5.081,-5.0787,-5.025,-5.0677,-5.0846,-5.0757,-5.0644,-5.0296,-4.9794,-4.9729,-4.9207,-4.8381,-4.8293,-4.8056,-4.759,-4.6483,-4.6011,-4.6006,-4.5956,-4.5956,-4.5937,-4.5887,-4.5855,-4.5746,-4.5372,0.0,0.0,0.0,0.0,0.0,0.0,0.0,0.0,0.0,0.0,0.0,0.0,0.0,0.0,0.0,0.0,0.0,0.0,0.0,0.0,0.0,0.0,0.0,0.0,-4.4197,-4.4014,-4.3081,-4.3046,-4.3066,-4.2789,-4.2684,-4.2508,-4.2206,-4.1604,-4.1055,-4.0439,-3.9879,-3.9235,-3.8516,-3.8127,-3.7749,-3.7303,-3.6993,-3.6772,-3.6563,-3.6232,-3.5978,-3.567,-3.5168,-3.4921,-3.4825,-3.4481,-3.4397,-3.4397,-3.4397,-3.4397,-3.4397,-3.4397,-3.4397,-3.4397,0.0,0.0,0.0,0.0,-3.5642,-3.571,0.0,0.0,0.0,0.0,0.0,0.0,0.0,-4.5799,-4.6629,-4.7539,-4.8322,-4.9162,-5.0126,-5.0869,-5.131,-5.131,-5.1308,-5.1292,-5.1292,-5.1295,-5.1259,-5.1189,-5.1233,-5.1198,-5.1082,-5.1145,-5.1083,-5.1005,-5.0929,-5.0846,-5.072,-5.0644,-5.0606,-5.0603,-5.0521,-5.0059,-4.933,-4.928,-4.8793,-4.7999,-4.7881,-4.7694,-4.7498,-4.7422,-4.7397,-4.7422,-4.7397,-4.7345,-4.7178,-4.6479,0.0,0.0,0.0,0.0,0.0,0.0,0.0,0.0,0.0,0.0,0.0,0.0,0.0,0.0,0.0,0.0,0.0,0.0,0.0,0.0,0.0,0.0,0.0,0.0,-4.4835,-4.4592,-4.3948,-4.3772,-4.3595,-4.3113,-4.2743,-4.2381,-4.1963,-4.1288,-4.0646,-4.0216,-3.9523,-3.8958,-3.8441,-3.8052,0.0,0.0,0.0,-3.6642,-3.6405,-3.5965,-3.548,-3.5168,-3.4921,-3.4673,-3.4494,-3.4463,-3.4463,-3.4397,-3.4463,-3.4463,-3.4397,-3.4397,-3.4397,-3.4481,-3.4481,-3.4729,-3.5154,-3.5562,-3.571,-3.571,0.0,0.0,0.0,0.0,0.0,0.0,0.0,-4.6183,-4.685,-4.8352,-4.8691,-4.938,-5.0906,-5.1211,-5.1308,-5.1308,-5.1304,-5.1287,-5.123,0.0,-5.1189,-5.1117,-5.178,-5.1787,-5.1034,-5.1698,-5.1687,-5.0906,-5.0913,-5.0899,-5.0846,-5.0663,-5.0606,-5.0606,-5.0523,-5.0404,-5.0251,-5.0229,-5.0112,-4.9937,-4.9805,-4.8867,-4.7571,-4.7448,-4.7422,-4.7473,-4.7371,-4.7318,-4.7273,-4.7068,-4.7078,-4.7127,-4.6685,0.0,0.0,0.0,0.0,0.0,0.0,0.0,0.0,0.0,0.0,0.0,0.0,0.0,0.0,0.0,0.0,0.0,0.0,0.0,0.0,-4.4318,-4.4531,-4.4609,-4.4097,-4.373,-4.3312,-4.2945,-4.2508,-4.2125,-4.1898,-4.137,-4.0746,-4.0005,-3.9595,-3.8929,-3.8037,-3.7749,-3.7457,-3.707,-3.6864,-3.6642,-3.6405,-3.5965,-3.5562,-3.5318,-3.5003,0.0,-3.4769,-3.4992,-3.4855,-3.4424,-3.4907,-3.4842,-3.4397,-3.4397,-3.4494,-3.4756,-3.4908,-3.499,-3.5154,-3.5562,-3.571,-3.571,0.0,0.0,0.0,0.0,0.0,0.0,0.0,-4.6308,-4.6743,-4.7983,-4.8522,-4.912,-4.9956,-5.0794,-5.1117,-5.068,-5.1014,-5.124,0.0,-5.1567,-5.1797,-5.1761,-5.2524,-5.272,-5.2264,-5.2694,-5.2663,-5.2202,-5.2172,-5.1925,-5.1503,-5.1375,-5.1068,-5.0644,-5.0584,-5.0521,-5.05,-5.05,-5.0478,-5.0393,-5.0325,-4.9763,-4.8948,-4.8802,-4.8751,-4.8751,-4.8726,-4.8674,-4.859,-4.8094,-4.8226,-4.8416,-4.7382,-4.741,-4.7485,0.0,0.0,0.0,0.0,0.0,0.0,0.0,0.0,0.0,0.0,0.0,0.0,0.0,0.0,-4.4979,-4.504,0.0,-4.5267,-4.5072,-4.512,-4.5037,-4.4456,-4.4351,-4.401,-4.2997,-4.2397,-4.1882,-4.162,-4.1086,-4.0524,-3.9824,-3.9379,-3.8782,-3.7962,-3.7596,-3.724,-3.685,-3.6628,-3.6484,-3.6246,-3.5656,-3.5465,-3.5678,-3.5275,-3.5037,-3.505,-3.5529,-3.5221,-3.4437,-3.5038,-3.4959,-3.4397,-3.4577,-3.4743,-3.5003,-3.5154,-3.5236,-3.5318,-3.5562,-3.571,-3.571,0.0,0.0,0.0,0.0,0.0,0.0,0.0,-4.6284,-4.6562,-4.7398,-4.8107,-4.858,-4.876,-5.0143,-5.0836,-5.0285,-5.0831,-5.1268,0.0,-5.2037,-5.2466,-5.2601,-5.3359,-5.3662,-5.3507,-5.3669,-5.3672,-5.3498,-5.3428,-5.3045,-5.2354,-5.228,-5.1876,-5.1183,-5.097,-5.0813,-5.0732,-5.0598,-5.0478,-5.0325,-5.0325,-5.0325,-5.0302,-5.0182,-5.0108,-5.0038,-5.0082,-4.9943,-4.9682,-4.9136,-4.9307,-4.947,-4.8051,-4.8136,-4.8419,-4.6467,-4.6424,0.0,0.0,0.0,0.0,0.0,0.0,0.0,0.0,-4.4975,-4.5329,-4.5022,-4.4849,-4.4852,-4.5085,-4.4998,-4.5061,-4.5751,-4.5665,-4.5345,-4.4749,-4.5006,-4.4738,-4.339,-4.2559,-4.1958,-4.1527,-4.0876,-4.0246,-3.9753,-3.9162,-3.856,-3.7962,-3.7519,-3.7084,-3.6721,-3.6484,-3.6246,-3.6086,-3.5413,-3.5379,-3.5867,-3.5339,-3.5247,-3.5469,-3.59,-3.56,-3.475,-3.5129,-3.4959,-3.4481,-3.4673,-3.4921,-3.5154,-3.5318,-3.5399,-3.548,-3.5642,-3.571,-3.571,0.0,0.0,0.0,0.0,0.0,0.0,0.0,0.0,-4.6515,-4.7391,-4.7533,-4.784,-4.8641,-4.9566,-5.0393,-5.1005,-5.1161,0.0,-5.2214,-5.2337,-5.2698,-5.3363,-5.42,-5.4285,-5.3533,-5.4252,-5.4271,-5.3498,-5.3428,-5.3353,-5.3239,-5.3186,-5.3109,-5.2974,-5.2145,-5.172,-5.1621,-5.0951,-5.0603,-5.0478,-5.0478,-5.0457,-5.039,-5.0302,-5.0231,-5.0163,-5.0133,-4.9651,-4.9112,-4.9663,-4.9364,-4.8829,-4.9268,-4.9456,-4.9152,-4.7379,0.0,-4.733,-4.4904,-4.4527,-4.4908,-4.524,-4.5888,-4.6386,0.0,-4.6511,-4.6668,-4.5713,-4.5939,-4.6217,-4.5783,-4.5579,-4.5372,-4.5043,-4.5229,-4.5244,-4.4782,-4.4896,-4.4887,-4.4363,-4.3437,-4.2655,-4.2318,-4.1224,-4.0246,-3.9753,-3.9162,-3.856,-3.7962,-3.7366,-3.6915,-3.6721,-3.6325,-3.6086,-3.6086,-3.5413,-3.5379,-3.5867,-3.4905,-3.5025,-3.6018,-3.607,-3.6031,-3.5887,-3.5482,-3.5044,-3.4756,-3.4756,-3.5003,-3.5399,-3.5399,-3.548,-3.5629,-3.571,-3.571,-3.571,0.0,0.0,0.0,0.0,0.0,0.0,0.0,0.0,0.0,-4.6649,-4.71,-4.7356,-4.7211,-4.838,-4.9722,-5.1031,0.0,0.0,-5.2291,-5.2787,-5.3398,-5.4204,-5.5059,-5.5335,-5.4972,-5.532,-5.5302,-5.4899,-5.4881,-5.4592,-5.4034,-5.4015,-5.3705,-5.3163,-5.2777,-5.2562,-5.248,-5.2176,-5.1979,-5.1855,-5.1395,-5.1159,-5.1032,-5.0493,-5.0255,-5.0207,-5.0182,-4.9904,0.0,0.0,-4.9705,-4.9451,-4.9579,-4.9265,-4.8595,-4.732,-4.7392,-4.7625,-4.6368,-4.6024,-4.5957,-4.5678,-4.6354,-4.709,-4.7006,-4.7445,-4.7831,-4.7772,-4.785,-4.7788,-4.7351,-4.7091,-4.6872,-4.672,-4.6617,-4.6319,-4.5838,-4.6012,-4.5678,-4.4468,-4.4008,-4.3567,-4.2864,-4.2005,-4.1351,-4.0915,-4.0293,-3.9598,-3.9009,-3.8365,-3.79,-3.7604,-3.7263,-3.7016,-3.6961,-3.635,-3.6391,-3.6904,-3.6392,-3.6363,-3.6836,-3.7151,-3.7111,-3.658,-3.5691,-3.5325,-3.5398,-3.5054,-3.5236,-3.5562,-3.5562,-3.5642,-3.571,-3.571,-3.571,-3.571,0.0,0.0,0.0,0.0,0.0,0.0,0.0,0.0,0.0,0.0,-4.6852,-4.731,-4.7145,-4.8194,-4.9532,-5.0965,0.0,0.0,0.0,-5.3193,-5.3994,-5.5064,-5.5648,-5.5979,-5.5981,-5.5981,-5.5962,-5.5905,-5.5885,-5.5518,-5.4862,-5.4823,-5.4453,-5.3812,-5.356,-5.3401,-5.3338,-5.3107,-5.2947,-5.282,-5.2269,-5.1973,-5.1849,-5.099,-5.0617,-5.0531,-5.0307,-5.003,0.0,0.0,-4.9808,-4.9565,-4.9334,-4.8802,-4.8058,-4.6896,-4.6838,-4.7155,-4.7311,-4.7169,-4.6759,-4.6038,-4.6871,-4.7793,-4.7705,-4.8119,-4.8697,-4.9048,-4.9008,-4.8758,-4.8312,-4.801,-4.7817,-4.7733,-4.7474,-4.7032,-4.6536,-4.6694,-4.6217,-4.4585,-4.4433,-4.4131,-4.337,-4.2663,-4.2058,-4.1761,-4.105,-4.0432,-3.9989,-3.924,-3.8669,-3.8367,-3.8019,-3.7754,-3.7612,-3.7174,-3.721,-3.7824,-3.74,-3.7404,-3.7722,-3.8028,-3.7715,-3.6959,-3.6223,-3.5845,-3.5841,-3.5581,-3.5465,-3.5642,-3.571,-3.571,-3.571,-3.571,-3.571,-3.571,0.0,0.0,0.0,0.0,0.0,0.0,0.0,0.0,0.0,0.0,0.0,0.0,0.0,-4.9737,-5.0112,0.0,0.0,0.0,0.0,-5.3498,-5.4201,-5.5789,-5.5885,-5.5905,-5.5905,-5.5905,-5.5905,-5.5905,-5.5826,-5.5787,-5.5748,-5.5643,-5.5602,-5.5588,-5.4668,-5.4258,-5.42,-5.3357,-5.2924,-5.2829,-5.2858,-5.2815,-5.2671,-5.1868,-5.1514,-5.1351,-5.0584,0.0,0.0,0.0,-4.9454,-4.864,-4.8475,-4.8313,0.0,-4.6223,-4.5578,-4.5672,-4.6945,-4.7206,-4.7,-4.659,-4.7578,-4.8578,-4.8197,-4.871,-4.9137,-4.8758,-4.8809,-4.8758,-4.8189,-4.7885,-4.7516,-4.6937,-4.6971,-4.6858,-4.6224,-4.6423,-4.6185,-4.5132,-4.4519,-4.4102,-4.382,-4.2735,-4.1925,-4.1716,-4.0941,-4.049,-4.049,-3.943,-3.8861,-3.8861,-3.82,-3.7865,-3.7865,-3.7456,-3.7496,-3.8075,-3.7324,-3.7483,-3.8575,-3.8304,-3.7715,-3.6998,-3.7253,-3.6682,-3.5614,-3.6092,-3.591,-3.5399,-3.5642,-3.571,-3.571,-3.571,-3.571,-3.571,0.0,0.0,0.0,0.0,0.0,0.0,0.0,0.0,0.0,0.0,0.0,0.0,0.0,0.0,0.0,0.0,0.0,0.0,0.0,-5.3084,-5.3877,-5.4979,-5.5596,-5.5885,-5.5826,-5.5826,-5.5826,-5.5785,-5.5745,-5.5745,-5.5724,-5.564,-5.5596,-5.5554,-5.524,-5.5101,-5.5063,-5.4748,-5.459,-5.4532,-5.3924,-5.3689,-5.3511,-5.2087,-5.1484,-5.132,0.0,0.0,0.0,0.0,-4.97,-4.9372,-4.9152,-4.8626,-4.8009,-4.7242,-4.6522,-4.6283,-4.7756,-4.7978,-4.7837,-4.8102,-4.879,-4.9441,-4.9746,-4.9531,-4.9461,-5.0289,-4.9517,-4.8748,-4.8851,-4.8553,-4.8083,-4.7556,-4.7567,-4.7473,-4.6876,-4.6592,-4.5991,-4.4938,-4.4871,-4.4468,-4.3528,-4.2924,-4.2758,-4.2982,-4.2372,-4.1894,-4.1748,-4.067,-4.0083,-4.0083,-3.9316,-3.8883,-3.9084,-3.8607,-3.8438,-3.8626,-3.8336,-3.8456,-3.8832,-3.8589,-3.8211,-3.7806,-3.7553,-3.7021,-3.6412,-3.635,-3.6006,-3.5642,-3.5629,-3.571,-3.571,-3.571,-3.571,-3.571,0.0,0.0,0.0,0.0,0.0,0.0,0.0,0.0,0.0,0.0,0.0,0.0,0.0,0.0,0.0,0.0,0.0,0.0,0.0,0.0,-5.3205,-5.4053,-5.4631,-5.492,-5.488,-5.488,-5.4995,-5.5261,-5.5239,-5.5393,-5.5662,-5.5573,-5.5527,-5.5504,-5.5476,-5.5476,-5.5456,-5.5402,-5.523,-5.4953,-5.4339,-5.3887,-5.3442,-5.2018,-5.1408,0.0,0.0,0.0,0.0,0.0,-4.9835,-4.9665,-4.9168,-4.8389,-4.7635,-4.7642,-4.721,-4.7032,-4.8495,-4.8689,-4.8612,-4.9161,-4.9713,-5.0221,-5.0551,-5.0303,-5.0246,-5.1034,-5.0013,-4.9065,-4.9251,-4.8726,-4.8168,-4.7937,-4.778,-4.7539,-4.7186,-4.6738,-4.5991,-4.4867,-4.4783,-4.4452,-4.3378,-4.3137,-4.3106,-4.3457,-4.301,-4.2541,-4.2295,-4.1367,-4.0773,-4.0702,-3.9922,-3.951,-3.97,-3.9203,-3.8908,-3.8908,-3.9011,-3.8997,-3.8908,-3.8756,-3.8575,-3.8291,-3.7934,-3.7414,-3.6791,-3.6672,-3.6208,-3.5642,-3.5629,-3.571,-3.571,-3.571,-3.571,-3.571,0.0,0.0,0.0,0.0,0.0,0.0,0.0,0.0,0.0,0.0,0.0,0.0,0.0,0.0,0.0,0.0,0.0,0.0,0.0,0.0,0.0,-5.3106,-5.3183,-5.3203,-5.3182,-5.3182,-5.3606,-5.4434,-5.437,-5.4751,-5.5538,-5.5341,-5.5336,-5.5423,-5.5301,-5.5295,-5.5326,-5.5295,-5.4811,-5.4104,-5.397,-5.3429,-5.2584,-5.1732,0.0,0.0,0.0,0.0,0.0,0.0,-4.9843,-4.9531,-4.8614,-4.7687,-4.7006,-4.7556,-4.7694,-4.7903,-4.9148,-4.9405,-4.9422,-4.9838,-5.0451,-5.0904,-5.0615,-5.1037,-5.1367,-5.1158,-5.0295,-4.9468,-4.9269,-4.8294,-4.7586,-4.7954,-4.7502,-4.7139,-4.7088,-4.6791,-4.6131,-4.4843,-4.4438,-4.4091,-4.3528,-4.3258,-4.3059,-4.3016,-4.2835,-4.2526,-4.2034,-4.1353,-4.093,-4.0702,-4.0037,-3.97,-3.97,-3.9203,-3.8908,-3.8908,-3.9203,-3.9203,-3.8908,-3.8908,-3.8832,-3.8602,-3.8602,-3.7923,-3.6817,-3.7102,-3.6488,-3.5399,-3.5642,-3.571,-3.571,-3.571,-3.571,-3.571,0.0,0.0,0.0,0.0,0.0,0.0,0.0,0.0,0.0,0.0,0.0,0.0,0.0,0.0,0.0,0.0,0.0,0.0,0.0,0.0,0.0,0.0,0.0,0.0,0.0,0.0,0.0,0.0,-5.336,-5.3782,-5.4607,-5.3838,-5.3853,-5.4494,-5.3716,-5.3767,-5.4396,-5.369,-5.3627,-5.3951,0.0,-5.2817,-5.2532,0.0,0.0,0.0,0.0,0.0,0.0,0.0,0.0,0.0,-4.9033,-4.8679,-4.8513,-4.9193,-4.9307,-4.9381,-5.0141,-5.0652,-5.0951,-5.0832,-5.1297,-5.17,-5.1355,-5.0832,-5.0573,-5.1035,-4.9276,-4.7788,-4.8201,-4.7636,-4.707,-4.692,-4.7291,-4.7408,-4.6981,-4.6598,-4.6056,-4.5175,-4.5028,-4.4642,-4.3945,-4.3807,-4.3557,-4.3061,-4.2835,-4.2622,-4.2295,-4.1437,-4.093,-4.0702,-4.0037,-3.97,-3.97,-3.9394,-3.9203,-3.9203,-3.9292,-3.9292,-3.9203,-3.8997,-3.8908,-3.8832,-3.8832,-3.8175,-3.7102,-3.7358,-3.6739,-3.5642,-3.571,-3.571,-3.571,-3.571,-3.571,-3.571,0.0,0.0,0.0,0.0,0.0,0.0,0.0,0.0,0.0,0.0,0.0,0.0,0.0,0.0,0.0,0.0,0.0,0.0,0.0,0.0,0.0,0.0,0.0,0.0,0.0,0.0,0.0,0.0,0.0,0.0,-5.4211,-5.3255,-5.3053,-5.3511,-5.294,-5.2972,-5.3417,-5.287,0.0,0.0,0.0,0.0,0.0,0.0,0.0,0.0,0.0,0.0,0.0,0.0,0.0,-4.9319,-4.9594,-4.9551,-4.9561,-5.0269,-5.034,-5.0333,-5.0941,-5.1256,-5.1474,-5.1581,-5.1826,-5.1956,-5.1658,-5.1099,-5.0592,-5.0506,-4.8943,-4.7544,-4.7436,-4.6962,-4.6629,-4.66,-4.7012,-4.7276,-4.6913,-4.6528,-4.616,-4.5833,-4.5316,-4.4862,-4.4616,-4.4155,-4.366,-4.3061,-4.2835,-4.2526,-4.2131,-4.1437,-4.0845,-4.0544,-4.0037,-3.9598,-3.9305,-3.9305,-3.9203,-3.9114,-3.9203,-3.9305,-3.9292,-3.9114,-3.91,-3.91,-3.8908,-3.8337,-3.7371,-3.7371,-3.6739,-3.571,-3.571,-3.571,-3.571,-3.571,-3.5642,-3.5562,0.0,0.0,0.0,0.0,0.0,0.0,0.0,0.0,0.0,0.0,0.0,0.0,0.0,0.0,0.0,0.0,0.0,0.0,0.0,0.0,0.0,0.0,0.0,0.0,0.0,0.0,0.0,0.0,0.0,0.0,0.0,0.0,0.0,0.0,0.0,0.0,0.0,0.0,0.0,0.0,0.0,0.0,0.0,0.0,0.0,0.0,0.0,0.0,0.0,0.0,-5.0579,-4.966,-5.0272,-5.0337,-5.0378,-5.1006,-5.1032,-5.0977,-5.1572,-5.1546,-5.1483,-5.2083,-5.2071,-5.1808,-5.164,-5.1347,-5.084,-4.9837,-4.8837,-4.7893,-4.7018,-4.6481,-4.6289,-4.6667,-4.6874,-4.6914,-4.6864,-4.6609,-4.635,-4.63,-4.5384,-4.4834,-4.5107,-4.4243,-4.3518,-4.3076,-4.2835,-4.2444,-4.1785,-4.1269,-4.0859,-4.0385,-3.9876,-3.9407,-3.8997,-3.9203,-3.9203,-3.8997,-3.9203,-3.9305,-3.9305,-3.9305,-3.9305,-3.9292,-3.893,-3.8357,-3.7443,-3.7192,-3.6574,-3.571,-3.571,-3.571,-3.571,-3.571,-3.5562,-3.5399,0.0,0.0,0.0,0.0,0.0,0.0,0.0,0.0,0.0,0.0,-5.0446,-5.0521,0.0,0.0,0.0,0.0,0.0,0.0,0.0,0.0,0.0,0.0,0.0,0.0,0.0,0.0,0.0,0.0,-5.2303,0.0,0.0,0.0,0.0,0.0,0.0,0.0,0.0,0.0,0.0,0.0,0.0,0.0,0.0,0.0,0.0,0.0,0.0,0.0,0.0,0.0,-5.0598,-5.0987,-5.11,-5.1028,-5.1043,-5.1581,-5.1738,-5.182,-5.2306,-5.2336,-5.2224,-5.2018,-5.1858,-5.1589,-5.1088,-5.0541,0.0,-4.9482,-4.8223,-4.7212,-4.715,-4.6856,-4.6641,-4.6828,-4.7045,-4.702,-4.6722,-4.667,-4.6381,-4.5512,-4.5463,-4.5094,-4.4278,-4.3907,-4.3518,-4.3076,-4.2835,-4.2444,-4.1785,-4.1465,-4.0958,-4.0097,-3.9571,-3.9305,-3.9203,-3.9305,-3.9305,-3.9203,-3.9305,-3.9305,-3.9305,-3.9305,-3.9305,-3.9278,-3.8688,-3.8093,-3.7501,-3.6888,-3.6347,-3.571,-3.571,-3.571,-3.571,-3.571,-3.571,-3.5642,0.0,0.0,0.0,0.0,0.0,0.0,0.0,0.0,-4.9001,-5.0284,-5.0393,-5.0371,-5.0438,-5.0457,0.0,0.0,0.0,0.0,0.0,0.0,0.0,0.0,0.0,0.0,0.0,-5.1669,-5.2133,-5.2133,0.0,-5.2882,-5.332,-5.2349,-5.1923,-5.1904,-5.1423,0.0,0.0,0.0,0.0,0.0,0.0,0.0,0.0,0.0,0.0,0.0,0.0,0.0,0.0,0.0,-5.1711,-5.2225,-5.1839,-5.1689,-5.1756,-5.2302,-5.2395,-5.24,-5.2536,-5.2369,-5.2102,-5.1858,-5.164,-5.1384,-5.0928,0.0,0.0,-4.9243,-4.8529,-4.7827,-4.7233,-4.7191,-4.7204,-4.7015,-4.7095,-4.716,-4.7184,-4.6875,-4.6661,-4.6779,-4.5912,-4.5227,-4.502,-4.4067,-4.3344,-4.2835,-4.2769,-4.2444,-4.1785,-4.1227,-4.063,-3.9996,-3.9659,-3.9407,-3.9305,-3.9305,-3.9305,-3.9305,-3.9305,-3.9305,-3.9305,-3.9305,-3.9305,-3.9278,-3.8667,-3.8084,-3.7487,-3.6863,-3.6252,-3.571,-3.571,-3.571,-3.571,-3.571,-3.5642,-3.5562,0.0,0.0,0.0,0.0,0.0,0.0,0.0,-4.875,-4.8898,-5.0195,-5.0278,-5.0236,-5.0393,-5.0371,-5.0348,0.0,0.0,0.0,0.0,0.0,0.0,0.0,0.0,0.0,0.0,0.0,0.0,-5.2289,-5.2623,0.0,0.0,0.0,0.0,0.0,-5.2273,-5.2133,-5.2008,0.0,0.0,0.0,0.0,-5.1925,0.0,0.0,0.0,0.0,0.0,0.0,0.0,0.0,-5.2247,-5.2582,-5.2105,-5.211,-5.2325,-5.2773,-5.2824,-5.269,-5.2434,-5.2102,-5.1808,-5.1571,-5.1367,-5.1105,-5.0766,-5.0589,-5.0128,-4.8998,-4.8683,-4.8368,-4.7308,-4.7402,-4.7519,-4.7201,-4.706,-4.7103,-4.7261,-4.6909,-4.687,-4.7465,-4.6137,-4.5293,-4.5455,-4.4103,-4.309,-4.2688,-4.2526,-4.2199,-4.1702,-4.0801,-4.0211,-4.0009,-3.976,-3.9496,-3.9305,-3.9305,-3.9305,-3.9305,-3.9305,-3.9305,-3.9305,-3.9169,-3.9115,-3.9074,-3.8342,-3.7758,-3.7284,-3.6673,-3.6144,-3.571,-3.571,-3.571,-3.571,-3.571,-3.5642,-3.548,0.0,0.0,0.0,0.0,0.0,0.0,0.0,-4.966,-5.0107,-5.0212,-5.0212,-5.0163,-5.0133,-5.0182,-5.0236,0.0,0.0,0.0,0.0,0.0,0.0,0.0,0.0,0.0,0.0,0.0,0.0,-5.1233,-5.2712,0.0,0.0,0.0,0.0,0.0,0.0,-5.1976,-5.1898,-5.1931,0.0,0.0,0.0,0.0,0.0,0.0,0.0,0.0,0.0,0.0,0.0,0.0,0.0,-5.0931,-5.1413,-5.2105,-5.2714,-5.2599,0.0,0.0,-5.2054,-5.1858,-5.1622,-5.1158,-5.0946,-5.0766,-5.0341,0.0,-4.926,-4.8724,-4.8026,-4.7546,-4.7528,-4.7328,-4.7137,-4.7174,0.0,-4.649,-4.6031,-4.6646,-4.6547,-4.514,-4.5535,-4.5349,-4.4055,-4.3404,-4.2915,-4.2688,-4.1966,-4.148,-4.1396,-4.053,-4.0009,-3.9996,-3.9571,-3.9305,-3.9305,-3.9305,-3.9305,-3.9305,-3.9305,-3.9305,-3.9278,-3.8735,-3.8491,-3.8437,-3.727,-3.6727,-3.6632,-3.6035,-3.5764,-3.571,-3.571,-3.571,-3.571,-3.571,-3.571,-3.5642,0.0,0.0,0.0,0.0,0.0,0.0,-4.9599,-4.9648,-4.9678,-5.013,-5.0621,-5.0913,-5.0888,-5.0862,-5.0679,0.0,0.0,0.0,0.0,0.0,0.0,0.0,0.0,0.0,0.0,0.0,-5.1604,-5.0998,-5.2081,0.0,0.0,0.0,0.0,0.0,0.0,-5.1746,-5.1716,-5.2255,0.0,0.0,0.0,0.0,0.0,0.0,0.0,0.0,0.0,0.0,-5.1026,0.0,0.0,0.0,-5.0633,-5.1311,0.0,0.0,-5.1571,-5.1585,-5.1732,-5.1521,-5.1228,-5.0964,-5.0712,-5.0436,-5.0114,0.0,-4.9493,-4.8967,-4.8626,-4.825,-4.7935,-4.7747,-4.7571,0.0,0.0,0.0,-4.6564,-4.6567,-4.6392,-4.5881,-4.5532,-4.5092,-4.4338,-4.3474,-4.2835,-4.2281,-4.1717,-4.1297,-4.1184,-4.043,-3.9996,-3.9996,-3.9571,-3.9305,-3.9305,-3.9305,-3.9129,-3.8776,-3.8776,-3.8586,-3.8233,-3.7989,-3.7894,-3.784,-3.6971,-3.6605,-3.6551,-3.5967,-3.571,-3.571,-3.571,-3.571,-3.571,-3.571,-3.5642,-3.548,0.0,0.0,0.0,0.0,0.0,-4.8613,-5.0092,-4.9778,-4.9558,-5.0106,-5.064,-5.1064,-5.1304,-5.1095,-5.0764,-5.0449,0.0,0.0,0.0,0.0,0.0,0.0,0.0,0.0,0.0,0.0,-5.1175,-5.05,-5.1249,-5.1613,0.0,0.0,-5.178,-5.1746,0.0,0.0,0.0,0.0,0.0,0.0,0.0,0.0,0.0,0.0,0.0,0.0,0.0,0.0,0.0,0.0,0.0,0.0,0.0,0.0,0.0,0.0,-5.0982,-5.1124,-5.1378,-5.1175,-5.0893,-5.0712,-5.0453,-5.0171,-4.9924,0.0,-4.9632,-4.9124,-4.8923,-4.8753,-4.8179,-4.7935,-4.7588,0.0,0.0,-4.6509,-4.6513,-4.6288,-4.6066,-4.5894,-4.53,-4.4739,-4.4223,-4.3278,-4.243,-4.1883,-4.1465,-4.1198,-4.093,-4.0248,-3.9903,-3.9996,-3.9659,-3.9312,-3.9047,-3.9122,-3.8823,-3.8152,-3.8152,-3.7935,-3.7528,-3.7338,-3.7256,-3.7229,-3.6605,-3.6334,-3.6307,-3.5886,-3.571,-3.571,-3.571,-3.571,-3.571,-3.5642,-3.5562,-3.5399,0.0,0.0,0.0,0.0,0.0,0.0,0.0,-5.0236,-5.0163,-5.0108,-5.0057,-5.032,-5.1111,-5.0483,-5.0339,-5.1111,0.0,0.0,0.0,0.0,0.0,0.0,0.0,0.0,0.0,0.0,-4.9582,-4.9509,-5.0316,-5.0691,-5.0729,-5.1471,-5.1746,-5.1607,0.0,0.0,0.0,0.0,0.0,0.0,0.0,0.0,0.0,0.0,0.0,0.0,0.0,0.0,0.0,0.0,0.0,0.0,0.0,-5.0074,-4.9495,0.0,-5.0984,-5.1384,-5.0928,-5.082,-5.0712,-5.0285,-5.0057,-4.9866,0.0,-4.959,-4.9428,-4.9063,-4.8844,-4.8593,-4.8292,-4.7638,-4.7115,0.0,0.0,0.0,-4.5294,-4.563,-4.5418,-4.4156,-4.4437,-4.4238,-4.315,-4.2444,-4.1883,-4.1396,-4.1184,-4.093,-4.0688,-3.9871,-3.9559,-3.9982,-3.9774,-3.9311,-3.8437,-3.8683,-3.8382,-3.7541,-3.7541,-3.7541,-3.7514,-3.689,-3.6605,-3.6578,-3.5981,-3.5723,-3.5723,-3.571,-3.571,-3.571,-3.571,-3.571,-3.571,-3.548,-3.5399,-3.5318,0.0,0.0,0.0,0.0,0.0,0.0,0.0,-5.0108,-5.0057,-5.0031,-5.0544,-5.0965,-5.1187,-5.0959,-5.1158,-5.1964,0.0,0.0,0.0,0.0,0.0,0.0,0.0,0.0,0.0,0.0,-5.1174,-5.1082,-5.1241,-5.102,-5.0449,-5.0501,-5.0577,-5.0559,-5.0506,-5.0898,0.0,0.0,0.0,0.0,0.0,0.0,-5.1654,0.0,0.0,0.0,0.0,0.0,0.0,0.0,0.0,0.0,0.0,0.0,0.0,-5.0047,-5.01,-5.0348,-5.068,-5.0602,-5.0341,-5.0057,-4.9884,-4.9691,-4.9411,-4.9229,-4.9063,-4.8736,-4.8483,-4.8227,-4.7787,-4.7454,-4.703,-4.6545,0.0,0.0,0.0,-4.5075,-4.4742,-4.408,-4.3762,-4.3314,-4.2864,-4.2281,-4.18,-4.1396,-4.1184,-4.0647,-3.9914,-3.945,-3.946,-3.9982,-3.9123,-3.855,-3.841,-3.8246,-3.7727,-3.689,-3.689,-3.6687,-3.628,-3.609,-3.5995,-3.5981,-3.5791,-3.571,-3.571,-3.571,-3.571,-3.571,-3.571,-3.571,-3.571,-3.548,-3.5318,-3.5154,0.0,0.0,0.0,0.0,0.0,0.0,0.0,-5.0057,-5.0005,-5.0005,-5.0426,-5.0854,-5.1168,-5.1131,-5.1424,-5.2285,0.0,0.0,0.0,0.0,0.0,0.0,0.0,0.0,-5.1957,-5.1944,-5.1879,-5.1817,-5.166,-5.1295,-5.0759,-5.0563,-5.0508,-5.0508,-5.0454,-5.0842,0.0,0.0,0.0,0.0,0.0,0.0,-5.1292,0.0,0.0,0.0,0.0,0.0,0.0,0.0,0.0,0.0,0.0,0.0,0.0,0.0,-4.9938,-4.9971,-5.0425,-5.0285,-4.9999,-4.9884,-4.9649,-4.9471,-4.9168,-4.9001,-4.8832,-4.8373,-4.8163,-4.7902,-4.7454,-4.7115,-4.6738,-4.6246,0.0,0.0,-4.5055,-4.4663,-4.4266,-4.3723,-4.317,-4.2769,-4.2444,-4.2034,-4.1633,-4.1297,-4.0802,-4.0252,-3.9634,-3.8992,-3.8852,-3.9391,-3.8587,-3.8018,-3.7731,-3.7687,-3.7195,-3.6266,-3.6266,-3.6076,-3.571,-3.571,-3.571,-3.571,-3.571,-3.571,0.0,-3.571,-3.571,-3.571,-3.571,-3.5642,-3.5562,-3.5399,-3.5154,-3.4921,0.0,0.0,0.0,0.0,0.0,0.0,0.0,0.0,-4.9978,-4.9978,-4.9871,-5.0156,-5.1083,-5.1026,-5.1307,-5.2303,0.0,0.0,0.0,0.0,0.0,0.0,0.0,0.0,-5.2081,-5.2001,-5.1952,-5.1952,-5.1812,-5.1705,-5.1562,-5.1416,-5.1343,-5.1268,-5.1211,-5.1538,-5.221,-5.2918,-5.2766,-5.2027,-5.1901,-5.1256,0.0,0.0,0.0,0.0,0.0,0.0,0.0,0.0,0.0,0.0,0.0,0.0,0.0,0.0,0.0,0.0,0.0,-4.9884,-4.9708,-4.9649,-4.9411,-4.9107,-4.9001,-4.8832,0.0,0.0,0.0,-4.7571,-4.7251,-4.6668,-4.6214,-4.6001,-4.5687,-4.5278,-4.4739,-4.4435,-4.3957,-4.3061,-4.2835,-4.2526,-4.2049,-4.1604,-4.1226,-4.0944,-4.0224,-3.969,-3.9648,-3.8538,-3.7997,-3.831,-3.8159,-3.7634,-3.6605,-3.7003,-3.6701,-3.571,-3.571,-3.571,-3.571,-3.571,-3.571,-3.571,-3.571,-3.571,-3.571,-3.571,-3.571,-3.571,-3.571,-3.5562,-3.5399,-3.5154,-3.5003,-3.4756,0.0,0.0,0.0,0.0,0.0,0.0,0.0,0.0,0.0,0.0,-4.9816,-5.0193,-5.0951,-5.1017,-5.1544,0.0,0.0,0.0,0.0,0.0,0.0,0.0,0.0,0.0,-5.3743,-5.3601,-5.3531,-5.3477,-5.3349,-5.2902,-5.2177,-5.2005,-5.1966,-5.2042,-5.1906,-5.2287,-5.2955,-5.3011,-5.2889,-5.2594,-5.2417,-5.2173,0.0,0.0,0.0,0.0,-5.1567,-5.149,0.0,0.0,0.0,0.0,0.0,0.0,0.0,0.0,-4.9825,-4.9649,-4.9471,0.0,-4.9488,-4.9246,-4.8984,-4.8781,0.0,-4.8373,0.0,0.0,0.0,0.0,-4.703,-4.6512,-4.6017,-4.5848,-4.5262,-4.4814,-4.4799,-4.4358,-4.3801,-4.3076,-4.2835,-4.2526,-4.2049,-4.1202,-4.0599,-4.0335,-3.9589,-3.8779,-3.8126,-3.7819,-3.7446,-3.6913,-3.6819,-3.6809,-3.6839,-3.6658,-3.6276,-3.571,-3.571,-3.571,-3.571,-3.571,-3.571,-3.571,-3.571,-3.571,-3.571,-3.571,-3.571,-3.571,-3.571,-3.5562,-3.5399,-3.5154,-3.5003,-3.4756,0.0,0.0,0.0,0.0,0.0,0.0,0.0,0.0,0.0,0.0,0.0,0.0,0.0,0.0,0.0,0.0,0.0,0.0,0.0,0.0,0.0,0.0,0.0,-5.4254,-5.42,-5.4037,-5.3944,-5.3907,-5.3736,-5.3378,-5.2816,-5.2655,-5.2633,-5.271,-5.2592,-5.2705,-5.2999,-5.2893,-5.2761,-5.2645,-5.248,0.0,0.0,0.0,0.0,0.0,-5.1556,-5.1472,0.0,-5.107,-5.0874,-5.064,0.0,0.0,0.0,0.0,-4.959,-4.9307,-4.9168,-4.9124,-4.9124,-4.8923,-4.8656,-4.8403,-4.8292,0.0,0.0,0.0,0.0,0.0,-4.6684,-4.6175,-4.5687,-4.5589,-4.5114,-4.4648,-4.4511,-4.3957,-4.3409,-4.2915,-4.2688,-4.226,-4.1396,-4.0818,-4.0256,-3.9643,-3.8858,-3.8271,-3.776,-3.748,-3.7107,-3.6707,-3.6549,-3.6557,-3.6538,-3.6317,-3.6058,-3.571,-3.571,-3.571,-3.571,-3.571,-3.571,-3.571,-3.571,-3.571,-3.571,-3.571,-3.571,-3.571,-3.5642,-3.548,-3.5236,-3.5003,-3.4921,-3.4756,0.0,0.0,0.0,0.0,0.0,0.0,0.0,0.0,0.0,0.0,0.0,0.0,0.0,0.0,0.0,0.0,0.0,0.0,0.0,0.0,0.0,0.0,0.0,-5.4164,-5.4055,-5.3888,-5.3774,-5.3756,-5.3561,-5.344,-5.3277,-5.3212,-5.3146,-5.3121,-5.2999,-5.2893,-5.2761,-5.2654,-5.2536,-5.2452,-5.2293,0.0,0.0,0.0,0.0,0.0,0.0,0.0,0.0,-5.0712,-5.053,-5.0418,-5.0228,0.0,0.0,0.0,0.0,0.0,-4.894,-4.8815,-4.8707,-4.8593,-4.8339,-4.8098,-4.7935,0.0,0.0,0.0,0.0,0.0,0.0,-4.5792,-4.5368,-4.522,-4.4964,-4.4572,-4.3972,-4.3409,-4.2996,-4.2769,-4.2371,-4.1782,-4.0592,-4.0296,-3.979,-3.8844,-3.8131,-3.7751,-3.7751,-3.7274,-3.6978,-3.6978,-3.6772,-3.6563,-3.6166,-3.6086,-3.5992,-3.571,-3.571,-3.571,-3.571,-3.571,-3.571,-3.571,-3.571,-3.571,-3.571,-3.571,-3.571,-3.571,-3.548,-3.5318,-3.5168,-3.4921,-3.4839,-3.4756,0.0,0.0,0.0,0.0,0.0,0.0,0.0,0.0,0.0,0.0,0.0,0.0,0.0,0.0,0.0,0.0,0.0,0.0,0.0,0.0,0.0,-5.3832,-5.3851,-5.3888,-5.3851,-5.3754,-5.3637,-5.3539,-5.3539,-5.3418,-5.3212,-5.3085,-5.2955,-5.2868,-5.285,-5.2761,-5.2654,-5.2554,-5.2434,-5.2311,-5.1956,0.0,0.0,0.0,0.0,0.0,0.0,0.0,0.0,-5.0602,-5.0324,-4.9982,-4.9982,0.0,0.0,0.0,0.0,0.0,-4.842,-4.8292,-4.8244,-4.8115,-4.7919,-4.7704,-4.7604,0.0,0.0,0.0,0.0,0.0,0.0,-4.5515,-4.5204,-4.4964,-4.4648,-4.4205,-4.3488,-4.3329,-4.309,-4.2769,-4.1895,-4.1126,-4.0549,-3.9349,-3.8507,-3.806,-3.747,-3.7133,-3.7133,-3.7035,-3.6978,-3.6978,-3.6772,-3.6563,-3.6325,-3.6166,-3.5992,-3.571,-3.571,-3.571,-3.571,-3.571,-3.571,-3.571,-3.571,-3.571,-3.571,-3.571,-3.571,-3.571,-3.5629,-3.5562,-3.5318,-3.5318,-3.5086,-3.4756,0.0,0.0,0.0,0.0,0.0,0.0,0.0,0.0,0.0,0.0,0.0,0.0,0.0,0.0,0.0,0.0,0.0,0.0,0.0,0.0,0.0,-5.3813,-5.3697,-5.3658,-5.3754,-5.3637,-5.3518,-5.34,-5.3737,-5.3592,-5.3085,-5.2937,-5.2779,-5.2508,-5.2618,-5.2508,-5.2304,-5.2132,-5.2036,-5.1956,0.0,0.0,0.0,0.0,0.0,0.0,0.0,0.0,0.0,0.0,-5.004,-4.975,-4.9573,0.0,0.0,0.0,0.0,0.0,-4.8292,-4.8098,-4.8001,-4.8198,-4.795,-4.7537,-4.7403,0.0,0.0,0.0,0.0,0.0,0.0,-4.5352,-4.4964,-4.4663,-4.4358,-4.3972,-4.3409,-4.309,-4.2717,-4.2041,-4.1507,-4.0749,-3.9736,-3.891,-3.8189,-3.76,-3.7225,-3.6978,-3.6978,-3.6978,-3.6978,-3.6978,-3.6772,-3.6642,-3.6563,-3.6325,-3.6058,-3.571,-3.571,-3.571,-3.571,-3.571,-3.571,-3.571,-3.571,-3.571,-3.571,-3.571,-3.571,-3.571,-3.5562,-3.548,-3.5399,-3.5318,-3.5086,-3.4921,0.0,0.0,0.0,0.0,0.0,0.0,0.0,0.0,0.0,0.0,0.0,0.0,0.0,0.0,0.0,0.0,0.0,0.0,0.0,0.0,-5.3869,-5.3774,-5.3619,-5.3539,-5.3656,-5.3518,-5.347,-5.3511,-5.3983,-5.3851,-5.3123,-5.287,-5.2554,-5.2264,-5.2405,-5.2293,-5.2054,-5.179,-5.169,-5.1658,0.0,0.0,0.0,0.0,0.0,0.0,0.0,0.0,0.0,0.0,0.0,0.0,0.0,0.0,0.0,-4.8656,-4.8403,-4.8163,-4.8098,-4.7902,-4.7752,-4.8253,-4.7972,-4.7629,-4.757,-4.7109,-4.6699,-4.6699,-4.6247,-4.5735,-4.5662,-4.5188,-4.4648,-4.4281,-4.4065,-4.3754,-4.3329,-4.2797,-4.2195,-4.1441,-4.0895,-4.0105,-3.8966,-3.8503,-3.8061,-3.7331,-3.7148,-3.6978,-3.6978,-3.6978,-3.6978,-3.6978,-3.685,-3.6707,-3.6721,-3.6563,-3.6232,-3.5884,-3.5884,-3.5804,-3.5804,-3.5804,-3.5723,-3.571,-3.571,-3.571,-3.571,-3.571,-3.571,-3.571,-3.5562,-3.548,-3.548,-3.5236,-3.5154,-3.5154,0.0,0.0,0.0,0.0,0.0,0.0,0.0,0.0,0.0,0.0,0.0,0.0,0.0,0.0,0.0,0.0,0.0,0.0,0.0,0.0,-5.3714,-5.3714,-5.3579,-5.3499,-5.3499,-5.3336,-5.3494,-5.4133,-5.4188,-5.3991,-5.3559,-5.287,-5.2387,-5.2102,-5.2264,-5.2168,-5.1907,-5.174,-5.1658,-5.1454,-5.1035,0.0,0.0,0.0,0.0,0.0,0.0,0.0,0.0,0.0,0.0,0.0,0.0,0.0,-4.8483,-4.8292,-4.8115,-4.8001,-4.777,-4.7654,-4.7566,-4.7837,-4.7912,-4.7971,-4.849,-4.7773,-4.7091,-4.7091,-4.638,-4.5662,-4.5294,-4.4754,-4.4281,-4.4065,-4.3832,-4.3596,-4.3076,-4.2317,-4.1695,-4.1397,-4.0031,-3.9058,-3.8894,-3.8025,-3.736,-3.7303,-3.7148,-3.6978,-3.6978,-3.6978,-3.6978,-3.6978,-3.6993,-3.6929,-3.6721,-3.6721,-3.6563,-3.6312,-3.6312,-3.6232,-3.6072,-3.6072,-3.5898,-3.571,-3.571,-3.571,-3.571,-3.571,-3.571,-3.571,-3.571,-3.571,-3.5642,-3.548,-3.5399,-3.5399,0.0,0.0,0.0,0.0,0.0,0.0,0.0,0.0,0.0,0.0,0.0,0.0,0.0,0.0,0.0,0.0,0.0,0.0,0.0,-5.3793,-5.3754,-5.3714,-5.3499,-5.3359,-5.3359,-5.375,-5.3744,-5.3324,-5.319,-5.3279,-5.3544,-5.2654,-5.2102,-5.184,-5.1889,-5.1758,-5.1402,-5.1211,-5.1035,-5.0928,-5.0675,-5.0564,0.0,0.0,0.0,0.0,0.0,0.0,0.0,0.0,-4.8984,-4.8781,0.0,0.0,-4.8292,-4.7968,-4.7836,-4.7787,-4.7604,-4.7454,-4.7544,-4.8404,-4.8409,0.0,0.0,-4.8089,-4.7548,-4.7046,-4.6449,-4.5762,-4.4967,-4.4511,-4.4205,-4.4065,-4.366,-4.3344,-4.2835,-4.2033,-4.1316,-4.0669,-3.9712,-3.8953,-3.8547,-3.7906,-3.7457,-3.7457,-3.7148,-3.6978,-3.6978,-3.6978,-3.6978,-3.6978,-3.6978,-3.681,-3.6354,-3.6354,-3.6277,-3.62,-3.6369,-3.6325,-3.6086,-3.6086,-3.5978,-3.571,-3.571,-3.571,-3.571,-3.571,-3.571,-3.571,-3.571,-3.5642,-3.548,-3.5399,-3.5318,-3.5236,0.0,0.0,0.0,0.0,0.0,0.0,0.0,0.0,0.0,0.0,0.0,0.0,0.0,0.0,0.0,0.0,0.0,0.0,-5.3717,-5.3678,-5.3619,-5.3558,-5.3336,-5.3193,-5.3133,-5.3811,-5.3843,-5.3188,-5.2935,-5.299,-5.3351,-5.2479,-5.1889,-5.164,-5.1571,-5.1315,-5.0963,-5.082,-5.0657,-5.0492,-5.0397,-5.0285,0.0,0.0,0.0,0.0,0.0,0.0,0.0,0.0,0.0,0.0,0.0,0.0,0.0,0.0,-4.7588,-4.7437,-4.7319,-4.7115,-4.7114,-4.8167,0.0,0.0,-4.8386,-4.8346,-4.7988,-4.7186,-4.6495,-4.5832,-4.4786,-4.4358,-4.4127,-4.391,-4.3503,-4.3016,-4.2488,-4.1659,-4.0777,-3.9886,-3.9262,-3.8696,-3.8246,-3.7839,-3.7625,-3.7625,-3.7226,-3.6978,-3.6978,-3.6978,-3.6978,-3.6978,-3.6796,-3.6501,-3.6065,-3.5883,-3.5784,-3.5709,-3.5836,-3.6018,-3.6166,-3.6166,-3.5978,-3.571,-3.571,-3.5629,-3.5642,-3.5629,-3.571,-3.571,-3.571,-3.5642,-3.548,-3.548,-3.5399,-3.5318,0.0,0.0,0.0,0.0,0.0,0.0,0.0,0.0,0.0,0.0,0.0,0.0,0.0,0.0,0.0,0.0,0.0,0.0,-5.3481,-5.3359,-5.33,-5.33,-5.3109,-5.2955,-5.2806,-5.3298,-5.3715,-5.3982,-5.3657,-5.3369,-5.3086,-5.2265,-5.1758,-5.1505,-5.128,-5.107,-5.082,-5.064,-5.0436,-5.0189,-5.0189,-4.9999,-4.9708,0.0,0.0,0.0,0.0,0.0,0.0,0.0,-4.8163,0.0,0.0,0.0,0.0,0.0,-4.7183,-4.6876,-4.6876,-4.6598,-4.6438,-4.6996,0.0,0.0,-4.8356,-4.8608,-4.8404,-4.7666,-4.6655,-4.5603,-4.4771,-4.4281,-4.391,-4.3769,-4.3329,-4.2678,-4.1818,-4.1028,-4.0164,-3.9276,-3.8609,-3.8202,-3.8202,-3.7839,-3.7625,-3.7625,-3.7226,-3.6978,-3.6978,-3.6978,-3.6978,-3.6978,-3.6388,-3.6065,-3.6051,-3.5522,-3.5064,-3.4915,-3.4915,-3.5419,-3.6391,-3.6152,-3.5978,-3.571,-3.571,-3.5562,-3.5399,-3.5642,-3.571,-3.571,-3.571,-3.571,-3.571,-3.571,-3.571,-3.571,0.0,0.0,0.0,0.0,0.0,0.0,0.0,0.0,0.0,0.0,0.0,0.0,0.0,0.0,0.0,0.0,0.0,0.0,-5.3499,-5.3359,-5.3277,-5.3254,-5.3085,-5.2893,-5.2654,-5.2679,-5.2954,-5.3532,-5.2731,-5.2297,-5.2097,-5.1663,-5.1333,-5.0982,-5.0857,-5.064,-5.0341,-5.0211,-4.9982,-4.9825,-4.9784,-4.953,-4.935,0.0,0.0,0.0,0.0,0.0,0.0,0.0,0.0,0.0,0.0,0.0,0.0,-4.7319,-4.7098,-4.6876,-4.6738,-4.6528,-4.6438,-4.6996,0.0,0.0,-4.7114,-4.7525,-4.7605,-4.6562,-4.5649,-4.4894,-4.4465,-4.422,-4.391,-4.3503,-4.309,-4.2452,-4.1645,-4.0762,-3.9964,-3.9276,-3.8609,-3.8202,-3.8202,-3.7839,-3.7701,-3.7777,-3.7303,-3.707,-3.7226,-3.707,-3.6796,-3.636,-3.6164,-3.5658,-3.4787,-3.4604,-3.4419,-3.4186,-3.42,-3.4643,-3.5535,-3.5456,-3.5582,-3.571,-3.571,-3.5629,-3.5642,-3.571,-3.571,-3.571,-3.571,-3.571,-3.571,-3.571,-3.5642,-3.548,0.0,0.0,0.0,0.0,0.0,0.0,0.0,0.0,0.0,0.0,-5.0527,-5.1065,0.0,0.0,0.0,0.0,0.0,0.0,0.0,-5.3235,-5.3109,-5.298,-5.2868,-5.2645,-5.2333,-5.2162,-5.222,-5.2573,-5.209,-5.169,-5.1538,-5.1228,-5.0982,-5.082,-5.0474,-5.0211,-5.0057,-4.9825,-4.9649,-4.9471,-4.9411,-4.9229,-4.9001,0.0,0.0,0.0,0.0,0.0,0.0,0.0,0.0,0.0,0.0,0.0,0.0,-4.703,-4.6823,-4.6615,-4.6474,-4.6278,0.0,-4.637,-4.6408,-4.617,-4.5947,-4.6403,-4.6733,-4.5912,-4.5264,-4.4757,-4.4266,-4.3988,-4.3754,-4.325,-4.293,-4.2298,-4.1228,-4.0523,-3.977,-3.8913,-3.8449,-3.8202,-3.8202,-3.7915,-3.7777,-3.7853,-3.738,-3.7148,-3.7303,-3.7148,-3.681,-3.6445,-3.5953,-3.5349,-3.4604,-3.4126,-3.3716,-3.3531,-3.3545,-3.3868,-3.4457,-3.495,-3.5282,-3.5464,-3.5534,-3.5642,-3.571,-3.5642,-3.5642,-3.571,-3.571,-3.571,-3.571,-3.571,-3.5642,-3.5562,0.0,0.0,-4.9825,-4.9861,0.0,0.0,0.0,0.0,0.0,0.0,-4.988,-5.0157,0.0,0.0,0.0,-5.1885,0.0,0.0,0.0,0.0,-5.2631,-5.2372,-5.229,-5.2065,-5.1799,-5.1562,-5.1411,-5.1347,-5.1554,-5.1538,-5.1228,-5.0928,-5.0749,-5.0694,-5.0154,-4.9866,-4.9884,-4.959,-4.9367,-4.9168,-4.9107,-4.894,-4.8769,-4.8656,0.0,0.0,0.0,0.0,0.0,0.0,0.0,0.0,0.0,0.0,-4.7115,-4.6738,-4.6458,-4.6278,-4.6168,-4.5952,-4.5735,-4.5515,-4.5442,-4.5352,-4.4949,-4.5354,-4.5727,-4.5573,-4.534,-4.4922,-4.4172,-4.3847,-4.3518,-4.3076,-4.279,-4.2107,-4.0651,-4.0232,-3.9567,-3.8347,-3.8202,-3.8202,-3.8202,-3.7991,-3.7929,-3.7929,-3.7534,-3.7303,-3.7303,-3.7148,-3.695,-3.6908,-3.5812,-3.5254,-3.5142,-3.3958,-3.3283,-3.2988,-3.2988,-3.3137,-3.3266,-3.4498,-3.5049,-3.5172,-3.5332,-3.5562,-3.571,-3.548,-3.5562,-3.571,-3.571,-3.571,-3.571,-3.571,-3.571,-3.571,0.0,0.0,-4.9067,-4.9619,0.0,0.0,0.0,0.0,0.0,0.0,0.0,0.0,0.0,-5.0667,0.0,-5.09,-5.1064,0.0,0.0,0.0,-5.0817,-5.0623,-5.0335,-5.036,-5.0794,-4.9977,-4.9827,-5.0257,-5.098,-5.1228,-5.0928,-5.0712,-5.0418,-5.0097,-4.9866,-4.9708,-4.9547,-4.9246,-4.9063,-4.9001,-4.861,-4.8356,-4.8308,-4.8179,-4.7984,0.0,0.0,0.0,0.0,0.0,0.0,0.0,-4.703,-4.6945,-4.6892,-4.6652,-4.6458,-4.6278,-4.6168,-4.5807,0.0,-4.5515,-4.5278,-4.4964,-4.4723,-4.4771,-4.4863,-4.4787,-4.4649,-4.4372,-4.408,-4.3847,-4.3518,-4.285,-4.2261,-4.1498,-4.0377,-3.9697,-3.9102,-3.8304,-3.8202,-3.8202,-3.8202,-3.7991,-3.7929,-3.7929,-3.7534,-3.7303,-3.7303,-3.7148,-3.6768,-3.6276,-3.6009,-3.5419,-3.4436,-3.4169,-3.3647,-3.2988,-3.3157,-3.3071,-3.2866,-3.3957,-3.4794,-3.5614,-3.5575,-3.5629,-3.571,-3.5642,-3.5629,-3.571,-3.571,-3.571,-3.571,-3.571,-3.571,-3.571,0.0,0.0,0.0,0.0,0.0,0.0,0.0,0.0,0.0,0.0,0.0,0.0,0.0,-4.9585,0.0,0.0,-5.0263,-5.0459,-5.0375,-5.0264,-5.0071,-4.9721,-4.9478,-4.9483,-4.9696,-4.9174,-4.9023,-4.9205,-4.9591,-4.9925,-5.0169,-4.9513,-4.9461,-4.9849,-4.9154,-4.9027,-4.9246,-4.8923,-4.8736,-4.8753,-4.8356,-4.8163,-4.8115,-4.7919,-4.7721,-4.7588,-4.7521,0.0,0.0,0.0,0.0,0.0,0.0,0.0,-4.6615,-4.6404,-4.6278,-4.6152,-4.588,0.0,0.0,-4.5278,0.0,-4.4723,-4.4648,-4.4572,-4.4572,-4.4511,-4.4281,-4.405,-4.391,-4.3675,-4.3344,-4.2769,-4.2143,-4.1336,-4.027,-3.9581,-3.8957,-3.8275,-3.8202,-3.8202,-3.8202,-3.8142,-3.7991,-3.7929,-3.7701,-3.7457,-3.7303,-3.7226,-3.6916,-3.6515,-3.622,-3.5756,-3.5124,-3.4829,-3.4293,-3.3591,-3.3676,-3.3758,-3.3761,-3.4189,-3.4845,-3.571,-3.5817,-3.5804,-3.571,-3.571,-3.571,-3.571,-3.571,-3.571,-3.571,-3.571,-3.571,-3.571,0.0,0.0,0.0,0.0,0.0,0.0,0.0,0.0,0.0,0.0,0.0,0.0,0.0,-4.8593,-4.8953,0.0,0.0,0.0,-4.9778,-4.9629,-4.9388,-4.8889,-4.8799,-4.8692,-4.8567,-4.8375,-4.8273,-4.8138,-4.777,-4.81,-4.892,-4.8017,-4.8282,-4.9337,-4.8311,-4.8223,-4.8754,-4.8497,-4.842,-4.842,-4.8163,-4.7984,-4.7869,-4.7638,-4.7504,-4.7403,-4.7183,-4.703,-4.6961,-4.6668,0.0,0.0,0.0,0.0,-4.6262,-4.6168,-4.6112,-4.5968,-4.5589,0.0,-4.5278,-4.4949,-4.4723,0.0,-4.4572,-4.4587,-4.4435,-4.4281,-4.4143,-4.391,-4.3769,-4.3503,-4.317,-4.2769,-4.2054,-4.1204,-4.0255,-3.9479,-3.8826,-3.8275,-3.8202,-3.8202,-3.8202,-3.8202,-3.8142,-3.7853,-3.7853,-3.7701,-3.7303,-3.7226,-3.7148,-3.6978,-3.6501,-3.6178,-3.6065,-3.5634,-3.4997,-3.4393,-3.4321,-3.4496,-3.4933,-3.4809,-3.5109,-3.5804,-3.5978,-3.5898,-3.571,-3.571,-3.571,-3.571,-3.571,-3.571,-3.571,-3.571,-3.571,-3.571,0.0,0.0,0.0,0.0,0.0,0.0,0.0,0.0,0.0,0.0,-4.7992,-4.7992,0.0,-4.7984,-4.7975,-4.7904,-4.7892,-4.7818,-4.7713,0.0,0.0,-4.7144,-4.7003,-4.7148,-4.7588,-4.6803,-4.6584,-4.7038,-4.6151,-4.6096,-4.6711,-4.7146,-4.7352,-4.7367,-4.7537,-4.772,-4.7827,-4.7978,-4.8066,-4.7984,-4.7521,-4.7454,-4.7537,-4.7167,-4.703,-4.6961,-4.6738,-4.6598,-4.6404,-4.6333,-4.6333,0.0,0.0,0.0,-4.6262,-4.6168,-4.5968,-4.5807,-4.5589,0.0,-4.4964,0.0,-4.4511,-4.4358,0.0,-4.4358,-4.405,-4.4065,-4.3988,-4.391,-4.3769,-4.3503,-4.317,-4.2769,-4.1686,-4.0705,-4.0197,-3.9088,-3.8304,-3.8217,-3.8202,-3.8202,-3.8202,-3.8202,-3.8052,-3.7701,-3.7625,-3.7457,-3.707,-3.7056,-3.7056,-3.6978,-3.6908,-3.6613,-3.6079,-3.5981,-3.5644,-3.5026,-3.4878,-3.4974,-3.5328,-3.5341,-3.5636,-3.6072,-3.5817,-3.5723,-3.571,-3.571,-3.571,-3.571,-3.571,-3.571,-3.571,-3.571,-3.571,-3.571,0.0,0.0,0.0,0.0,0.0,0.0,0.0,0.0,0.0,0.0,0.0,-4.7705,0.0,-4.7603,-4.7518,-4.7468,-4.7381,-4.7249,-4.7053,-4.6934,-4.6778,-4.659,-4.6447,-4.6411,-4.6479,-4.6028,-4.5857,-4.603,-4.5472,-4.5463,-4.6015,-4.6106,-4.6599,-4.753,-4.7396,-4.7534,-4.7841,-4.7852,-4.7787,-4.7671,-4.747,-4.7335,-4.7335,-4.703,-4.6807,-4.6668,-4.642,-4.6349,-4.6262,-4.6064,-4.581,-4.5594,-4.5953,0.0,0.0,0.0,-4.5362,-4.5442,-4.5204,-4.4964,-4.4648,0.0,-4.4358,-4.4281,-4.4281,-4.4143,-4.3988,-4.3832,-4.3832,-4.3754,-4.3503,-4.3344,-4.317,-4.2769,-4.1907,-4.1013,-4.0226,-3.9334,-3.8623,-3.8246,-3.8202,-3.8202,-3.8202,-3.8202,-3.8066,-3.7777,-3.7839,-3.7763,-3.738,-3.7457,-3.738,-3.7148,-3.7148,-3.7021,-3.6585,-3.6571,-3.6199,-3.5549,-3.5474,-3.537,-3.5388,-3.5825,-3.5971,-3.5898,-3.5898,-3.5817,-3.571,-3.571,-3.571,-3.571,-3.571,-3.571,-3.571,-3.571,-3.571,-3.571,0.0,0.0,0.0,0.0,0.0,0.0,0.0,0.0,0.0,0.0,0.0,0.0,0.0,0.0,0.0,0.0,-4.716,-4.6998,-4.6778,-4.6684,-4.6542,-4.6332,-4.6137,-4.5955,-4.5718,-4.5546,-4.5389,-4.5264,-4.5049,-4.5188,-4.5676,-4.5505,-4.6234,-4.7625,-4.7174,-4.7137,-4.7389,-4.749,-4.7521,-4.7403,-4.7319,-4.7183,-4.703,-4.677,-4.6615,-4.6404,-4.6168,-4.608,-4.6136,-4.5807,-4.5317,-4.4899,-4.5293,-4.4871,0.0,0.0,0.0,-4.4542,0.0,0.0,-4.425,-4.4098,-4.4082,-4.4127,0.0,-4.391,-4.3832,-4.369,-4.3539,-4.3341,-4.309,-4.309,-4.2932,-4.2598,-4.176,-4.0896,-4.0086,-3.9334,-3.8754,-3.826,-3.8202,-3.8202,-3.8202,-3.8202,-3.8142,-3.7929,-3.8066,-3.7991,-3.7625,-3.7701,-3.7553,-3.7076,-3.6985,-3.6838,-3.6529,-3.6669,-3.6452,-3.5878,-3.6032,-3.5933,-3.5792,-3.6263,-3.6232,-3.5884,-3.6072,-3.6072,-3.5804,-3.5884,-3.5884,-3.5804,-3.5884,-3.5884,-3.5884,-3.5884,-3.5884,-3.5884,0.0,0.0,0.0,0.0,0.0,0.0,0.0,0.0,0.0,0.0,0.0,0.0,-4.7302,-4.7249,-4.7133,-4.7043,-4.6888,-4.6731,-4.6637,-4.6381,-4.6235,-4.6186,-4.5837,0.0,-4.5441,-4.5283,-4.5086,-4.4831,-4.4831,-4.5038,-4.5437,-4.5784,-4.6288,-4.6955,-4.6746,-4.6238,-4.5711,-4.6781,-4.7251,-4.7183,-4.6807,-4.6668,-4.6598,-4.6294,-4.6112,-4.6096,-4.588,-4.5807,-4.5807,-4.5589,-4.5044,-4.4495,-4.4309,-4.4221,-4.4065,0.0,0.0,0.0,0.0,-4.3008,0.0,-4.3334,-4.3517,-4.3769,0.0,-4.366,-4.3423,-4.369,-4.3022,-4.2494,-4.2494,-4.2417,-4.2324,-4.2075,-4.0867,-3.9812,-3.954,-3.8804,-3.8246,-3.8202,-3.8202,-3.8202,-3.8202,-3.8202,-3.8142,-3.7929,-3.7929,-3.7853,-3.7625,-3.7457,-3.7034,-3.6439,-3.6273,-3.5916,-3.5325,-3.5826,-3.6107,-3.6079,-3.6655,-3.6794,-3.6665,-3.6707,-3.6563,-3.6391,-3.6405,-3.6246,-3.6072,-3.6312,-3.6232,-3.6086,-3.6325,-3.6391,-3.6391,-3.6391,-3.6391,-3.6325,0.0,0.0,0.0,0.0,0.0,0.0,0.0,0.0,0.0,0.0,0.0,0.0,0.0,-4.7025,-4.6888,-4.6731,-4.6637,-4.6447,-4.6204,-4.6105,-4.6005,-4.5837,-4.558,-4.5441,0.0,-4.5032,-4.4886,-4.4776,-4.4592,-4.468,-4.5109,-4.5652,-4.5838,-4.5815,-4.6733,-4.6979,-4.6634,-4.7023,-4.703,-4.6807,-4.6668,-4.6528,-4.6404,-4.6168,-4.6112,-4.604,-4.588,-4.5735,-4.5589,-4.5515,-4.4971,-4.4309,-4.4705,-4.4148,-4.3242,-4.2881,-4.235,-4.1961,0.0,0.0,0.0,-4.2333,-4.2365,-4.2394,-4.2318,-4.2241,-4.2087,-4.2164,-4.1985,-4.1728,-4.1728,-4.1728,-4.1652,-4.1421,-4.0959,-4.0438,-3.9782,-3.9427,-3.9059,-3.8619,-3.8575,-3.8575,-3.8575,-3.8575,-3.8501,-3.8292,-3.8306,-3.8217,-3.7991,-3.7901,-3.7552,-3.6785,-3.6696,-3.6234,-3.5314,-3.5845,-3.6003,-3.5878,-3.6493,-3.6707,-3.6484,-3.6642,-3.6563,-3.6391,-3.6693,-3.6615,-3.6325,-3.6405,-3.6325,-3.6325,-3.6405,-3.6405,-3.6405,-3.6405,-3.6405,-3.6405,0.0,0.0,0.0,0.0,0.0,0.0,0.0,0.0,0.0,-4.7133,0.0,0.0,0.0,0.0,-4.6637,-4.6495,-4.6332,-4.6154,-4.5854,-4.5803,-4.5701,-4.5494,-4.5283,0.0,0.0,-4.4759,-4.4609,-4.4553,-4.4327,-4.4507,-4.528,-4.552,-4.5715,-4.5963,-4.691,-4.7053,-4.6705,-4.6932,-4.6823,-4.6528,-4.6474,-4.6349,-4.6223,-4.6096,-4.5968,-4.588,-4.5735,-4.5447,-4.5023,-4.5023,-4.4237,-4.3391,-4.3816,-4.3092,-4.2067,-4.2186,-4.1699,-4.1097,-4.1556,-4.1629,0.0,0.0,-4.1505,-4.1596,-4.146,-4.1384,-4.1384,-4.1384,-4.1205,-4.1055,-4.1055,-4.0876,-4.0726,-4.0875,-4.065,-4.0203,-3.9683,-3.955,-3.9298,-3.8841,-3.8782,-3.8782,-3.8723,-3.8723,-3.8649,-3.8427,-3.8366,-3.8366,-3.8202,-3.8052,-3.7541,-3.6425,-3.6182,-3.5608,-3.4693,-3.5226,-3.5498,-3.5571,-3.6186,-3.6498,-3.6628,-3.6707,-3.6707,-3.6628,-3.6915,-3.6758,-3.6325,-3.6484,-3.6484,-3.6405,-3.6405,-3.647,-3.6628,-3.647,-3.647,-3.6549,0.0,0.0,0.0,0.0,0.0,0.0,0.0,0.0,-4.7015,-4.6998,0.0,0.0,0.0,0.0,0.0,-4.6186,-4.6073,-4.5871,-4.558,-4.5494,-4.5336,-4.5177,-4.4923,0.0,0.0,0.0,0.0,0.0,-4.3939,-4.4614,-4.5918,-4.5483,-4.6094,-4.7437,-4.7082,-4.6435,-4.5617,-4.6277,-4.6442,-4.6262,-4.6152,-4.608,-4.604,-4.588,-4.5662,-4.5515,-4.5484,-4.4914,-4.419,-4.3956,-4.2984,-4.1813,-4.1703,-4.114,-4.0693,-4.137,-4.1078,-4.047,0.0,0.0,0.0,-4.0719,-4.0995,-4.1324,-4.1324,-4.1324,-4.1324,-4.1324,-4.0816,-4.0367,-4.0367,-3.9843,-3.9634,-4.0262,-3.9667,-3.9104,-3.9104,-3.8943,-3.8782,-3.8782,-3.8782,-3.8723,-3.8516,-3.8516,-3.8441,-3.8202,-3.8202,-3.8202,-3.8202,-3.7825,-3.6888,-3.5264,-3.4604,-3.3972,-3.3354,-3.3972,-3.4576,-3.524,-3.5798,-3.6402,-3.6978,-3.6978,-3.6978,-3.6978,-3.6978,-3.6693,-3.6166,-3.6563,-3.6563,-3.6405,-3.6405,-3.6615,-3.6993,-3.6549,-3.6693,-3.6915,0.0,0.0,0.0,0.0,0.0,0.0,0.0,0.0,-4.75,0.0,0.0,0.0,-4.6495,-4.6301,-4.6122,-4.5922,-4.5803,-4.5649,-4.5494,-4.5336,-4.514,-4.494,-4.4703,-4.4519,0.0,0.0,0.0,0.0,0.0,0.0,0.0,0.0,-4.5685,-4.6267,-4.6718,-4.6435,-4.56,-4.5882,-4.6078,-4.612,-4.5665,-4.5706,-4.588,-4.5662,-4.5515,-4.5452,-4.4804,-4.4289,-4.3909,-4.334,-4.3159,-4.2998,-4.2479,-4.1863,-4.1232,-4.0924,-4.0484,-4.0137,-4.0066,0.0,0.0,0.0,0.0,0.0,-3.9963,-3.9963,-3.9963,-3.9963,-3.9813,-3.9694,-3.9694,-3.9544,-3.9484,-3.9664,-3.9457,-3.9337,-3.9337,-3.9104,-3.9017,-3.9017,-3.887,-3.8797,-3.8723,-3.8723,-3.8649,-3.8441,-3.8441,-3.8366,-3.8202,-3.7558,-3.6871,-3.6305,-3.5532,-3.475,-3.4129,-3.5099,-3.5433,-3.5194,-3.6234,-3.6824,-3.6978,-3.6978,-3.6915,-3.6786,-3.6915,-3.6772,-3.6325,-3.6563,-3.6786,-3.6836,-3.6707,-3.6772,-3.6993,-3.6707,-3.6707,-3.6786,0.0,0.0,0.0,0.0,0.0,0.0,0.0,-4.7417,-4.7234,0.0,0.0,0.0,-4.6253,-4.6005,-4.5752,-4.5649,-4.5494,-4.5336,-4.5177,-4.5086,-4.4923,-4.4592,-4.4463,-4.4293,0.0,0.0,0.0,0.0,0.0,0.0,0.0,0.0,0.0,-4.5974,-4.6637,-4.6366,-4.5484,-4.5298,-4.5399,-4.5619,-4.5174,-4.5302,-4.5662,-4.5515,-4.518,-4.4736,-4.4273,-4.3614,-4.2855,-4.2469,-4.2304,-4.2232,-4.1863,-4.1407,-4.0938,-4.0523,-4.0207,-3.9996,-3.9925,-3.9696,-3.9481,-3.9409,0.0,0.0,-3.9424,-3.9424,-3.9424,-3.9424,-3.9424,-3.9424,-3.9424,-3.9424,-3.9424,-3.9424,-3.9424,-3.9424,-3.9424,-3.9265,-3.9265,-3.9265,-3.9104,-3.9017,-3.8943,-3.8943,-3.8797,-3.8516,-3.8516,-3.8366,-3.8066,-3.7569,-3.7028,-3.6621,-3.6028,-3.5384,-3.4778,-3.5395,-3.5644,-3.5574,-3.6276,-3.674,-3.6978,-3.6978,-3.6915,-3.685,-3.6915,-3.685,-3.6563,-3.6642,-3.6786,-3.685,-3.6549,-3.6628,-3.685,-3.6457,-3.6391,-3.6563,0.0,0.0,-4.805,-4.8032,-4.798,0.0,0.0,-4.7186,-4.6631,0.0,-4.6332,-4.6253,-4.5972,-4.5701,-4.5529,-4.5389,-4.523,-4.5032,-4.4776,-4.4776,-4.4592,-4.431,0.0,0.0,0.0,0.0,0.0,0.0,0.0,0.0,0.0,0.0,0.0,-4.6057,-4.6475,-4.6136,-4.5245,-4.4581,-4.4525,-4.4888,-4.4677,-4.4937,-4.5515,-4.5363,-4.472,-4.3882,-4.3743,-4.2762,-4.1601,-4.153,-4.1054,-4.047,-4.0547,-4.0392,-4.0277,-4.0277,-4.0137,-3.9925,-3.9768,-3.9681,-3.961,-3.9409,-3.9424,0.0,-3.9424,-3.9424,-3.9424,-3.9424,-3.9424,-3.9424,-3.9424,-3.9424,-3.9424,-3.9424,-3.9424,-3.9424,-3.9424,-3.9352,-3.9337,-3.9337,-3.9337,-3.9265,-3.9031,-3.9031,-3.8885,-3.8516,-3.8441,-3.8292,-3.7853,-3.7701,-3.7291,-3.6495,-3.633,-3.5883,-3.5339,-3.5395,-3.5677,-3.6065,-3.6136,-3.6459,-3.6978,-3.6978,-3.6978,-3.6978,-3.6993,-3.685,-3.6721,-3.6721,-3.6642,-3.6642,-3.6246,-3.6325,-3.6549,-3.5965,-3.5978,-3.6325,-4.6842,-4.6966,-4.7026,-4.6915,0.0,0.0,0.0,0.0,-4.7121,-4.6323,-4.6055,-4.5803,-4.5546,-4.5494,-4.5336,-4.5086,-4.494,-4.4759,-4.4575,-4.4463,-4.431,-4.4155,0.0,0.0,0.0,0.0,0.0,0.0,0.0,0.0,0.0,0.0,0.0,0.0,-4.505,-4.503,-4.5213,-4.3783,-4.3588,-4.4204,-4.4135,-4.467,-4.5452,-4.4757,-4.4242,-4.3774,-4.253,-4.173,-4.1357,-4.1142,-4.0629,-4.0157,-4.0705,-4.0507,-4.0066,-4.0066,-3.9925,-3.9768,-3.9681,-3.9553,-3.9409,-3.9424,-3.9424,0.0,-3.9424,-3.9424,-3.9424,-3.9424,-3.9424,-3.9424,-3.9424,-3.9424,-3.9424,-3.9424,-3.9424,-3.9424,-3.9424,-3.9265,-3.9177,-3.9177,-3.9017,-3.887,-3.8664,-3.859,-3.8516,-3.8277,-3.8277,-3.8066,-3.7701,-3.7625,-3.74,-3.6887,-3.6796,-3.6501,-3.5897,-3.6388,-3.6431,-3.6079,-3.6571,-3.6866,-3.6978,-3.6978,-3.6978,-3.6978,-3.685,-3.6707,-3.6721,-3.6563,-3.6484,-3.6484,-3.6405,-3.6405,-3.6405,-3.6152,-3.6072,-3.6152,-4.6637,-4.6974,-4.7305,-4.7192,0.0,0.0,0.0,0.0,-4.661,-4.6157,-4.5803,-4.5494,-4.5336,-4.5177,-4.5032,-4.4797,-4.4648,-4.448,-4.4293,-4.4121,-4.4023,0.0,0.0,0.0,0.0,0.0,0.0,0.0,0.0,0.0,0.0,0.0,0.0,-4.4554,-4.4825,-4.4834,-4.458,-4.3795,-4.3579,-4.386,-4.386,-4.4062,-4.4319,-4.4263,-4.3625,-4.2654,-4.1761,-4.1072,-4.0639,-4.0512,-4.0284,-4.0071,-4.0405,-4.0198,-3.9839,-3.9839,-3.9696,-3.9553,-3.9553,-3.9496,-3.9424,-3.9424,-3.9424,0.0,0.0,-3.9424,-3.9424,-3.9424,-3.9424,-3.9424,-3.9424,-3.9424,-3.9424,-3.9424,-3.9337,-3.9265,-3.9424,-3.9265,-3.9104,-3.9104,-3.8943,-3.8782,-3.8649,-3.8738,-3.8738,-3.8501,-3.8427,-3.8217,-3.7915,-3.7763,-3.7625,-3.7303,-3.7226,-3.6993,-3.6529,-3.6838,-3.6838,-3.6529,-3.6838,-3.6978,-3.6978,-3.6929,-3.685,-3.685,-3.6628,-3.6484,-3.6405,-3.6405,-3.6232,-3.6058,-3.6232,-3.6246,-3.6246,-3.6166,-3.5992,-3.5898,-4.6429,-4.6976,-4.7466,-4.7466,0.0,0.0,0.0,0.0,-4.5922,-4.5871,-4.5546,-4.523,-4.5069,-4.4732,-4.4439,-4.4373,-4.4158,-4.4044,-4.3964,-4.3848,-4.3654,-4.3492,0.0,-4.3207,0.0,0.0,0.0,0.0,0.0,0.0,0.0,0.0,-4.3396,-4.3524,-4.4455,-4.4525,-4.3949,-4.3663,-4.3511,-4.3516,-4.3463,-4.3301,-4.3161,-4.3541,-4.2829,-4.1571,-4.1204,-4.0593,-3.9925,-3.9925,-3.9854,-3.9854,-3.9854,-3.9783,-3.9625,-3.9625,-3.9553,-3.9424,-3.9424,-3.9424,-3.9424,-3.9424,-3.9424,-3.9424,0.0,0.0,0.0,-3.9424,-3.9424,-3.9424,-3.9424,-3.9424,-3.9424,-3.9424,-3.9265,-3.9192,-3.9352,-3.9265,-3.9104,-3.9177,-3.9017,-3.887,-3.887,-3.8943,-3.8943,-3.8797,-3.859,-3.8366,-3.8142,-3.8005,-3.7777,-3.7625,-3.7457,-3.7303,-3.7148,-3.7148,-3.7148,-3.7148,-3.707,-3.707,-3.707,-3.685,-3.6786,-3.6707,-3.647,-3.6325,-3.6166,-3.6232,-3.6058,-3.5723,-3.5992,-3.6072,-3.5992,-3.5992,-3.5898,-3.5723,-4.6398,-4.6403,-4.6326,-4.6213,0.0,0.0,0.0,0.0,-4.5718,-4.5494,-4.514,-4.4814,-4.4614,-4.3872,-4.3513,-4.3823,-4.3421,-4.3263,-4.3443,-4.3568,-4.3492,-4.3174,0.0,0.0,-4.2899,0.0,0.0,0.0,0.0,0.0,0.0,0.0,-4.2703,-4.3346,-4.2489,0.0,-4.3918,-4.2497,-4.2205,-4.2805,-4.2601,-4.2739,-4.3051,-4.231,-4.1906,-4.1454,-4.0472,-3.9985,-3.9696,-3.9568,-3.9496,-3.9496,-3.9496,-3.9424,-3.9409,-3.9409,-3.9424,-3.9424,-3.9424,-3.9424,-3.9424,-3.9424,-3.9424,-3.9424,-3.9424,0.0,-3.9424,-3.9424,0.0,-3.9424,-3.9424,0.0,0.0,-3.9424,-3.9352,-3.9337,-3.9424,-3.9265,-3.9177,-3.9337,-3.9337,-3.9265,-3.9104,-3.8943,-3.8723,-3.859,-3.8516,-3.8292,-3.7929,-3.7929,-3.7777,-3.7625,-3.7625,-3.7534,-3.7534,-3.7534,-3.7534,-3.7534,-3.738,-3.7303,-3.7226,-3.707,-3.6993,-3.6915,-3.6549,-3.6405,-3.6325,-3.5965,-3.5723,-3.5723,-3.5992,-3.5978,-3.5723,-3.5723,-3.5723,-3.571,-4.6253,-4.6253,-4.6014,-4.5478,0.0,0.0,0.0,0.0,-4.4906,-4.4892,-4.4742,-4.4519,-4.431,-4.391,-4.3746,-4.3848,-4.3523,-4.3339,-4.3416,-4.3267,-4.3146,-4.3007,-4.2821,-4.2696,0.0,0.0,0.0,0.0,-4.2571,0.0,0.0,0.0,-4.2526,-4.2832,-4.2636,-4.282,-4.3329,-4.2541,-4.241,-4.2647,-4.1899,-4.1778,-4.1959,-4.1845,-4.1309,-4.0603,-4.0173,-3.9783,-3.9481,-3.9424,-3.9424,-3.9424,-3.9424,-3.9424,-3.9424,-3.9424,-3.9424,-3.9337,-3.9265,-3.9265,-3.9265,-3.9265,-3.9265,-3.9265,-3.9337,-3.9424,-3.9424,-3.9424,0.0,0.0,0.0,0.0,0.0,0.0,-3.9265,-3.9265,-3.9352,-3.9265,-3.9104,-3.9192,-3.9104,-3.9031,-3.9104,-3.8943,-3.8782,-3.8649,-3.859,-3.8366,-3.8066,-3.8066,-3.7991,-3.7777,-3.7777,-3.7701,-3.7625,-3.7625,-3.7625,-3.7625,-3.738,-3.7303,-3.7303,-3.7007,-3.685,-3.6772,-3.6549,-3.6405,-3.6405,-3.6072,-3.5898,-3.5898,-3.5898,-3.5804,-3.5723,-3.5898,-3.5804,-3.5764,-4.5807,-4.5758,-4.5463,-4.4645,0.0,0.0,0.0,0.0,-4.4162,-4.4185,-4.4328,-4.431,-4.4039,-4.363,-4.3431,-4.3654,-4.3205,-4.302,-4.3157,-4.3007,-4.2899,-4.2837,-4.2696,-4.2634,-4.2634,0.0,0.0,0.0,0.0,0.0,0.0,0.0,0.0,-4.2461,-4.2751,-4.2778,-4.268,-4.2512,-4.2394,-4.228,-4.144,-4.1034,-4.0945,-4.1287,-4.09,-4.0081,-3.9996,-3.9783,-3.9481,-3.9424,-3.9424,-3.9424,-3.9424,-3.9337,-3.9337,-3.9352,-3.9337,-3.9192,-3.9104,-3.9104,-3.9104,-3.9017,-3.9031,-3.9104,-3.9192,-3.9265,-3.9337,-3.9337,-3.9337,0.0,0.0,0.0,-3.9424,-3.9424,0.0,-3.9265,-3.9352,-3.9265,-3.9177,-3.9177,-3.9031,-3.9017,-3.9177,-3.9031,-3.8943,-3.887,-3.8723,-3.8516,-3.8277,-3.8202,-3.8127,-3.8005,-3.8178,-3.8102,-3.7763,-3.7949,-3.7949,-3.7701,-3.7457,-3.738,-3.7303,-3.6929,-3.6786,-3.6786,-3.647,-3.6405,-3.6405,-3.6166,-3.6072,-3.5992,-3.5898,-3.5723,-3.571,-3.5898,-3.5898,-3.5805,-4.4904,-4.4707,-4.4331,-4.3586,0.0,0.0,0.0,-4.3423,-4.3634,-4.3453,-4.3816,-4.4056,-4.3898,-4.2468,-4.1939,-4.3043,-4.197,-4.1639,-4.2537,-4.2837,-4.2837,-4.2634,-4.2634,-4.2634,-4.2634,-4.2634,0.0,0.0,0.0,0.0,0.0,0.0,0.0,0.0,-4.2109,-4.1979,-4.2077,-4.1752,-4.1488,-4.1355,-4.1185,-4.0898,-4.0524,-4.0555,-4.0416,-4.0277,-4.0066,-3.9854,-3.9681,-3.9481,-3.9424,-3.9424,-3.9424,-3.9265,-3.9177,-3.9337,-3.9104,-3.887,-3.9031,-3.9104,-3.9031,-3.887,-3.8943,-3.9031,-3.887,-3.8943,-3.9104,-3.9104,-3.9265,-3.9424,-3.9424,-3.9424,-3.9424,-3.9424,-3.9424,0.0,0.0,-3.9424,-3.9424,-3.9424,-3.9352,-3.9352,-3.9424,-3.9352,-3.9265,-3.9104,-3.887,-3.8723,-3.8516,-3.8277,-3.8202,-3.8202,-3.8826,-3.8855,-3.8217,-3.8841,-3.8702,-3.7853,-3.7701,-3.7457,-3.7303,-3.707,-3.6978,-3.6993,-3.6549,-3.6405,-3.6405,-3.6166,-3.5978,-3.5723,-3.5992,-3.5898,-3.571,-3.571,-3.571,-3.5805,-4.3319,-4.2964,-4.278,-4.2618,-4.2469,-4.229,-4.1988,-4.2057,-4.224,-4.237,-4.2546,-4.2729,-4.2966,-4.2452,-4.2418,-4.3229,-4.238,-4.2054,-4.2772,-4.232,-4.221,-4.2601,-4.2634,-4.2634,-4.2634,-4.2634,-4.2571,0.0,0.0,0.0,0.0,0.0,0.0,0.0,0.0,-4.2061,0.0,-4.172,-4.1456,-4.1256,-4.1003,-4.0746,-4.0455,-4.0401,-4.0277,-4.0066,-3.9996,-3.9783,-3.9481,-3.9409,-3.9424,-3.9424,-3.9424,-3.9265,-3.9104,-3.9177,-3.9017,-3.8797,-3.8738,-3.8738,-3.8664,-3.859,-3.8664,-3.8738,-3.8943,-3.9031,-3.9104,-3.9265,-3.9337,-3.9424,-3.9424,-3.9424,-3.9424,-3.9424,-3.9424,-3.9424,0.0,-3.9424,-3.9409,-3.9553,-3.9481,-3.9424,-3.9424,-3.9265,-3.9104,-3.8943,-3.9284,-3.9119,-3.8306,-3.876,-3.8804,-3.8217,-3.8855,-3.8884,-3.8217,-3.887,-3.8793,-3.8066,-3.7763,-3.7534,-3.7457,-3.7148,-3.6978,-3.6993,-3.6707,-3.6642,-3.6563,-3.6246,-3.6072,-3.5992,-3.5898,-3.5804,-3.571,-3.571,-3.5967,-3.6442,-4.2493,-4.1929,-4.1643,-4.1739,-4.1595,-4.1334,-4.1052,-4.1172,-4.1321,-4.1506,-4.1698,-4.1905,-4.2071,-4.1848,-4.1964,-4.2835,-4.1868,-4.1656,-4.2756,-4.2032,-4.1889,-4.2601,-4.2634,-4.2634,-4.2634,-4.2634,-4.2571,-4.2445,0.0,-4.2571,0.0,0.0,0.0,0.0,0.0,-4.2045,-4.1996,-4.172,-4.1472,-4.1205,-4.0799,-4.0593,-4.0455,-4.0261,-4.0137,-4.0066,-4.0011,-3.9783,-3.9481,-3.9409,-3.9337,-3.9265,-3.9265,-3.9119,-3.8885,-3.8943,-3.8797,-3.8575,-3.8516,-3.8516,-3.8441,-3.8441,-3.8516,-3.8664,-3.8811,-3.9031,-3.9104,-3.9265,-3.9337,-3.9352,-3.9337,-3.9337,-3.9352,-3.9265,-3.9337,-3.9424,0.0,-3.9424,-3.9424,-3.9553,-3.9481,-3.9424,-3.9424,-3.9265,-3.9104,-3.8943,-3.9269,-3.9104,-3.8381,-3.8978,-3.9037,-3.8217,-3.9291,-3.9271,-3.8066,-3.9011,-3.8996,-3.7976,-3.7687,-3.7534,-3.7457,-3.7148,-3.6978,-3.6978,-3.6707,-3.6563,-3.6563,-3.6246,-3.6072,-3.5978,-3.5898,-3.594,-3.6035,-3.6035,-3.6633,-3.752,-4.2449,-4.1561,-4.0888,-4.0871,-4.068,-4.0436,-4.0288,-4.0679,-4.0875,-4.0785,-4.1243,-4.1527,-4.1359,-4.0578,-4.063,-4.1835,-4.0547,-4.0544,-4.2439,-4.1905,-4.1857,-4.2601,-4.2634,-4.2634,-4.2634,-4.2634,-4.2634,-4.2634,0.0,0.0,0.0,0.0,0.0,0.0,-4.2174,0.0,-4.1898,-4.167,-4.1421,-4.1049,-4.0539,-4.0401,-4.047,-4.0137,-4.0137,-4.0277,-4.0066,-3.9854,-3.9696,-3.9481,-3.9265,-3.9104,-3.9104,-3.8811,-3.859,-3.8723,-3.8501,-3.8277,-3.8441,-3.8516,-3.8441,-3.8277,-3.8501,-3.8708,-3.859,-3.8811,-3.9104,-3.9104,-3.9265,-3.9337,-3.9177,-3.9265,-3.9337,-3.9177,-3.9235,-3.9364,-3.9364,-3.9364,-3.9379,-3.9409,-3.9409,-3.9424,-3.9424,-3.9424,-3.9337,-3.9104,-3.8973,-3.8752,-3.8516,-3.8993,-3.8899,-3.8231,-4.0017,-4.0039,-3.7958,-3.9358,-3.9203,-3.7625,-3.7625,-3.7457,-3.7303,-3.707,-3.6978,-3.6993,-3.6549,-3.6405,-3.6405,-3.6166,-3.5898,-3.5723,-3.5992,-3.628,-3.6646,-3.6673,-3.7588,-3.8769,-4.1574,-4.1168,-4.084,-4.0631,-4.0485,-4.0288,-4.0188,-4.0155,-4.0118,-4.0014,-4.0041,-4.0213,-4.058,-4.0298,-4.0433,-4.118,-4.0312,-4.03,-4.1743,-4.116,-4.1322,-4.2585,-4.2634,-4.2634,-4.2634,-4.2634,-4.2634,-4.2634,-4.2634,0.0,-4.2634,0.0,0.0,0.0,0.0,0.0,-4.1898,-4.167,-4.1421,-4.1034,-4.0814,-4.0593,-4.0455,-4.0385,-4.0261,-4.0066,-3.9839,-3.9625,-3.9481,-3.9424,-3.9337,-3.9265,-3.9177,-3.9031,-3.8885,-3.8664,-3.8516,-3.8366,-3.8277,-3.8366,-3.8516,-3.8441,-3.8575,-3.887,-3.8958,-3.9031,-3.9104,-3.9265,-3.9337,-3.9352,-3.9337,-3.9337,-3.9352,-3.9337,-3.8919,-3.8732,-3.9083,-3.8943,-3.9139,-3.9793,-3.9696,-3.9553,-3.9409,-3.9553,-3.9481,-3.9104,-3.9638,-3.9624,-3.8738,-3.9281,-3.9264,-3.8456,-3.9252,-3.9204,-3.8142,-3.8861,-3.8707,-3.7853,-3.7534,-3.738,-3.7303,-3.707,-3.6978,-3.6993,-3.6549,-3.6405,-3.6405,-3.5978,-3.5723,-3.571,-3.5804,-3.6375,-3.7351,-3.7786,-3.831,-3.8824,-4.1249,-4.0888,-4.068,-4.0534,-4.0337,-4.0188,-4.0121,-3.9935,-3.9781,-3.9729,-3.9537,-3.9545,-3.9906,-3.9704,-3.991,-4.0918,-3.9862,-3.9836,-4.1452,-4.0626,-4.0675,-4.2099,-4.2164,-4.231,-4.2618,-4.2634,-4.2634,-4.2634,-4.2634,0.0,-4.2634,0.0,0.0,0.0,0.0,-4.1833,-4.1752,-4.1522,-4.1339,-4.1153,-4.0935,-4.073,0.0,-4.047,-4.0277,-4.0021,-3.9506,-3.9298,-3.9424,-3.9424,-3.9158,-3.8832,-3.8674,-3.8409,-3.8028,-3.7812,-3.774,-3.7798,-3.8004,-3.7872,-3.7813,-3.8091,-3.8105,-3.8043,-3.8186,-3.8172,-3.8332,-3.8844,-3.8904,-3.8937,-3.9205,-3.9337,-3.9424,-3.9553,-3.8983,-3.8617,-3.8825,-3.8756,-3.8837,-3.9285,-3.9516,-3.9625,-3.9409,-3.9481,-3.9481,-3.9104,-3.9519,-3.9491,-3.8752,-3.9281,-3.9396,-3.8804,-3.9692,-3.9644,-3.8485,-3.9136,-3.8914,-3.7777,-3.7457,-3.7303,-3.7303,-3.707,-3.6978,-3.6978,-3.6707,-3.6563,-3.6484,-3.6058,-3.5898,-3.5952,-3.6307,-3.7164,-3.816,-3.8774,-3.9166,-3.9367,-4.1093,-4.0638,-4.0346,-4.0195,-4.0067,-3.9985,-3.9935,-3.9817,-3.9729,-3.9677,-3.9484,-3.9325,-3.9272,-3.8985,-3.9329,-4.0623,-3.943,-3.9421,-4.1367,-4.0442,-4.0361,-4.1578,-4.1642,-4.1824,-4.2326,-4.2439,-4.2488,-4.2488,-4.2585,0.0,0.0,0.0,0.0,0.0,0.0,0.0,0.0,-4.139,-4.1323,-4.1256,-4.0935,-4.0799,-4.0715,-4.0378,-4.0209,-4.0047,-3.9016,-3.8933,-3.9275,-3.9185,-3.8624,-3.7991,-3.7934,-3.7464,-3.6851,-3.6781,-3.6781,-3.6984,-3.7544,-3.7278,-3.6998,-3.7559,-3.7293,-3.6965,-3.7089,-3.7005,-3.7168,-3.8083,-3.8132,-3.8284,-3.8924,-3.913,-3.9331,-3.9369,-3.8943,-3.8566,-3.8566,-3.8641,-3.8662,-3.8582,-3.9249,0.0,-3.9409,-3.9409,-3.9337,-3.9177,-3.9104,-3.8958,-3.8679,-3.9117,-3.9393,-3.9281,-4.0485,-4.0494,-3.9087,-3.9706,-3.931,-3.7739,-3.7423,-3.7303,-3.7303,-3.707,-3.6978,-3.6978,-3.6786,-3.6721,-3.6642,-3.6408,-3.633,-3.6428,-3.7383,-3.8133,-3.8924,-3.9555,-3.9848,-4.0097,-4.0124,-3.9829,-3.95,-3.8726,-3.901,-3.9338,-3.924,-3.9598,-3.9849,-3.9729,-3.959,-3.9448,-3.9325,-3.8985,-3.8958,-3.9331,-3.9397,-3.996,-4.104,-4.1314,-4.1504,-4.1748,-4.1626,-4.1355,-4.0885,-4.1452,-4.1759,-4.1759,-4.2342,0.0,0.0,0.0,0.0,0.0,0.0,0.0,-4.1588,-4.139,0.0,-4.1102,-4.0867,-4.073,-4.0462,-3.984,-3.9557,-3.9314,-3.8559,-3.8501,-3.8722,-3.8012,-3.7689,-3.7446,-3.7212,-3.7178,-3.7198,-3.674,-3.681,-3.7035,-3.6998,-3.7024,-3.705,-3.7223,-3.7178,-3.7159,-3.7174,-3.7159,-3.7189,-3.7377,-3.7407,-3.76,-3.8381,-3.8571,-3.8392,-3.7922,-3.7728,-3.7668,-3.7873,-3.8355,-3.8898,-3.9369,-3.9621,-3.9625,-3.9409,-3.9553,-3.9553,-3.9337,-3.9337,-3.9352,-3.9265,-3.9062,-3.915,-3.9709,-3.9638,-3.9654,-3.9851,-3.9396,-3.9015,-3.8629,-3.7713,-3.7303,-3.7303,-3.707,-3.6978,-3.6978,-3.6786,-3.6721,-3.6763,-3.701,-3.7359,-3.7869,-3.8585,-3.8916,-3.9095,-3.9688,-4.011,-4.0298,-3.9767,-3.925,-3.8751,-3.8282,-3.8673,-3.9054,-3.8988,-3.9531,-3.9833,-3.9729,-3.9537,-3.9379,-3.9325,-3.8985,-3.8952,-3.9456,-3.9536,-3.9943,-4.0851,-4.0674,-4.0837,-4.1271,-4.081,-4.0496,-4.0496,-4.0836,-4.1015,-4.1015,-4.1355,0.0,0.0,0.0,0.0,0.0,0.0,-4.167,0.0,0.0,-4.1221,-4.1221,-4.0935,-4.0514,-4.0106,-3.9647,-3.9226,-3.876,-3.7938,-3.7709,-3.7797,-3.7624,-3.7278,-3.6941,-3.6752,-3.6581,-3.635,-3.5946,-3.6014,-3.6156,-3.6413,-3.6333,-3.6238,-3.6648,-3.6469,-3.6216,-3.6298,-3.6164,-3.617,-3.673,-3.6654,-3.6778,-3.764,-3.7814,-3.7778,-3.7601,-3.7556,-3.7571,-3.7707,-3.828,-3.8807,-3.8983,-3.9328,-3.9481,-3.9424,-3.9481,-3.9481,-3.9424,-3.9424,-3.9337,-3.9104,-3.9343,-3.9593,-3.9949,-4.0315,-4.0558,-4.0612,-4.0242,-3.9685,-3.8865,-3.8253,-3.777,-3.7457,-3.7226,-3.7148,-3.7162,-3.7251,-3.7326,-3.7368,-3.7741,-3.8187,-3.8697,-3.8987,-3.9391,-3.9809,-4.01,-4.0385,-4.0544,-3.9457,-3.8809,-3.8242,-3.8213,-3.8673,-3.9037,-3.8988,-3.9531,-3.9849,-3.9729,-3.9468,-3.9325,-3.9325,-3.904,-3.9034,-3.968,-3.965,-3.9894,-4.058,-4.0105,-4.0056,-4.0596,-3.9901,-3.9713,-4.0102,-4.0205,-4.0286,-4.0286,-4.0415,-4.0496,0.0,0.0,0.0,0.0,0.0,0.0,0.0,-4.0782,-4.0716,-4.0751,-4.0432,-3.9972,-3.9493,-3.9205,-3.8769,-3.8135,-3.7299,-3.6877,-3.6838,-3.7171,-3.682,-3.6282,-3.6216,-3.5923,-3.5439,-3.5294,-3.5213,-3.5398,-3.5919,-3.5681,-3.5413,-3.6148,-3.5851,-3.5391,-3.5404,-3.5251,-3.5311,-3.606,-3.6022,-3.6191,-3.6862,-3.7088,-3.7338,-3.7624,-3.7707,-3.7767,-3.7903,-3.856,-3.8913,-3.8616,-3.9152,-3.9496,-3.9424,-3.9424,-3.9424,-3.9337,-3.9337,-3.9252,-3.9136,-3.9728,-4.0138,-4.0436,-4.1213,-4.155,-4.1308,-4.1163,-4.0517,-3.9361,-3.9061,-3.8574,-3.8088,-3.7855,-3.7778,-3.7728,-3.8051,-3.8253,-3.8341,-3.8655,-3.9062,-3.9462,-3.9462,-3.9853,-4.0471,-4.0471,-4.063,-4.0773,-3.8698,-3.8539,-3.8334,-3.8213,-3.8721,-3.9151,-3.9037,-3.9531,-3.9901,-3.9901,-3.9537,-3.9325,-3.9448,-3.9094,-3.8892,-3.9068,-3.9565,-3.9878,-4.0001,-4.0557,-4.0623,-4.0033,-3.9797,-3.9373,-3.8772,-3.9291,-3.9573,-3.9573,-4.0189,-4.0496,0.0,0.0,0.0,0.0,0.0,-3.9692,-3.9692,-3.9327,-3.9199,-3.9199,-3.8824,-3.8662,-3.8539,-3.7923,-3.7646,-3.7507,-3.661,-3.6176,-3.6064,-3.5918,-3.5739,-3.5529,-3.5383,-3.5404,-3.5439,-3.5294,-3.5359,-3.5519,-3.5579,-3.5549,-3.5519,-3.5579,-3.5851,-3.5941,-3.5362,-3.5526,-3.5657,-3.5126,-3.5629,-3.6208,-3.6268,-3.6432,-3.6828,-3.7549,-3.7707,-3.7918,-3.8521,-3.934,-3.9763,-3.932,-3.9666,-3.9783,-3.9424,-3.9553,-3.9538,-3.9177,-3.9104,-3.9445,-4.0188,-3.998,-4.0359,-4.1504,-4.1448,-4.1609,-4.199,-4.1395,-4.1033,-4.0916,-4.0083,-3.9621,-3.9564,-3.939,-3.915,-3.9031,-3.9088,-3.9264,-3.962,-3.9662,-4.0055,-4.0532,-4.0532,-4.056,-4.0702,-4.0845,-4.0916,-4.1001,-3.7922,-3.7472,-3.7151,-3.7479,-3.804,-3.856,-3.8839,-3.9379,-3.9781,-3.9781,-3.959,-3.9395,-3.9379,-3.9094,-3.8914,-3.8969,-3.9493,-3.9789,-3.9886,-4.0009,-3.9984,-3.9789,-3.9324,-3.8869,-3.8464,-3.8796,-3.8943,-3.8829,-3.9104,-3.9233,-3.9233,0.0,0.0,0.0,-3.9437,-3.9503,-3.9503,-3.9124,-3.9011,-3.9011,-3.8784,-3.8342,-3.7877,-3.76,-3.7246,-3.6861,-3.6521,-3.6226,-3.5973,-3.5752,-3.5589,-3.5504,-3.5439,-3.5439,-3.5439,-3.5294,-3.5294,-3.5294,-3.5294,-3.5294,-3.5359,-3.5439,-3.5633,-3.5687,-3.5419,-3.5502,-3.5606,-3.5338,-3.5568,-3.5747,-3.5614,-3.5747,-3.6169,-3.6984,-3.7368,-3.7796,-3.8611,-3.9345,-3.9696,-3.9424,-3.9625,-3.9696,-3.9424,-3.9481,-3.9409,-3.9104,-3.9549,-3.9891,-4.001,-4.0842,-4.1418,-4.1542,-4.2084,-4.2342,-4.2325,-4.1966,-4.1645,-4.1237,-4.0829,-4.0336,-3.9946,-3.9801,-3.9791,-4.0,-3.9836,-4.0108,-4.0759,-4.0759,-4.0915,-4.1128,-4.1128,-4.1128,-4.1128,-4.1015,-4.1001,-4.1001,-3.7378,-3.6956,-3.6688,-3.7308,-3.775,-3.8136,-3.8533,-3.8908,-3.9143,-3.9076,-3.9191,-3.9251,-3.9362,-3.9148,-3.9023,-3.9023,-3.9296,-3.9495,-3.9535,-3.9365,-3.9308,-3.9349,-3.8893,-3.8576,-3.8448,-3.8504,-3.8504,-3.8391,-3.8391,-3.8391,-3.8391,-3.8278,-3.838,-3.8642,-3.8819,-3.8902,-3.8902,-3.8545,-3.8403,-3.8466,-3.8244,-3.7838,-3.7263,-3.72,-3.6907,-3.6414,-3.6289,-3.61,-3.5894,-3.5703,-3.5604,-3.5504,-3.5439,-3.5439,-3.5439,-3.5359,-3.5294,-3.5294,-3.5294,-3.5294,-3.5294,-3.5439,-3.5654,-3.5744,-3.5549,-3.5589,-3.5663,-3.5469,-3.5439,-3.5359,-3.5294,-3.5424,-3.5874,-3.6899,-3.7375,-3.794,-3.8952,-3.9466,-3.9696,-3.9424,-3.9625,-3.9696,-3.9424,-3.9409,-3.9409,-3.9104,-3.9949,-4.0338,-4.0155,-4.1451,-4.2119,-4.1901,-4.2598,-4.285,-4.2474,-4.2474,-4.2225,-4.1756,-4.1609,-4.1215,-4.0749,-4.0524,-4.0541,-4.0807,-4.0558,-4.0814,-4.1396,-4.1396,-4.1396,-4.1396,-4.1396,-4.1396,-4.1396,-4.1198,-4.1184,-4.117,-3.717,-3.7308,-3.7504,-3.806,-3.8138,-3.8061,-3.8027,-3.7984,-3.7826,-3.7567,-3.8154,-3.8839,-3.9418,-3.9202,-3.9023,-3.9023,-3.904,-3.8892,-3.8632,-3.8727,-3.8766,-3.8632,-3.8616,-3.8616,-3.8616,-3.8464,-3.8391,-3.8391,-3.8391,-3.8391,-3.8391,-3.8049,-3.7817,-3.7716,-3.7555,-3.7496,-3.7496,-3.7152,-3.7076,-3.721,-3.6862,-3.6739,-3.6677,-3.6554,-3.6352,-3.6133,-3.5816,-3.5688,-3.5688,-3.5554,-3.5504,-3.5439,-3.5294,-3.5359,-3.5504,-3.5504,-3.5504,-3.5504,-3.5504,-3.5504,-3.5504,-3.5504,-3.5998,-3.6297,-3.5654,-3.5866,-3.6,-3.5347,-3.5213,-3.5294,-3.5439,-3.5604,-3.6189,-3.7734,-3.7992,-3.8478,-3.9798,-3.9996,-3.9854,-3.9424,-3.9783,-3.9854,-3.9424,-3.9553,-3.9538,-3.9104,-3.9949,-4.0621,-4.105,-4.1455,-4.209,-4.2951,-4.2981,-4.2915,-4.2688,-4.2688,-4.2688,-4.2673,-4.2459,-4.2377,-4.2377,-4.1854,-4.1673,-4.1688,-4.1465,-4.1396,-4.1396,-4.1396,-4.1396,-4.1396,-4.1396,-4.1396,-4.1396,-4.1396,-4.1549,-4.1702,-3.6517,-3.6482,-3.6618,-3.7325,-3.7371,-3.7403,-3.7739,-3.7793,-3.7713,-3.7518,-3.7619,-3.7803,-3.7986,-3.8728,-3.9202,-3.9202,-3.9094,-3.8969,-3.8876,-3.8805,-3.8766,-3.8632,-3.8711,-3.8655,-3.8464,-3.8504,-3.8504,-3.8391,-3.8391,-3.8335,-3.8294,-3.7992,-3.7817,-3.77,-3.7389,-3.7329,-3.727,-3.706,-3.6923,-3.6831,-3.6708,-3.6662,-3.6554,-3.6492,-3.6352,-3.6211,-3.607,-3.5879,-3.5688,-3.5554,-3.5504,-3.5439,-3.5294,-3.5359,-3.5504,-3.5504,-3.5504,-3.5504,-3.5589,-3.5539,-3.5504,-3.5589,-3.5704,-3.5759,-3.5549,-3.5523,-3.5466,-3.5258,-3.5213,-3.5294,-3.5439,-3.5589,-3.6125,-3.7548,-3.779,-3.8326,-3.9813,-4.0011,-3.994,-3.9783,-3.9925,-3.9925,-3.9625,-3.9553,-3.9409,-3.9104,-3.9802,-4.0472,-4.1065,-4.1781,-4.2421,-4.2966,-4.3155,-4.3076,-4.2915,-4.2915,-4.2915,-4.2915,-4.2688,-4.2541,-4.2392,-4.1868,-4.18,-4.1995,-4.1717,-4.1731,-4.1926,-4.1926,-4.1926,-4.1926,-4.1926,-4.1926,-4.1829,-4.1633,-4.1619,-4.1702,-3.6225,-3.6036,-3.6085,-3.6608,-3.6542,-3.653,-3.6928,-3.6949,-3.6855,-3.6745,-3.6915,-3.6985,-3.6952,-3.7918,-3.8629,-3.8858,-3.8999,-3.9094,-3.9023,-3.8914,-3.8805,-3.8632,-3.8655,-3.86,-3.8391,-3.8448,-3.8408,-3.8335,-3.8221,-3.8164,-3.8008,-3.7876,-3.7759,-3.7642,-3.7405,-3.7329,-3.7329,-3.7121,-3.6984,-3.6892,-3.6785,-3.6662,-3.6554,-3.6492,-3.6352,-3.6196,-3.607,-3.5879,-3.5688,-3.5554,-3.5439,-3.5359,-3.5359,-3.5359,-3.5424,-3.5504,-3.5504,-3.5504,-3.5589,-3.5539,-3.5504,-3.5589,-3.5554,-3.5504,-3.5504,-3.5553,-3.551,-3.5338,-3.5294,-3.5434,-3.5833,-3.5754,-3.628,-3.7948,-3.7941,-3.8243,-3.9813,-3.9854,-3.9783,-3.9783,-3.9783,-3.9711,-3.9625,-3.9481,-3.9337,-3.9192,-3.9579,-4.0219,-4.1188,-4.1844,-4.2485,-4.3061,-4.325,-4.325,-4.3076,-4.3076,-4.3076,-4.3076,-4.285,-4.2541,-4.2242,-4.1966,-4.1897,-4.2092,-4.1897,-4.1995,-4.2092,-4.2092,-4.2092,-4.2092,-4.2092,-4.2092,-4.2092,-4.18,-4.1785,-4.18,-3.6182,-3.5993,-3.5861,-3.5975,-3.58,-3.5667,-3.5773,-3.5667,-3.5594,-3.5537,-3.6064,-3.639,-3.6329,-3.6852,-3.7469,-3.7996,-3.8758,-3.9169,-3.9023,-3.9023,-3.886,-3.8616,-3.8616,-3.856,-3.8391,-3.8294,-3.8237,-3.8237,-3.7992,-3.7876,-3.77,-3.77,-3.7658,-3.748,-3.748,-3.748,-3.748,-3.7136,-3.7044,-3.7134,-3.6831,-3.6723,-3.6662,-3.6554,-3.6352,-3.6133,-3.5816,-3.5688,-3.5688,-3.5554,-3.5359,-3.5228,-3.5439,-3.5359,-3.5294,-3.5439,-3.5504,-3.5504,-3.5504,-3.5504,-3.5504,-3.5504,-3.5534,-3.5564,-3.5519,-3.5866,-3.6097,-3.5633,-3.5579,-3.5774,-3.6432,-3.6144,-3.6507,-3.8584,-3.8281,-3.8288,-3.9682,-3.961,-3.9424,-3.9424,-3.9424,-3.9409,-3.9409,-3.9424,-3.9424,-3.9424,-3.9424,-3.9993,-4.1309,-4.1784,-4.2361,-4.3235,-4.3329,-4.3329,-4.3329,-4.3329,-4.3329,-4.325,-4.285,-4.2474,-4.2092,-4.2092,-4.2092,-4.2092,-4.2092,-4.2092,-4.2092,-4.2092,-4.2092,-4.2092,-4.2092,-4.2092,-4.2092,-4.18,-4.1897,-4.2092,-3.6079,-3.5905,-3.5861,-3.5975,-3.5844,-3.5773,-3.5773,-3.5773,-3.5728,-3.5577,-3.5564,-3.5605,-3.5715,-3.6181,-3.6537,-3.6671,-3.7766,-3.8692,-3.9185,-3.9094,-3.8914,-3.875,-3.8655,-3.856,-3.8391,-3.8351,-3.8335,-3.8335,-3.8221,-3.8049,-3.7876,-3.7759,-3.7658,-3.748,-3.7329,-3.7254,-3.727,-3.706,-3.6999,-3.706,-3.6785,-3.6723,-3.6662,-3.6554,-3.6352,-3.6211,-3.5958,-3.5831,-3.5688,-3.5554,-3.5439,-3.5439,-3.5504,-3.5439,-3.5439,-3.5504,-3.5504,-3.5504,-3.5653,-3.5604,-3.5489,-3.5653,-3.5979,-3.6118,-3.5413,-3.5718,-3.6149,-3.6067,-3.6038,-3.6298,-3.7075,-3.7196,-3.7323,-3.7706,-3.8151,-3.8581,-3.8967,-3.938,-3.9696,-3.9854,-3.9696,-3.9625,-3.9625,-3.9481,-3.9424,-3.9424,-3.9424,-3.9993,-4.1309,-4.1519,-4.2055,-4.3299,-4.3518,-4.3518,-4.3329,-4.3518,-4.3423,-4.3076,-4.285,-4.2541,-4.231,-4.2175,-4.2092,-4.2092,-4.2092,-4.2175,-4.2325,-4.2175,-4.2175,-4.2325,-4.2175,-4.2092,-4.2092,-4.1995,-4.2092,-4.2092,-3.6148,-3.6019,-3.5932,-3.6079,-3.5993,-3.5905,-3.5905,-3.5861,-3.5773,-3.5711,-3.5549,-3.5458,-3.5566,-3.5689,-3.5933,-3.6284,-3.7203,-3.8081,-3.8742,-3.8669,-3.8694,-3.8898,-3.8766,-3.8616,-3.8504,-3.8391,-3.8221,-3.8049,-3.795,-3.7817,-3.77,-3.7642,-3.7599,-3.748,-3.7405,-3.7329,-3.7329,-3.7165,-3.7105,-3.7044,-3.6785,-3.6723,-3.6662,-3.6554,-3.6352,-3.6211,-3.6037,-3.5894,-3.5688,-3.5554,-3.5439,-3.5359,-3.5439,-3.5439,-3.5359,-3.5439,-3.5554,-3.5604,-3.5688,-3.5638,-3.5679,-3.5964,-3.6417,-3.6686,-3.6313,-3.6663,-3.7064,-3.6903,-3.6911,-3.7173,-3.7955,-3.7714,-3.7518,-3.8039,-3.7948,-3.8008,-3.8611,-3.8933,-3.9264,-3.9681,-3.964,-3.9625,-3.9681,-3.9625,-3.9553,-3.9553,-3.9553,-4.0066,-4.1309,-4.1384,-4.1983,-4.3284,-4.3423,-4.3423,-4.3329,-4.3423,-4.3329,-4.2981,-4.2769,-4.2622,-4.2392,-4.2175,-4.2092,-4.2092,-4.2092,-4.2242,-4.2392,-4.2242,-4.2325,-4.2392,-4.2392,-4.2242,-4.2092,-4.216,-4.2175,-4.2136,-3.6276,-3.6148,-3.6079,-3.6182,-3.6079,-3.6019,-3.6019,-3.5905,-3.5773,-3.5773,-3.5667,-3.5577,-3.5622,-3.5412,-3.5559,-3.6195,-3.6718,-3.7286,-3.7996,-3.7994,-3.8206,-3.8623,-3.8575,-3.8547,-3.8398,-3.8286,-3.8049,-3.7759,-3.7658,-3.7539,-3.7539,-3.7539,-3.748,-3.748,-3.748,-3.748,-3.748,-3.727,-3.7194,-3.7194,-3.6831,-3.6723,-3.6662,-3.6554,-3.6414,-3.6211,-3.6085,-3.5894,-3.5752,-3.5619,-3.5489,-3.5344,-3.5489,-3.5489,-3.5344,-3.5554,-3.5653,-3.5752,-3.5688,-3.5703,-3.5804,-3.6379,-3.682,-3.7213,-3.7336,-3.7789,-3.8117,-3.7826,-3.779,-3.8054,-3.8925,-3.8122,-3.7698,-3.8796,-3.7911,-3.7459,-3.862,-3.8622,-3.8837,-3.9421,-3.9496,-3.9553,-3.9696,-3.9768,-3.9768,-3.9768,-3.9768,-4.0269,-4.1385,-4.146,-4.1983,-4.3284,-4.3329,-4.3344,-4.3344,-4.3329,-4.317,-4.2981,-4.2769,-4.2541,-4.2325,-4.2175,-4.2092,-4.2092,-4.2092,-4.2242,-4.2474,-4.2474,-4.2474,-4.2459,-4.2622,-4.2532,-4.232,-4.2456,-4.2446,-4.2455,-3.6208,-3.6165,-3.6182,-3.6182,-3.6079,-3.6019,-3.6019,-3.5905,-3.5773,-3.5667,-3.5549,-3.552,-3.5577,-3.552,-3.5496,-3.5459,-3.5576,-3.6069,-3.7185,-3.7063,-3.6957,-3.7055,-3.7378,-3.754,-3.7485,-3.8084,-3.8294,-3.8107,-3.7934,-3.7759,-3.7642,-3.7539,-3.748,-3.748,-3.748,-3.748,-3.748,-3.727,-3.7194,-3.7194,-3.6831,-3.6723,-3.6662,-3.6554,-3.6492,-3.6414,-3.6211,-3.6148,-3.6085,-3.5973,-3.591,-3.5846,-3.591,-3.591,-3.591,-3.6022,-3.6085,-3.6022,-3.5604,-3.5554,-3.5719,-3.6327,-3.6956,-3.7336,-3.7404,-3.7913,-3.8362,-3.8327,-3.8312,-3.8522,-3.9212,-3.9167,-3.8983,-3.8762,-3.8862,-3.8968,-3.8955,-3.9239,-3.9576,-3.9839,-3.994,-3.9925,-3.9925,-3.9925,-3.9925,-3.9925,-3.9925,-4.0444,-4.155,-4.1626,-4.2151,-4.3299,-4.3518,-4.3596,-4.3596,-4.3423,-4.309,-4.2769,-4.2688,-4.2555,-4.2175,-4.2092,-4.2092,-4.2092,-4.2242,-4.2474,-4.2607,-4.2607,-4.2769,-4.2915,-4.2769,-4.2878,-4.3128,-4.3113,-4.3394,-4.3718,-3.6276,-3.6233,-3.6233,-3.6233,-3.6191,-3.6174,-3.6174,-3.6019,-3.5905,-3.5844,-3.5667,-3.5549,-3.5577,-3.552,-3.5492,-3.54,-3.5291,-3.5435,-3.5974,-3.6191,-3.6486,-3.6882,-3.7294,-3.7649,-3.789,-3.8173,-3.8294,-3.818,-3.7992,-3.7817,-3.77,-3.7642,-3.7599,-3.748,-3.748,-3.748,-3.748,-3.7405,-3.7329,-3.7329,-3.7074,-3.6907,-3.6862,-3.6662,-3.6476,-3.6352,-3.6211,-3.6148,-3.6085,-3.6037,-3.5973,-3.5973,-3.5973,-3.5973,-3.6037,-3.6085,-3.6148,-3.6148,-3.591,-3.6118,-3.6426,-3.7037,-3.7616,-3.8187,-3.8407,-3.8736,-3.8945,-3.9073,-3.9073,-3.9249,-3.9651,-3.9425,-3.9134,-3.8886,-3.8741,-3.8726,-3.8963,-3.9167,-3.9501,-3.9965,-4.0011,-4.0011,-4.0011,-4.0011,-4.0011,-4.0011,-3.9925,-4.0429,-4.179,-4.1626,-4.2151,-4.3472,-4.3518,-4.3503,-4.3503,-4.3344,-4.317,-4.301,-4.2915,-4.2688,-4.2392,-4.2392,-4.2392,-4.2257,-4.284,-4.3219,-4.3412,-4.3767,-4.3983,-4.4065,-4.405,-4.401,-4.3855,-4.3939,-4.396,-4.4037,-3.636,-3.6301,-3.6301,-3.6301,-3.6301,-3.6276,-3.6276,-3.6105,-3.6019,-3.6019,-3.58,-3.5667,-3.5667,-3.5549,-3.5475,-3.5446,-3.5245,-3.5105,-3.5041,-3.5477,-3.6075,-3.677,-3.7354,-3.7905,-3.8432,-3.8351,-3.8237,-3.8107,-3.7992,-3.7876,-3.7642,-3.77,-3.7658,-3.748,-3.748,-3.748,-3.748,-3.7464,-3.7405,-3.7405,-3.721,-3.7029,-3.6938,-3.6785,-3.6523,-3.6274,-3.6274,-3.6211,-3.61,-3.61,-3.61,-3.61,-3.61,-3.61,-3.61,-3.61,-3.6226,-3.6274,-3.6211,-3.6572,-3.7127,-3.7609,-3.8204,-3.8797,-3.926,-3.9424,-3.9409,-3.9625,-3.9625,-3.9696,-3.9925,-3.9501,-3.9221,-3.9275,-3.8865,-3.8645,-3.9199,-3.9275,-3.9404,-3.9935,-4.0011,-4.0011,-4.0011,-4.0011,-4.0011,-4.0011,-3.9854,-4.0429,-4.1849,-4.1611,-4.2151,-4.3551,-4.3423,-4.3329,-4.3329,-4.3329,-4.325,-4.325,-4.3076,-4.3004,-4.2909,-4.2909,-4.2916,-4.2957,-4.3676,-4.4063,-4.4273,-4.4861,-4.5069,-4.5054,-4.5221,-4.4976,-4.4613,-4.477,-4.4701,-4.4574,-3.6502,-3.6402,-3.6301,-3.6301,-3.6233,-3.6225,-3.6225,-3.6079,-3.6019,-3.6019,-3.5844,-3.5773,-3.5773,-3.5667,-3.5503,-3.5337,-3.5291,-3.5198,-3.4947,-3.4949,-3.5248,-3.5844,-3.6934,-3.7851,-3.8544,-3.8448,-3.8221,-3.7934,-3.8107,-3.7934,-3.7539,-3.7642,-3.7658,-3.748,-3.748,-3.748,-3.748,-3.7329,-3.7194,-3.7194,-3.7044,-3.6923,-3.6723,-3.6723,-3.66,-3.6492,-3.6492,-3.6492,-3.6492,-3.6492,-3.6492,-3.6492,-3.6492,-3.6492,-3.6492,-3.6492,-3.6492,-3.6414,-3.6274,-3.6572,-3.7127,-3.7609,-3.8204,-3.8797,-3.926,-3.9424,-3.9409,-3.9409,-3.9409,-3.9481,-3.9696,-3.9651,-3.9763,-4.0115,-4.003,-3.9945,-4.0185,-4.006,-3.995,-3.9996,-4.0011,-4.0011,-4.0011,-4.0011,-4.0011,-4.0011,-3.9996,-4.0516,-4.1641,-4.1701,-4.2151,-4.3299,-4.3329,-4.3329,-4.3329,-4.3329,-4.325,-4.2996,-4.2996,-4.3227,-4.367,-4.367,-4.3926,-4.4531,-4.4813,-4.4911,-4.4911,-4.5206,-4.5304,-4.5289,-4.5054,-4.5187,-4.5476,-4.5548,-4.5742,-4.6078,-3.6502,-3.6444,-3.6444,-3.6444,-3.6318,-3.6276,-3.6276,-3.6105,-3.6019,-3.6019,-3.58,-3.5684,-3.5684,-3.5622,-3.5577,-3.5487,-3.5429,-3.5354,-3.5152,-3.5088,-3.5429,-3.6252,-3.6705,-3.7432,-3.8432,-3.8464,-3.8351,-3.8221,-3.8278,-3.8107,-3.7759,-3.7817,-3.77,-3.748,-3.748,-3.748,-3.748,-3.7405,-3.7405,-3.7405,-3.7345,-3.7165,-3.7013,-3.6923,-3.68,-3.66,-3.6554,-3.6492,-3.6492,-3.6492,-3.6492,-3.6492,-3.6492,-3.6894,-3.7389,-3.7807,-3.7867,-3.7738,-3.7674,-3.7713,-3.7867,-3.8379,-3.8907,-3.9309,-3.9364,-3.9481,-3.9625,-3.9625,-3.9711,-3.9783,-3.9854,-3.9925,-3.9996,-4.0277,-4.0137,-4.0066,-4.0277,-4.0137,-4.0011,-4.0011,-4.0011,-3.9925,-3.9839,-3.9925,-3.9925,-3.9839,-3.9839,-4.0429,-4.1775,-4.2561,-4.307,-4.3314,-4.3329,-4.3329,-4.3329,-4.3329,-4.325,-4.317,-4.3573,-4.3819,-4.3923,-4.4406,-4.4733,-4.4931,-4.5516,-4.5779,-4.5809,-4.6381,-4.6546,-4.6531,-4.6461,-4.6438,-4.6386,-4.6386,-4.6461,-4.6491,-3.6626,-3.6585,-3.6544,-3.6544,-3.6444,-3.6343,-3.6343,-3.6216,-3.6088,-3.6088,-3.5888,-3.5711,-3.5711,-3.5667,-3.5577,-3.5594,-3.5475,-3.54,-3.5245,-3.5088,-3.5446,-3.6317,-3.6725,-3.7322,-3.8075,-3.8278,-3.8391,-3.8351,-3.8391,-3.8221,-3.7876,-3.7992,-3.7876,-3.7642,-3.7599,-3.7539,-3.7539,-3.7539,-3.748,-3.748,-3.748,-3.7405,-3.7194,-3.706,-3.6862,-3.6662,-3.6554,-3.6492,-3.6492,-3.6492,-3.663,-3.6799,-3.6799,-3.7403,-3.8101,-3.8629,-3.8639,-3.8554,-3.8769,-3.8683,-3.8574,-3.8994,-3.948,-3.9839,-3.964,-3.9711,-3.9768,-3.9768,-3.9925,-3.9996,-4.0066,-4.0066,-4.0137,-4.0277,-4.0207,-4.0066,-4.0121,-3.9996,-3.9854,-3.9783,-3.9783,-3.9783,-3.9625,-3.9892,-4.0085,-3.9941,-4.0121,-4.0812,-4.2092,-4.3072,-4.3503,-4.3329,-4.3329,-4.3329,-4.3329,-4.3329,-4.3434,-4.3643,-4.4092,-4.446,-4.4727,-4.5326,-4.5654,-4.5794,-4.6341,-4.6636,-4.6666,-4.7115,-4.7309,-4.7309,-4.7207,-4.7019,-4.6916,-4.6916,-4.6844,-4.6668,-3.6788,-3.6766,-3.6702,-3.6702,-3.6602,-3.6502,-3.6502,-3.6402,-3.6301,-3.6301,-3.6131,-3.6019,-3.5975,-3.5756,-3.5594,-3.5492,-3.54,-3.5245,-3.5088,-3.4994,-3.5182,-3.5762,-3.699,-3.7654,-3.7492,-3.8059,-3.8335,-3.818,-3.8335,-3.8221,-3.7918,-3.8107,-3.8107,-3.7876,-3.7759,-3.77,-3.77,-3.7539,-3.748,-3.748,-3.748,-3.7405,-3.7194,-3.7044,-3.6862,-3.6662,-3.6554,-3.6492,-3.6492,-3.6507,-3.6953,-3.7507,-3.7523,-3.7969,-3.8589,-3.8784,-3.8654,-3.8677,-3.9339,-3.9373,-3.9222,-3.9222,-3.9757,-4.0277,-4.0066,-4.0011,-4.0011,-4.0011,-4.0011,-4.0066,-4.0277,-4.0277,-4.0277,-4.0277,-4.0277,-4.0137,-3.9753,-3.9681,-3.961,-3.9409,-3.9424,-3.9424,-3.9424,-4.0023,-4.0397,-4.0412,-4.101,-4.1669,-4.2327,-4.297,-4.3329,-4.3329,-4.3329,-4.3329,-4.3344,-4.3329,-4.3658,-4.4317,-4.4317,-4.502,-4.6322,-4.6337,-4.6696,-4.7309,-4.7309,-4.7309,-4.7309,-4.7309,-4.7309,-4.7309,-4.7019,-4.6916,-4.6916,-4.6916,-4.6916,-4.6916,-3.6829,-3.6788,-3.6766,-3.6702,-3.6602,-3.6461,-3.6343,-3.6276,-3.6208,-3.6105,-3.5949,-3.58,-3.5711,-3.5667,-3.5577,-3.5594,-3.5532,-3.5458,-3.5245,-3.554,-3.5712,-3.5795,-3.6514,-3.7322,-3.8258,-3.8351,-3.8391,-3.8351,-3.8391,-3.8221,-3.7876,-3.7934,-3.7876,-3.7642,-3.7658,-3.77,-3.77,-3.7642,-3.7642,-3.7642,-3.7539,-3.7464,-3.7405,-3.721,-3.7029,-3.7001,-3.739,-3.7499,-3.7451,-3.7946,-3.824,-3.8552,-3.9113,-3.9276,-3.9375,-4.0204,-4.0142,-3.997,-4.017,-4.0163,-4.0079,-3.9817,-3.9829,-3.9839,-3.9839,-3.9925,-4.0081,-4.0207,-4.0277,-4.0401,-4.047,-4.047,-4.0401,-4.0347,-4.0207,-3.9996,-3.9768,-3.9553,-3.9481,-3.9424,-3.9424,-3.9604,-4.0068,-4.0424,-4.0724,-4.1055,-4.1698,-4.2147,-4.2434,-4.297,-4.3329,-4.3329,-4.3329,-4.3554,-4.4018,-4.3569,-4.3658,-4.4317,-4.4781,-4.5469,-4.6337,-4.68,-4.7115,-4.7309,-4.7309,-4.7381,-4.7553,-4.7553,-4.7553,-4.7467,-4.7452,-4.7279,-4.7207,-4.7207,-4.7207,-4.7207,-3.6908,-3.6829,-3.6788,-3.6766,-3.6585,-3.6444,-3.6402,-3.6318,-3.6191,-3.6148,-3.5975,-3.5861,-3.5756,-3.5667,-3.5622,-3.5622,-3.5594,-3.5475,-3.5291,-3.5787,-3.6191,-3.6373,-3.6863,-3.7494,-3.816,-3.8358,-3.8448,-3.8391,-3.8391,-3.8294,-3.8107,-3.8107,-3.7992,-3.7817,-3.7817,-3.7759,-3.7759,-3.7642,-3.7642,-3.7583,-3.7539,-3.748,-3.748,-3.7225,-3.7277,-3.7529,-3.7732,-3.798,-3.8275,-3.8565,-3.8874,-3.9361,-4.0244,-4.0329,-4.0137,-4.0925,-4.083,-4.0524,-4.0524,-4.0524,-4.047,-4.0207,-4.0051,-3.9965,-3.998,-4.0051,-4.0207,-4.0277,-4.0401,-4.0524,-4.0524,-4.0524,-4.047,-4.0207,-4.0066,-3.9925,-3.9625,-3.9496,-3.9514,-3.9768,-3.9813,-4.0068,-4.0726,-4.1175,-4.1595,-4.2102,-4.2521,-4.2746,-4.2746,-4.312,-4.3329,-4.3329,-4.3329,-4.3643,-4.4302,-4.3928,-4.4197,-4.5125,-4.5514,-4.6052,-4.6726,-4.713,-4.7309,-4.7294,-4.7381,-4.7467,-4.7624,-4.7624,-4.7624,-4.7624,-4.7553,-4.7381,-4.7309,-4.7309,-4.7309,-4.7309,-3.6987,-3.6908,-3.6829,-3.6788,-3.6626,-3.6502,-3.6502,-3.6402,-3.6301,-3.6301,-3.6148,-3.6019,-3.6019,-3.5756,-3.5622,-3.5622,-3.5566,-3.548,-3.5438,-3.6,-3.6637,-3.7386,-3.7845,-3.7962,-3.7644,-3.8274,-3.8504,-3.8391,-3.8391,-3.8391,-3.8391,-3.8391,-3.8391,-3.8335,-3.8049,-3.7934,-3.7934,-3.7658,-3.7539,-3.7539,-3.7539,-3.7512,-3.7575,-3.7275,-3.7653,-3.8309,-3.7917,-3.8271,-3.8862,-3.8743,-3.9226,-4.0044,-4.0986,-4.1055,-4.0867,-4.1034,-4.083,-4.0524,-4.0524,-4.0524,-4.047,-4.0331,-4.0401,-4.0455,-4.0347,-4.0401,-4.047,-4.0331,-4.0401,-4.0524,-4.0524,-4.0524,-4.0401,-4.0066,-4.0011,-3.9884,-3.9571,-3.9514,-3.9753,-4.0412,-4.0487,-4.0741,-4.1399,-4.2058,-4.2701,-4.3284,-4.3329,-4.3329,-4.3329,-4.3329,-4.3329,-4.3329,-4.3389,-4.3733,-4.4392,-4.4466,-4.511,-4.6322,-4.6322,-4.6666,-4.7309,-4.7309,-4.7309,-4.7309,-4.7467,-4.7639,-4.7624,-4.7639,-4.7624,-4.7538,-4.7381,-4.7309,-4.7309,-4.7309,-4.7339,-4.7399,-3.6987,-3.6987,-3.6908,-3.6766,-3.6702,-3.6602,-3.6402,-3.6301,-3.6259,-3.6251,-3.6165,-3.6122,-3.6019,-3.5844,-3.5773,-3.5773,-3.5611,-3.5727,-3.6299,-3.68,-3.7403,-3.8119,-3.859,-3.8684,-3.8504,-3.8574,-3.8504,-3.8391,-3.8391,-3.8351,-3.8221,-3.8221,-3.8164,-3.7992,-3.8123,-3.8107,-3.8107,-3.7876,-3.7817,-3.7817,-3.7583,-3.7796,-3.8286,-3.8225,-3.8466,-3.8919,-3.9466,-3.9632,-3.9652,-4.0344,-4.0541,-4.0665,-4.1142,-4.1055,-4.0867,-4.1034,-4.083,-4.0524,-4.0524,-4.0524,-4.047,-4.0331,-4.0347,-4.0347,-4.0347,-4.0207,-4.0207,-4.0401,-4.0455,-4.0524,-4.0524,-4.0524,-4.0401,-4.0066,-4.0011,-4.0035,-4.0186,-4.0187,-4.0427,-4.1085,-4.1175,-4.1429,-4.2087,-4.2746,-4.318,-4.3329,-4.3329,-4.3329,-4.3329,-4.3329,-4.3329,-4.3329,-4.3838,-4.4421,-4.508,-4.5618,-4.6037,-4.6322,-4.6322,-4.6666,-4.7309,-4.7309,-4.7396,-4.7553,-4.7381,-4.7553,-4.788,-4.7709,-4.7624,-4.7639,-4.7538,-4.7467,-4.7309,-4.7309,-4.7638,-4.8072,-3.6987,-3.6948,-3.6869,-3.6766,-3.6725,-3.6643,-3.6444,-3.6402,-3.636,-3.6276,-3.6208,-3.6165,-3.6122,-3.5993,-3.5861,-3.5817,-3.5656,-3.5869,-3.6629,-3.7148,-3.7736,-3.8454,-3.8927,-3.9094,-3.8914,-3.8821,-3.8655,-3.8391,-3.8391,-3.8335,-3.8294,-3.8294,-3.8221,-3.8164,-3.8164,-3.818,-3.818,-3.7992,-3.7876,-3.7908,-3.805,-3.828,-3.8645,-3.8809,-3.9235,-3.9816,-4.0128,-4.0259,-4.0318,-4.0826,-4.095,-4.1018,-4.1189,-4.1138,-4.095,-4.1034,-4.083,-4.0524,-4.0524,-4.0524,-4.0455,-4.0401,-4.0347,-4.0277,-4.0051,-4.0066,-4.0137,-4.0277,-4.0401,-4.0524,-4.0524,-4.0524,-4.0508,-4.0634,-4.0609,-4.0694,-4.0994,-4.101,-4.125,-4.185,-4.1848,-4.2102,-4.2761,-4.3135,-4.3329,-4.3329,-4.3329,-4.3329,-4.3329,-4.3329,-4.3479,-4.3793,-4.4137,-4.4796,-4.5783,-4.6142,-4.6486,-4.68,-4.68,-4.698,-4.7309,-4.7381,-4.7467,-4.7467,-4.7553,-4.7709,-4.7794,-4.7639,-4.7624,-4.7624,-4.7467,-4.7381,-4.7309,-4.7309,-4.7519,-4.7818,-3.6987,-3.6908,-3.6829,-3.6811,-3.6725,-3.6643,-3.6502,-3.6502,-3.6444,-3.6301,-3.6233,-3.6208,-3.6208,-3.6122,-3.5975,-3.5861,-3.583,-3.6146,-3.6954,-3.7446,-3.8037,-3.8757,-3.9116,-3.9218,-3.8969,-3.8969,-3.8805,-3.8448,-3.8464,-3.8448,-3.8448,-3.8391,-3.8391,-3.8408,-3.8278,-3.8221,-3.8237,-3.8049,-3.7934,-3.794,-3.8492,-3.8766,-3.8896,-3.9361,-4.0023,-4.0702,-4.0376,-4.0536,-4.0867,-4.0867,-4.095,-4.1102,-4.1205,-4.1153,-4.1034,-4.1034,-4.0814,-4.0524,-4.0524,-4.0524,-4.0455,-4.0455,-4.0401,-4.0191,-3.9839,-4.0051,-4.0277,-4.0137,-4.0331,-4.0524,-4.0524,-4.0524,-4.0685,-4.1235,-4.127,-4.1401,-4.1806,-4.1836,-4.2017,-4.2524,-4.2521,-4.2746,-4.3284,-4.3329,-4.3329,-4.3329,-4.3329,-4.3329,-4.3329,-4.3449,-4.3748,-4.4302,-4.4541,-4.52,-4.6307,-4.6426,-4.677,-4.7309,-4.7309,-4.7309,-4.7309,-4.7467,-4.7467,-4.7396,-4.7724,-4.7794,-4.7624,-4.7538,-4.7553,-4.7553,-4.7396,-4.7309,-4.7309,-4.7429,-4.7399,-4.7324,-3.6987,-3.6987,-3.6948,-3.6829,-3.6725,-3.6643,-3.6502,-3.6402,-3.6301,-3.6301,-3.6301,-3.6301,-3.6301,-3.6208,-3.6122,-3.5975,-3.644,-3.7029,-3.781,-3.8333,-3.8891,-3.9493,-3.9382,-3.9148,-3.886,-3.8805,-3.8805,-3.875,-3.8616,-3.856,-3.856,-3.8448,-3.8391,-3.8391,-3.8391,-3.8391,-3.8335,-3.8221,-3.8049,-3.794,-3.8492,-3.9007,-3.9439,-4.0182,-4.0747,-4.1182,-4.1115,-4.1127,-4.1034,-4.1034,-4.1117,-4.1102,-4.1102,-4.1018,-4.0867,-4.0867,-4.0662,-4.0524,-4.0524,-4.0524,-4.0455,-4.0347,-4.0331,-4.0277,-3.9996,-4.0137,-4.0347,-4.0385,-4.0455,-4.0524,-4.0524,-4.0524,-4.0685,-4.1235,-4.127,-4.1568,-4.2455,-4.256,-4.2724,-4.312,-4.321,-4.324,-4.3329,-4.3329,-4.3329,-4.3329,-4.3329,-4.3329,-4.3329,-4.3868,-4.4227,-4.4317,-4.5439,-4.6142,-4.6322,-4.689,-4.7219,-4.7309,-4.7309,-4.7309,-4.7309,-4.7309,-4.7381,-4.7538,-4.7467,-4.7467,-4.7553,-4.7381,-4.7309,-4.7309,-4.7309,-4.7309,-4.7369,-4.7938,-4.7803,-4.7384,-3.7048,-3.7009,-3.6987,-3.6908,-3.6869,-3.6806,-3.6643,-3.6544,-3.6461,-3.6301,-3.6301,-3.6301,-3.6301,-3.6251,-3.6337,-3.6705,-3.6915,-3.7461,-3.8622,-3.8753,-3.9076,-3.9696,-3.9415,-3.9218,-3.9094,-3.8969,-3.8914,-3.8914,-3.8711,-3.856,-3.852,-3.8464,-3.8391,-3.8391,-3.8391,-3.8391,-3.8424,-3.8656,-3.8701,-3.8681,-3.9527,-4.0023,-4.0309,-4.0958,-4.127,-4.1456,-4.1323,-4.1272,-4.1221,-4.1102,-4.1117,-4.1117,-4.1117,-4.095,-4.0799,-4.0799,-4.0662,-4.0524,-4.0524,-4.0524,-4.0455,-4.0401,-4.0401,-4.0401,-4.0331,-4.0331,-4.0401,-4.0401,-4.047,-4.0524,-4.0524,-4.0677,-4.1168,-4.1889,-4.2157,-4.2514,-4.3334,-4.3331,-4.3265,-4.3299,-4.3329,-4.3329,-4.3329,-4.3329,-4.3329,-4.3329,-4.3673,-4.3883,-4.3883,-4.4511,-4.5035,-4.5424,-4.6007,-4.6501,-4.686,-4.716,-4.7309,-4.7309,-4.7309,-4.7309,-4.7294,-4.7381,-4.7467,-4.7467,-4.7467,-4.7467,-4.7467,-4.7309,-4.7309,-4.7309,-4.7309,-4.7309,-4.7339,-4.7638,-4.7461,-4.715]}]]